<?xml version="1.0" encoding="UTF-8" standalone="no" ?>
<gpx xmlns="http://www.topografix.com/GPX/1/1" xmlns:xsi="http://www.w3.org/2001/XMLSchema-instance" xsi:schemaLocation="http://www.topografix.com/GPX/1/1 http://www.topografix.com/GPX/1/1/gpx.xsd" version="1.1" creator="VisuGPX - https://www.visugpx.com">
  <metadata>
    <name>Rando fromage édition 2018</name>
    <desc><![CDATA[Randonnée sur le thème du fromage au départ de Oinvile sur Montcient.]]></desc>
  </metadata>
  <trk>
    <name><![CDATA[MA-rando-2018-10-13-172807]]></name>
    <trkseg>
      <trkpt lat="49.0286" lon="1.8525">
        <ele>45</ele>
        <time>2018-10-13T07:42:04Z</time>
      </trkpt>
      <trkpt lat="49.02851" lon="1.85248">
        <ele>39</ele>
        <time>2018-10-13T07:42:16Z</time>
      </trkpt>
      <trkpt lat="49.02841" lon="1.85252">
        <ele>39</ele>
        <time>2018-10-13T07:42:23Z</time>
      </trkpt>
      <trkpt lat="49.02835" lon="1.85264">
        <ele>39</ele>
        <time>2018-10-13T07:42:33Z</time>
      </trkpt>
      <trkpt lat="49.02828" lon="1.85275">
        <ele>39</ele>
        <time>2018-10-13T07:42:41Z</time>
      </trkpt>
      <trkpt lat="49.02822" lon="1.8529">
        <ele>39</ele>
        <time>2018-10-13T07:42:49Z</time>
      </trkpt>
      <trkpt lat="49.02817" lon="1.85301">
        <ele>40</ele>
        <time>2018-10-13T07:42:56Z</time>
      </trkpt>
      <trkpt lat="49.02811" lon="1.85313">
        <ele>40</ele>
        <time>2018-10-13T07:43:03Z</time>
      </trkpt>
      <trkpt lat="49.02804" lon="1.85323">
        <ele>39</ele>
        <time>2018-10-13T07:43:10Z</time>
      </trkpt>
      <trkpt lat="49.02796" lon="1.85332">
        <ele>39</ele>
        <time>2018-10-13T07:43:17Z</time>
      </trkpt>
      <trkpt lat="49.02789" lon="1.85341">
        <ele>39</ele>
        <time>2018-10-13T07:43:23Z</time>
      </trkpt>
      <trkpt lat="49.02781" lon="1.85348">
        <ele>38</ele>
        <time>2018-10-13T07:43:31Z</time>
      </trkpt>
      <trkpt lat="49.02773" lon="1.85357">
        <ele>39</ele>
        <time>2018-10-13T07:43:38Z</time>
      </trkpt>
      <trkpt lat="49.02765" lon="1.85366">
        <ele>39</ele>
        <time>2018-10-13T07:43:45Z</time>
      </trkpt>
      <trkpt lat="49.02759" lon="1.85377">
        <ele>39</ele>
        <time>2018-10-13T07:43:52Z</time>
      </trkpt>
      <trkpt lat="49.02752" lon="1.85388">
        <ele>40</ele>
        <time>2018-10-13T07:44:00Z</time>
      </trkpt>
      <trkpt lat="49.02746" lon="1.85398">
        <ele>40</ele>
        <time>2018-10-13T07:44:07Z</time>
      </trkpt>
      <trkpt lat="49.0274" lon="1.8541">
        <ele>40</ele>
        <time>2018-10-13T07:44:15Z</time>
      </trkpt>
      <trkpt lat="49.02733" lon="1.85421">
        <ele>40</ele>
        <time>2018-10-13T07:44:23Z</time>
      </trkpt>
      <trkpt lat="49.02728" lon="1.85433">
        <ele>41</ele>
        <time>2018-10-13T07:44:35Z</time>
      </trkpt>
      <trkpt lat="49.02721" lon="1.85442">
        <ele>41</ele>
        <time>2018-10-13T07:44:44Z</time>
      </trkpt>
      <trkpt lat="49.02713" lon="1.85435">
        <ele>42</ele>
        <time>2018-10-13T07:44:54Z</time>
      </trkpt>
      <trkpt lat="49.02709" lon="1.85448">
        <ele>43</ele>
        <time>2018-10-13T07:45:03Z</time>
      </trkpt>
      <trkpt lat="49.02713" lon="1.85461">
        <ele>44</ele>
        <time>2018-10-13T07:45:13Z</time>
      </trkpt>
      <trkpt lat="49.02712" lon="1.85475">
        <ele>45</ele>
        <time>2018-10-13T07:45:23Z</time>
      </trkpt>
      <trkpt lat="49.02706" lon="1.85486">
        <ele>46</ele>
        <time>2018-10-13T07:45:31Z</time>
      </trkpt>
      <trkpt lat="49.02696" lon="1.85492">
        <ele>47</ele>
        <time>2018-10-13T07:45:41Z</time>
      </trkpt>
      <trkpt lat="49.02687" lon="1.85496">
        <ele>48</ele>
        <time>2018-10-13T07:45:49Z</time>
      </trkpt>
      <trkpt lat="49.02677" lon="1.85494">
        <ele>49</ele>
        <time>2018-10-13T07:45:56Z</time>
      </trkpt>
      <trkpt lat="49.02668" lon="1.85495">
        <ele>50</ele>
        <time>2018-10-13T07:46:03Z</time>
      </trkpt>
      <trkpt lat="49.02661" lon="1.85504">
        <ele>52</ele>
        <time>2018-10-13T07:46:12Z</time>
      </trkpt>
      <trkpt lat="49.02655" lon="1.85515">
        <ele>53</ele>
        <time>2018-10-13T07:46:19Z</time>
      </trkpt>
      <trkpt lat="49.02649" lon="1.85527">
        <ele>54</ele>
        <time>2018-10-13T07:46:26Z</time>
      </trkpt>
      <trkpt lat="49.02645" lon="1.8554">
        <ele>55</ele>
        <time>2018-10-13T07:46:34Z</time>
      </trkpt>
      <trkpt lat="49.02639" lon="1.85551">
        <ele>56</ele>
        <time>2018-10-13T07:46:42Z</time>
      </trkpt>
      <trkpt lat="49.02632" lon="1.85561">
        <ele>57</ele>
        <time>2018-10-13T07:46:49Z</time>
      </trkpt>
      <trkpt lat="49.02623" lon="1.85558">
        <ele>57</ele>
        <time>2018-10-13T07:46:59Z</time>
      </trkpt>
      <trkpt lat="49.02613" lon="1.85559">
        <ele>58</ele>
        <time>2018-10-13T07:47:11Z</time>
      </trkpt>
      <trkpt lat="49.02604" lon="1.85563">
        <ele>59</ele>
        <time>2018-10-13T07:47:23Z</time>
      </trkpt>
      <trkpt lat="49.02597" lon="1.85572">
        <ele>60</ele>
        <time>2018-10-13T07:47:33Z</time>
      </trkpt>
      <trkpt lat="49.02588" lon="1.85579">
        <ele>60</ele>
        <time>2018-10-13T07:47:42Z</time>
      </trkpt>
      <trkpt lat="49.02581" lon="1.8559">
        <ele>61</ele>
        <time>2018-10-13T07:47:51Z</time>
      </trkpt>
      <trkpt lat="49.02573" lon="1.85598">
        <ele>62</ele>
        <time>2018-10-13T07:47:59Z</time>
      </trkpt>
      <trkpt lat="49.02565" lon="1.85601">
        <ele>63</ele>
        <time>2018-10-13T07:48:07Z</time>
      </trkpt>
      <trkpt lat="49.02555" lon="1.85605">
        <ele>64</ele>
        <time>2018-10-13T07:48:14Z</time>
      </trkpt>
      <trkpt lat="49.02546" lon="1.85612">
        <ele>65</ele>
        <time>2018-10-13T07:48:23Z</time>
      </trkpt>
      <trkpt lat="49.02539" lon="1.85621">
        <ele>65</ele>
        <time>2018-10-13T07:48:33Z</time>
      </trkpt>
      <trkpt lat="49.0253" lon="1.85626">
        <ele>67</ele>
        <time>2018-10-13T07:51:46Z</time>
      </trkpt>
      <trkpt lat="49.02521" lon="1.85631">
        <ele>70</ele>
        <time>2018-10-13T07:53:15Z</time>
      </trkpt>
      <trkpt lat="49.02511" lon="1.85634">
        <ele>71</ele>
        <time>2018-10-13T07:53:23Z</time>
      </trkpt>
      <trkpt lat="49.02502" lon="1.85636">
        <ele>72</ele>
        <time>2018-10-13T07:53:32Z</time>
      </trkpt>
      <trkpt lat="49.02492" lon="1.85637">
        <ele>72</ele>
        <time>2018-10-13T07:53:43Z</time>
      </trkpt>
      <trkpt lat="49.02483" lon="1.85637">
        <ele>73</ele>
        <time>2018-10-13T07:53:52Z</time>
      </trkpt>
      <trkpt lat="49.02474" lon="1.85636">
        <ele>74</ele>
        <time>2018-10-13T07:54:01Z</time>
      </trkpt>
      <trkpt lat="49.02465" lon="1.85637">
        <ele>75</ele>
        <time>2018-10-13T07:54:09Z</time>
      </trkpt>
      <trkpt lat="49.02456" lon="1.85637">
        <ele>76</ele>
        <time>2018-10-13T07:54:20Z</time>
      </trkpt>
      <trkpt lat="49.02448" lon="1.85629">
        <ele>78</ele>
        <time>2018-10-13T07:54:30Z</time>
      </trkpt>
      <trkpt lat="49.02448" lon="1.85615">
        <ele>79</ele>
        <time>2018-10-13T07:54:38Z</time>
      </trkpt>
      <trkpt lat="49.02449" lon="1.856">
        <ele>80</ele>
        <time>2018-10-13T07:54:45Z</time>
      </trkpt>
      <trkpt lat="49.02451" lon="1.85586">
        <ele>81</ele>
        <time>2018-10-13T07:54:52Z</time>
      </trkpt>
      <trkpt lat="49.0245" lon="1.85571">
        <ele>82</ele>
        <time>2018-10-13T07:55:00Z</time>
      </trkpt>
      <trkpt lat="49.02453" lon="1.85557">
        <ele>82</ele>
        <time>2018-10-13T07:55:09Z</time>
      </trkpt>
      <trkpt lat="49.02456" lon="1.85542">
        <ele>82</ele>
        <time>2018-10-13T07:55:15Z</time>
      </trkpt>
      <trkpt lat="49.02456" lon="1.85526">
        <ele>83</ele>
        <time>2018-10-13T07:55:21Z</time>
      </trkpt>
      <trkpt lat="49.02456" lon="1.85511">
        <ele>83</ele>
        <time>2018-10-13T07:55:29Z</time>
      </trkpt>
      <trkpt lat="49.02456" lon="1.85497">
        <ele>84</ele>
        <time>2018-10-13T07:55:35Z</time>
      </trkpt>
      <trkpt lat="49.02457" lon="1.85482">
        <ele>84</ele>
        <time>2018-10-13T07:55:41Z</time>
      </trkpt>
      <trkpt lat="49.02458" lon="1.85468">
        <ele>84</ele>
        <time>2018-10-13T07:55:47Z</time>
      </trkpt>
      <trkpt lat="49.02457" lon="1.85454">
        <ele>85</ele>
        <time>2018-10-13T07:55:53Z</time>
      </trkpt>
      <trkpt lat="49.02456" lon="1.85439">
        <ele>85</ele>
        <time>2018-10-13T07:56:01Z</time>
      </trkpt>
      <trkpt lat="49.02456" lon="1.85425">
        <ele>85</ele>
        <time>2018-10-13T07:56:08Z</time>
      </trkpt>
      <trkpt lat="49.02454" lon="1.85409">
        <ele>85</ele>
        <time>2018-10-13T07:56:15Z</time>
      </trkpt>
      <trkpt lat="49.02453" lon="1.85394">
        <ele>86</ele>
        <time>2018-10-13T07:56:22Z</time>
      </trkpt>
      <trkpt lat="49.02444" lon="1.85395">
        <ele>86</ele>
        <time>2018-10-13T07:56:31Z</time>
      </trkpt>
      <trkpt lat="49.02435" lon="1.85396">
        <ele>86</ele>
        <time>2018-10-13T07:56:38Z</time>
      </trkpt>
      <trkpt lat="49.02426" lon="1.8539">
        <ele>86</ele>
        <time>2018-10-13T07:56:47Z</time>
      </trkpt>
      <trkpt lat="49.02417" lon="1.85382">
        <ele>86</ele>
        <time>2018-10-13T07:56:56Z</time>
      </trkpt>
      <trkpt lat="49.02408" lon="1.85376">
        <ele>86</ele>
        <time>2018-10-13T07:57:03Z</time>
      </trkpt>
      <trkpt lat="49.02399" lon="1.85371">
        <ele>86</ele>
        <time>2018-10-13T07:57:10Z</time>
      </trkpt>
      <trkpt lat="49.02389" lon="1.85365">
        <ele>86</ele>
        <time>2018-10-13T07:57:18Z</time>
      </trkpt>
      <trkpt lat="49.0238" lon="1.85359">
        <ele>86</ele>
        <time>2018-10-13T07:57:25Z</time>
      </trkpt>
      <trkpt lat="49.02371" lon="1.85355">
        <ele>87</ele>
        <time>2018-10-13T07:57:31Z</time>
      </trkpt>
      <trkpt lat="49.02362" lon="1.85352">
        <ele>87</ele>
        <time>2018-10-13T07:57:38Z</time>
      </trkpt>
      <trkpt lat="49.02353" lon="1.85346">
        <ele>87</ele>
        <time>2018-10-13T07:57:45Z</time>
      </trkpt>
      <trkpt lat="49.02344" lon="1.8534">
        <ele>88</ele>
        <time>2018-10-13T07:57:52Z</time>
      </trkpt>
      <trkpt lat="49.02335" lon="1.85333">
        <ele>88</ele>
        <time>2018-10-13T07:57:59Z</time>
      </trkpt>
      <trkpt lat="49.02327" lon="1.85326">
        <ele>89</ele>
        <time>2018-10-13T07:58:07Z</time>
      </trkpt>
      <trkpt lat="49.02317" lon="1.8532">
        <ele>89</ele>
        <time>2018-10-13T07:58:14Z</time>
      </trkpt>
      <trkpt lat="49.02308" lon="1.85315">
        <ele>89</ele>
        <time>2018-10-13T07:58:20Z</time>
      </trkpt>
      <trkpt lat="49.02299" lon="1.8531">
        <ele>90</ele>
        <time>2018-10-13T07:58:27Z</time>
      </trkpt>
      <trkpt lat="49.0229" lon="1.85305">
        <ele>90</ele>
        <time>2018-10-13T07:58:34Z</time>
      </trkpt>
      <trkpt lat="49.02282" lon="1.85297">
        <ele>90</ele>
        <time>2018-10-13T07:58:41Z</time>
      </trkpt>
      <trkpt lat="49.02273" lon="1.8529">
        <ele>91</ele>
        <time>2018-10-13T07:58:49Z</time>
      </trkpt>
      <trkpt lat="49.02264" lon="1.85284">
        <ele>91</ele>
        <time>2018-10-13T07:58:57Z</time>
      </trkpt>
      <trkpt lat="49.02254" lon="1.85281">
        <ele>90</ele>
        <time>2018-10-13T07:59:04Z</time>
      </trkpt>
      <trkpt lat="49.02244" lon="1.85277">
        <ele>90</ele>
        <time>2018-10-13T07:59:11Z</time>
      </trkpt>
      <trkpt lat="49.02235" lon="1.8527">
        <ele>90</ele>
        <time>2018-10-13T07:59:19Z</time>
      </trkpt>
      <trkpt lat="49.02227" lon="1.85262">
        <ele>90</ele>
        <time>2018-10-13T07:59:25Z</time>
      </trkpt>
      <trkpt lat="49.02218" lon="1.85256">
        <ele>90</ele>
        <time>2018-10-13T07:59:31Z</time>
      </trkpt>
      <trkpt lat="49.02209" lon="1.8525">
        <ele>90</ele>
        <time>2018-10-13T07:59:38Z</time>
      </trkpt>
      <trkpt lat="49.022" lon="1.85245">
        <ele>90</ele>
        <time>2018-10-13T07:59:44Z</time>
      </trkpt>
      <trkpt lat="49.02191" lon="1.85239">
        <ele>91</ele>
        <time>2018-10-13T07:59:50Z</time>
      </trkpt>
      <trkpt lat="49.02182" lon="1.85233">
        <ele>91</ele>
        <time>2018-10-13T07:59:56Z</time>
      </trkpt>
      <trkpt lat="49.02173" lon="1.85227">
        <ele>91</ele>
        <time>2018-10-13T08:00:03Z</time>
      </trkpt>
      <trkpt lat="49.02165" lon="1.85221">
        <ele>92</ele>
        <time>2018-10-13T08:00:09Z</time>
      </trkpt>
      <trkpt lat="49.02156" lon="1.85214">
        <ele>92</ele>
        <time>2018-10-13T08:00:16Z</time>
      </trkpt>
      <trkpt lat="49.02147" lon="1.85208">
        <ele>93</ele>
        <time>2018-10-13T08:00:23Z</time>
      </trkpt>
      <trkpt lat="49.02138" lon="1.85204">
        <ele>93</ele>
        <time>2018-10-13T08:00:30Z</time>
      </trkpt>
      <trkpt lat="49.02129" lon="1.85198">
        <ele>94</ele>
        <time>2018-10-13T08:00:38Z</time>
      </trkpt>
      <trkpt lat="49.02121" lon="1.85191">
        <ele>94</ele>
        <time>2018-10-13T08:00:45Z</time>
      </trkpt>
      <trkpt lat="49.02111" lon="1.85185">
        <ele>94</ele>
        <time>2018-10-13T08:00:53Z</time>
      </trkpt>
      <trkpt lat="49.02103" lon="1.85179">
        <ele>94</ele>
        <time>2018-10-13T08:01:00Z</time>
      </trkpt>
      <trkpt lat="49.02093" lon="1.85175">
        <ele>94</ele>
        <time>2018-10-13T08:01:07Z</time>
      </trkpt>
      <trkpt lat="49.02085" lon="1.8517">
        <ele>94</ele>
        <time>2018-10-13T08:01:14Z</time>
      </trkpt>
      <trkpt lat="49.02076" lon="1.85162">
        <ele>94</ele>
        <time>2018-10-13T08:01:21Z</time>
      </trkpt>
      <trkpt lat="49.02068" lon="1.85153">
        <ele>94</ele>
        <time>2018-10-13T08:01:28Z</time>
      </trkpt>
      <trkpt lat="49.02058" lon="1.8515">
        <ele>94</ele>
        <time>2018-10-13T08:01:35Z</time>
      </trkpt>
      <trkpt lat="49.02049" lon="1.85145">
        <ele>95</ele>
        <time>2018-10-13T08:01:43Z</time>
      </trkpt>
      <trkpt lat="49.02041" lon="1.85139">
        <ele>95</ele>
        <time>2018-10-13T08:01:51Z</time>
      </trkpt>
      <trkpt lat="49.02032" lon="1.85133">
        <ele>94</ele>
        <time>2018-10-13T08:01:59Z</time>
      </trkpt>
      <trkpt lat="49.02024" lon="1.85126">
        <ele>94</ele>
        <time>2018-10-13T08:02:07Z</time>
      </trkpt>
      <trkpt lat="49.02015" lon="1.85119">
        <ele>94</ele>
        <time>2018-10-13T08:02:14Z</time>
      </trkpt>
      <trkpt lat="49.02006" lon="1.85114">
        <ele>95</ele>
        <time>2018-10-13T08:02:21Z</time>
      </trkpt>
      <trkpt lat="49.01998" lon="1.85106">
        <ele>95</ele>
        <time>2018-10-13T08:02:27Z</time>
      </trkpt>
      <trkpt lat="49.01989" lon="1.851">
        <ele>96</ele>
        <time>2018-10-13T08:02:35Z</time>
      </trkpt>
      <trkpt lat="49.0198" lon="1.85094">
        <ele>97</ele>
        <time>2018-10-13T08:02:43Z</time>
      </trkpt>
      <trkpt lat="49.01971" lon="1.85089">
        <ele>98</ele>
        <time>2018-10-13T08:02:50Z</time>
      </trkpt>
      <trkpt lat="49.01963" lon="1.85082">
        <ele>99</ele>
        <time>2018-10-13T08:02:58Z</time>
      </trkpt>
      <trkpt lat="49.01954" lon="1.85075">
        <ele>99</ele>
        <time>2018-10-13T08:03:06Z</time>
      </trkpt>
      <trkpt lat="49.01944" lon="1.85069">
        <ele>100</ele>
        <time>2018-10-13T08:03:14Z</time>
      </trkpt>
      <trkpt lat="49.01935" lon="1.85063">
        <ele>100</ele>
        <time>2018-10-13T08:03:22Z</time>
      </trkpt>
      <trkpt lat="49.01926" lon="1.8506">
        <ele>101</ele>
        <time>2018-10-13T08:03:28Z</time>
      </trkpt>
      <trkpt lat="49.01916" lon="1.85057">
        <ele>101</ele>
        <time>2018-10-13T08:03:36Z</time>
      </trkpt>
      <trkpt lat="49.01907" lon="1.85051">
        <ele>101</ele>
        <time>2018-10-13T08:03:44Z</time>
      </trkpt>
      <trkpt lat="49.01899" lon="1.85045">
        <ele>101</ele>
        <time>2018-10-13T08:03:51Z</time>
      </trkpt>
      <trkpt lat="49.0189" lon="1.8504">
        <ele>101</ele>
        <time>2018-10-13T08:03:59Z</time>
      </trkpt>
      <trkpt lat="49.01881" lon="1.85034">
        <ele>101</ele>
        <time>2018-10-13T08:04:06Z</time>
      </trkpt>
      <trkpt lat="49.01873" lon="1.85028">
        <ele>101</ele>
        <time>2018-10-13T08:04:13Z</time>
      </trkpt>
      <trkpt lat="49.01864" lon="1.85021">
        <ele>101</ele>
        <time>2018-10-13T08:04:21Z</time>
      </trkpt>
      <trkpt lat="49.01856" lon="1.85012">
        <ele>101</ele>
        <time>2018-10-13T08:04:28Z</time>
      </trkpt>
      <trkpt lat="49.01847" lon="1.85006">
        <ele>101</ele>
        <time>2018-10-13T08:04:35Z</time>
      </trkpt>
      <trkpt lat="49.01839" lon="1.85">
        <ele>102</ele>
        <time>2018-10-13T08:04:43Z</time>
      </trkpt>
      <trkpt lat="49.01831" lon="1.84993">
        <ele>103</ele>
        <time>2018-10-13T08:04:51Z</time>
      </trkpt>
      <trkpt lat="49.01822" lon="1.84988">
        <ele>103</ele>
        <time>2018-10-13T08:04:59Z</time>
      </trkpt>
      <trkpt lat="49.01813" lon="1.84982">
        <ele>104</ele>
        <time>2018-10-13T08:05:06Z</time>
      </trkpt>
      <trkpt lat="49.01805" lon="1.84977">
        <ele>104</ele>
        <time>2018-10-13T08:05:12Z</time>
      </trkpt>
      <trkpt lat="49.01796" lon="1.84973">
        <ele>105</ele>
        <time>2018-10-13T08:05:19Z</time>
      </trkpt>
      <trkpt lat="49.01787" lon="1.84966">
        <ele>106</ele>
        <time>2018-10-13T08:05:26Z</time>
      </trkpt>
      <trkpt lat="49.01778" lon="1.84961">
        <ele>106</ele>
        <time>2018-10-13T08:05:34Z</time>
      </trkpt>
      <trkpt lat="49.0177" lon="1.84954">
        <ele>107</ele>
        <time>2018-10-13T08:05:42Z</time>
      </trkpt>
      <trkpt lat="49.01767" lon="1.8494">
        <ele>108</ele>
        <time>2018-10-13T08:05:49Z</time>
      </trkpt>
      <trkpt lat="49.01772" lon="1.84927">
        <ele>109</ele>
        <time>2018-10-13T08:05:57Z</time>
      </trkpt>
      <trkpt lat="49.01768" lon="1.84913">
        <ele>111</ele>
        <time>2018-10-13T08:06:08Z</time>
      </trkpt>
      <trkpt lat="49.01759" lon="1.84909">
        <ele>111</ele>
        <time>2018-10-13T08:06:15Z</time>
      </trkpt>
      <trkpt lat="49.01751" lon="1.84902">
        <ele>111</ele>
        <time>2018-10-13T08:06:24Z</time>
      </trkpt>
      <trkpt lat="49.01742" lon="1.84895">
        <ele>111</ele>
        <time>2018-10-13T08:06:32Z</time>
      </trkpt>
      <trkpt lat="49.01734" lon="1.84886">
        <ele>112</ele>
        <time>2018-10-13T08:06:40Z</time>
      </trkpt>
      <trkpt lat="49.01725" lon="1.8488">
        <ele>112</ele>
        <time>2018-10-13T08:06:48Z</time>
      </trkpt>
      <trkpt lat="49.01716" lon="1.84874">
        <ele>112</ele>
        <time>2018-10-13T08:06:56Z</time>
      </trkpt>
      <trkpt lat="49.01707" lon="1.84867">
        <ele>113</ele>
        <time>2018-10-13T08:07:04Z</time>
      </trkpt>
      <trkpt lat="49.01699" lon="1.84861">
        <ele>113</ele>
        <time>2018-10-13T08:07:11Z</time>
      </trkpt>
      <trkpt lat="49.01691" lon="1.84855">
        <ele>114</ele>
        <time>2018-10-13T08:07:18Z</time>
      </trkpt>
      <trkpt lat="49.01682" lon="1.84848">
        <ele>115</ele>
        <time>2018-10-13T08:07:27Z</time>
      </trkpt>
      <trkpt lat="49.01672" lon="1.84841">
        <ele>115</ele>
        <time>2018-10-13T08:07:35Z</time>
      </trkpt>
      <trkpt lat="49.01664" lon="1.84833">
        <ele>116</ele>
        <time>2018-10-13T08:07:44Z</time>
      </trkpt>
      <trkpt lat="49.01656" lon="1.84824">
        <ele>117</ele>
        <time>2018-10-13T08:07:52Z</time>
      </trkpt>
      <trkpt lat="49.0165" lon="1.84813">
        <ele>118</ele>
        <time>2018-10-13T08:08:00Z</time>
      </trkpt>
      <trkpt lat="49.01643" lon="1.84802">
        <ele>119</ele>
        <time>2018-10-13T08:08:08Z</time>
      </trkpt>
      <trkpt lat="49.01636" lon="1.84793">
        <ele>120</ele>
        <time>2018-10-13T08:08:19Z</time>
      </trkpt>
      <trkpt lat="49.01628" lon="1.84786">
        <ele>120</ele>
        <time>2018-10-13T08:08:26Z</time>
      </trkpt>
      <trkpt lat="49.01619" lon="1.8478">
        <ele>120</ele>
        <time>2018-10-13T08:08:36Z</time>
      </trkpt>
      <trkpt lat="49.0161" lon="1.84774">
        <ele>121</ele>
        <time>2018-10-13T08:08:47Z</time>
      </trkpt>
      <trkpt lat="49.01601" lon="1.84768">
        <ele>121</ele>
        <time>2018-10-13T08:08:57Z</time>
      </trkpt>
      <trkpt lat="49.01593" lon="1.8476">
        <ele>121</ele>
        <time>2018-10-13T08:09:05Z</time>
      </trkpt>
      <trkpt lat="49.01585" lon="1.84755">
        <ele>122</ele>
        <time>2018-10-13T08:09:21Z</time>
      </trkpt>
      <trkpt lat="49.01577" lon="1.84765">
        <ele>126</ele>
        <time>2018-10-13T08:10:40Z</time>
      </trkpt>
      <trkpt lat="49.01568" lon="1.84771">
        <ele>126</ele>
        <time>2018-10-13T08:10:46Z</time>
      </trkpt>
      <trkpt lat="49.01559" lon="1.84778">
        <ele>127</ele>
        <time>2018-10-13T08:10:54Z</time>
      </trkpt>
      <trkpt lat="49.0155" lon="1.84778">
        <ele>127</ele>
        <time>2018-10-13T08:11:04Z</time>
      </trkpt>
      <trkpt lat="49.01541" lon="1.84777">
        <ele>128</ele>
        <time>2018-10-13T08:11:12Z</time>
      </trkpt>
      <trkpt lat="49.01531" lon="1.84775">
        <ele>129</ele>
        <time>2018-10-13T08:11:22Z</time>
      </trkpt>
      <trkpt lat="49.01523" lon="1.8477">
        <ele>130</ele>
        <time>2018-10-13T08:11:32Z</time>
      </trkpt>
      <trkpt lat="49.01514" lon="1.84768">
        <ele>131</ele>
        <time>2018-10-13T08:11:40Z</time>
      </trkpt>
      <trkpt lat="49.01505" lon="1.84766">
        <ele>133</ele>
        <time>2018-10-13T08:11:48Z</time>
      </trkpt>
      <trkpt lat="49.01495" lon="1.84762">
        <ele>134</ele>
        <time>2018-10-13T08:11:56Z</time>
      </trkpt>
      <trkpt lat="49.01486" lon="1.84756">
        <ele>135</ele>
        <time>2018-10-13T08:12:03Z</time>
      </trkpt>
      <trkpt lat="49.01477" lon="1.84757">
        <ele>137</ele>
        <time>2018-10-13T08:12:11Z</time>
      </trkpt>
      <trkpt lat="49.01468" lon="1.84755">
        <ele>137</ele>
        <time>2018-10-13T08:12:18Z</time>
      </trkpt>
      <trkpt lat="49.01461" lon="1.84746">
        <ele>138</ele>
        <time>2018-10-13T08:12:30Z</time>
      </trkpt>
      <trkpt lat="49.01461" lon="1.84732">
        <ele>140</ele>
        <time>2018-10-13T08:12:40Z</time>
      </trkpt>
      <trkpt lat="49.01456" lon="1.84718">
        <ele>141</ele>
        <time>2018-10-13T08:12:48Z</time>
      </trkpt>
      <trkpt lat="49.01451" lon="1.84706">
        <ele>142</ele>
        <time>2018-10-13T08:12:53Z</time>
      </trkpt>
      <trkpt lat="49.01448" lon="1.84693">
        <ele>143</ele>
        <time>2018-10-13T08:13:03Z</time>
      </trkpt>
      <trkpt lat="49.01446" lon="1.84678">
        <ele>143</ele>
        <time>2018-10-13T08:13:11Z</time>
      </trkpt>
      <trkpt lat="49.01445" lon="1.84663">
        <ele>143</ele>
        <time>2018-10-13T08:13:18Z</time>
      </trkpt>
      <trkpt lat="49.01442" lon="1.84651">
        <ele>143</ele>
        <time>2018-10-13T08:13:25Z</time>
      </trkpt>
      <trkpt lat="49.01439" lon="1.84637">
        <ele>144</ele>
        <time>2018-10-13T08:13:32Z</time>
      </trkpt>
      <trkpt lat="49.01437" lon="1.84623">
        <ele>144</ele>
        <time>2018-10-13T08:13:40Z</time>
      </trkpt>
      <trkpt lat="49.01432" lon="1.8461">
        <ele>145</ele>
        <time>2018-10-13T08:13:48Z</time>
      </trkpt>
      <trkpt lat="49.01428" lon="1.84598">
        <ele>147</ele>
        <time>2018-10-13T08:14:11Z</time>
      </trkpt>
      <trkpt lat="49.01423" lon="1.84587">
        <ele>148</ele>
        <time>2018-10-13T08:14:33Z</time>
      </trkpt>
      <trkpt lat="49.01428" lon="1.84573">
        <ele>149</ele>
        <time>2018-10-13T08:14:41Z</time>
      </trkpt>
      <trkpt lat="49.01434" lon="1.8456">
        <ele>150</ele>
        <time>2018-10-13T08:14:49Z</time>
      </trkpt>
      <trkpt lat="49.0144" lon="1.84547">
        <ele>150</ele>
        <time>2018-10-13T08:14:55Z</time>
      </trkpt>
      <trkpt lat="49.01445" lon="1.84536">
        <ele>151</ele>
        <time>2018-10-13T08:15:01Z</time>
      </trkpt>
      <trkpt lat="49.0145" lon="1.84523">
        <ele>152</ele>
        <time>2018-10-13T08:15:09Z</time>
      </trkpt>
      <trkpt lat="49.0145" lon="1.84509">
        <ele>153</ele>
        <time>2018-10-13T08:15:15Z</time>
      </trkpt>
      <trkpt lat="49.01448" lon="1.84494">
        <ele>153</ele>
        <time>2018-10-13T08:15:22Z</time>
      </trkpt>
      <trkpt lat="49.01447" lon="1.8448">
        <ele>154</ele>
        <time>2018-10-13T08:15:29Z</time>
      </trkpt>
      <trkpt lat="49.01445" lon="1.84466">
        <ele>154</ele>
        <time>2018-10-13T08:15:38Z</time>
      </trkpt>
      <trkpt lat="49.01443" lon="1.84451">
        <ele>155</ele>
        <time>2018-10-13T08:15:46Z</time>
      </trkpt>
      <trkpt lat="49.01437" lon="1.8444">
        <ele>155</ele>
        <time>2018-10-13T08:15:55Z</time>
      </trkpt>
      <trkpt lat="49.01432" lon="1.84428">
        <ele>155</ele>
        <time>2018-10-13T08:16:04Z</time>
      </trkpt>
      <trkpt lat="49.01425" lon="1.84419">
        <ele>156</ele>
        <time>2018-10-13T08:16:13Z</time>
      </trkpt>
      <trkpt lat="49.01417" lon="1.84409">
        <ele>157</ele>
        <time>2018-10-13T08:16:22Z</time>
      </trkpt>
      <trkpt lat="49.01409" lon="1.844">
        <ele>157</ele>
        <time>2018-10-13T08:16:31Z</time>
      </trkpt>
      <trkpt lat="49.01402" lon="1.84391">
        <ele>157</ele>
        <time>2018-10-13T08:16:39Z</time>
      </trkpt>
      <trkpt lat="49.01396" lon="1.84381">
        <ele>158</ele>
        <time>2018-10-13T08:16:48Z</time>
      </trkpt>
      <trkpt lat="49.01388" lon="1.84371">
        <ele>158</ele>
        <time>2018-10-13T08:16:57Z</time>
      </trkpt>
      <trkpt lat="49.01379" lon="1.84365">
        <ele>158</ele>
        <time>2018-10-13T08:17:02Z</time>
      </trkpt>
      <trkpt lat="49.0137" lon="1.84372">
        <ele>158</ele>
        <time>2018-10-13T08:17:09Z</time>
      </trkpt>
      <trkpt lat="49.01364" lon="1.84385">
        <ele>157</ele>
        <time>2018-10-13T08:17:16Z</time>
      </trkpt>
      <trkpt lat="49.01359" lon="1.84396">
        <ele>157</ele>
        <time>2018-10-13T08:17:32Z</time>
      </trkpt>
      <trkpt lat="49.01362" lon="1.84382">
        <ele>161</ele>
        <time>2018-10-13T08:18:05Z</time>
      </trkpt>
      <trkpt lat="49.01363" lon="1.84368">
        <ele>161</ele>
        <time>2018-10-13T08:18:12Z</time>
      </trkpt>
      <trkpt lat="49.01361" lon="1.84354">
        <ele>162</ele>
        <time>2018-10-13T08:18:20Z</time>
      </trkpt>
      <trkpt lat="49.01364" lon="1.8434">
        <ele>162</ele>
        <time>2018-10-13T08:18:30Z</time>
      </trkpt>
      <trkpt lat="49.01367" lon="1.84326">
        <ele>162</ele>
        <time>2018-10-13T08:18:37Z</time>
      </trkpt>
      <trkpt lat="49.0137" lon="1.84311">
        <ele>162</ele>
        <time>2018-10-13T08:18:44Z</time>
      </trkpt>
      <trkpt lat="49.0137" lon="1.84296">
        <ele>162</ele>
        <time>2018-10-13T08:18:51Z</time>
      </trkpt>
      <trkpt lat="49.01366" lon="1.84283">
        <ele>162</ele>
        <time>2018-10-13T08:18:57Z</time>
      </trkpt>
      <trkpt lat="49.01359" lon="1.84272">
        <ele>162</ele>
        <time>2018-10-13T08:19:05Z</time>
      </trkpt>
      <trkpt lat="49.01353" lon="1.8426">
        <ele>162</ele>
        <time>2018-10-13T08:19:13Z</time>
      </trkpt>
      <trkpt lat="49.01353" lon="1.84246">
        <ele>163</ele>
        <time>2018-10-13T08:19:20Z</time>
      </trkpt>
      <trkpt lat="49.01351" lon="1.84232">
        <ele>163</ele>
        <time>2018-10-13T08:19:31Z</time>
      </trkpt>
      <trkpt lat="49.01347" lon="1.8422">
        <ele>162</ele>
        <time>2018-10-13T08:19:39Z</time>
      </trkpt>
      <trkpt lat="49.01347" lon="1.84204">
        <ele>162</ele>
        <time>2018-10-13T08:19:47Z</time>
      </trkpt>
      <trkpt lat="49.01342" lon="1.8419">
        <ele>161</ele>
        <time>2018-10-13T08:19:54Z</time>
      </trkpt>
      <trkpt lat="49.01339" lon="1.84177">
        <ele>160</ele>
        <time>2018-10-13T08:20:01Z</time>
      </trkpt>
      <trkpt lat="49.01335" lon="1.84164">
        <ele>159</ele>
        <time>2018-10-13T08:20:11Z</time>
      </trkpt>
      <trkpt lat="49.01332" lon="1.8415">
        <ele>159</ele>
        <time>2018-10-13T08:20:18Z</time>
      </trkpt>
      <trkpt lat="49.01328" lon="1.84138">
        <ele>158</ele>
        <time>2018-10-13T08:20:26Z</time>
      </trkpt>
      <trkpt lat="49.01324" lon="1.84124">
        <ele>158</ele>
        <time>2018-10-13T08:20:33Z</time>
      </trkpt>
      <trkpt lat="49.01322" lon="1.8411">
        <ele>158</ele>
        <time>2018-10-13T08:20:40Z</time>
      </trkpt>
      <trkpt lat="49.01323" lon="1.84094">
        <ele>158</ele>
        <time>2018-10-13T08:20:47Z</time>
      </trkpt>
      <trkpt lat="49.01323" lon="1.84081">
        <ele>158</ele>
        <time>2018-10-13T08:20:54Z</time>
      </trkpt>
      <trkpt lat="49.01321" lon="1.84067">
        <ele>159</ele>
        <time>2018-10-13T08:21:03Z</time>
      </trkpt>
      <trkpt lat="49.01318" lon="1.84051">
        <ele>160</ele>
        <time>2018-10-13T08:21:11Z</time>
      </trkpt>
      <trkpt lat="49.01315" lon="1.84038">
        <ele>160</ele>
        <time>2018-10-13T08:21:17Z</time>
      </trkpt>
      <trkpt lat="49.01312" lon="1.84025">
        <ele>160</ele>
        <time>2018-10-13T08:21:24Z</time>
      </trkpt>
      <trkpt lat="49.01309" lon="1.84011">
        <ele>160</ele>
        <time>2018-10-13T08:21:32Z</time>
      </trkpt>
      <trkpt lat="49.01308" lon="1.83995">
        <ele>160</ele>
        <time>2018-10-13T08:21:40Z</time>
      </trkpt>
      <trkpt lat="49.01307" lon="1.83981">
        <ele>161</ele>
        <time>2018-10-13T08:21:47Z</time>
      </trkpt>
      <trkpt lat="49.01305" lon="1.83966">
        <ele>162</ele>
        <time>2018-10-13T08:21:56Z</time>
      </trkpt>
      <trkpt lat="49.01301" lon="1.83951">
        <ele>162</ele>
        <time>2018-10-13T08:22:03Z</time>
      </trkpt>
      <trkpt lat="49.01299" lon="1.83936">
        <ele>162</ele>
        <time>2018-10-13T08:22:10Z</time>
      </trkpt>
      <trkpt lat="49.01293" lon="1.83923">
        <ele>163</ele>
        <time>2018-10-13T08:22:18Z</time>
      </trkpt>
      <trkpt lat="49.01284" lon="1.83921">
        <ele>165</ele>
        <time>2018-10-13T08:22:52Z</time>
      </trkpt>
      <trkpt lat="49.01276" lon="1.83927">
        <ele>165</ele>
        <time>2018-10-13T08:23:02Z</time>
      </trkpt>
      <trkpt lat="49.01267" lon="1.8393">
        <ele>167</ele>
        <time>2018-10-13T08:24:23Z</time>
      </trkpt>
      <trkpt lat="49.01261" lon="1.8392">
        <ele>166</ele>
        <time>2018-10-13T08:24:38Z</time>
      </trkpt>
      <trkpt lat="49.01251" lon="1.8392">
        <ele>166</ele>
        <time>2018-10-13T08:24:47Z</time>
      </trkpt>
      <trkpt lat="49.01242" lon="1.83922">
        <ele>166</ele>
        <time>2018-10-13T08:24:54Z</time>
      </trkpt>
      <trkpt lat="49.01232" lon="1.83922">
        <ele>167</ele>
        <time>2018-10-13T08:25:03Z</time>
      </trkpt>
      <trkpt lat="49.01223" lon="1.83926">
        <ele>168</ele>
        <time>2018-10-13T08:25:11Z</time>
      </trkpt>
      <trkpt lat="49.01215" lon="1.83931">
        <ele>169</ele>
        <time>2018-10-13T08:25:18Z</time>
      </trkpt>
      <trkpt lat="49.01206" lon="1.83937">
        <ele>170</ele>
        <time>2018-10-13T08:25:23Z</time>
      </trkpt>
      <trkpt lat="49.01198" lon="1.83943">
        <ele>170</ele>
        <time>2018-10-13T08:25:29Z</time>
      </trkpt>
      <trkpt lat="49.0119" lon="1.8395">
        <ele>171</ele>
        <time>2018-10-13T08:25:35Z</time>
      </trkpt>
      <trkpt lat="49.01183" lon="1.83959">
        <ele>171</ele>
        <time>2018-10-13T08:25:42Z</time>
      </trkpt>
      <trkpt lat="49.01176" lon="1.8397">
        <ele>171</ele>
        <time>2018-10-13T08:25:50Z</time>
      </trkpt>
      <trkpt lat="49.01169" lon="1.83981">
        <ele>171</ele>
        <time>2018-10-13T08:25:58Z</time>
      </trkpt>
      <trkpt lat="49.01161" lon="1.8399">
        <ele>171</ele>
        <time>2018-10-13T08:26:07Z</time>
      </trkpt>
      <trkpt lat="49.01152" lon="1.83996">
        <ele>171</ele>
        <time>2018-10-13T08:26:15Z</time>
      </trkpt>
      <trkpt lat="49.01145" lon="1.84005">
        <ele>172</ele>
        <time>2018-10-13T08:26:21Z</time>
      </trkpt>
      <trkpt lat="49.01137" lon="1.84012">
        <ele>171</ele>
        <time>2018-10-13T08:26:29Z</time>
      </trkpt>
      <trkpt lat="49.01128" lon="1.84015">
        <ele>171</ele>
        <time>2018-10-13T08:26:37Z</time>
      </trkpt>
      <trkpt lat="49.01119" lon="1.84008">
        <ele>170</ele>
        <time>2018-10-13T08:26:44Z</time>
      </trkpt>
      <trkpt lat="49.01113" lon="1.83996">
        <ele>171</ele>
        <time>2018-10-13T08:26:50Z</time>
      </trkpt>
      <trkpt lat="49.01109" lon="1.83984">
        <ele>171</ele>
        <time>2018-10-13T08:26:58Z</time>
      </trkpt>
      <trkpt lat="49.01102" lon="1.83972">
        <ele>172</ele>
        <time>2018-10-13T08:27:06Z</time>
      </trkpt>
      <trkpt lat="49.01095" lon="1.83963">
        <ele>172</ele>
        <time>2018-10-13T08:27:11Z</time>
      </trkpt>
      <trkpt lat="49.01087" lon="1.83954">
        <ele>172</ele>
        <time>2018-10-13T08:27:20Z</time>
      </trkpt>
      <trkpt lat="49.01081" lon="1.83943">
        <ele>172</ele>
        <time>2018-10-13T08:27:26Z</time>
      </trkpt>
      <trkpt lat="49.01074" lon="1.83934">
        <ele>172</ele>
        <time>2018-10-13T08:27:33Z</time>
      </trkpt>
      <trkpt lat="49.01066" lon="1.83925">
        <ele>172</ele>
        <time>2018-10-13T08:27:39Z</time>
      </trkpt>
      <trkpt lat="49.01059" lon="1.83914">
        <ele>172</ele>
        <time>2018-10-13T08:27:48Z</time>
      </trkpt>
      <trkpt lat="49.01054" lon="1.83903">
        <ele>172</ele>
        <time>2018-10-13T08:27:55Z</time>
      </trkpt>
      <trkpt lat="49.01046" lon="1.83892">
        <ele>173</ele>
        <time>2018-10-13T08:28:01Z</time>
      </trkpt>
      <trkpt lat="49.01038" lon="1.83885">
        <ele>173</ele>
        <time>2018-10-13T08:28:07Z</time>
      </trkpt>
      <trkpt lat="49.01029" lon="1.83879">
        <ele>172</ele>
        <time>2018-10-13T08:28:16Z</time>
      </trkpt>
      <trkpt lat="49.0102" lon="1.83876">
        <ele>172</ele>
        <time>2018-10-13T08:28:21Z</time>
      </trkpt>
      <trkpt lat="49.01011" lon="1.83881">
        <ele>172</ele>
        <time>2018-10-13T08:28:28Z</time>
      </trkpt>
      <trkpt lat="49.01003" lon="1.83891">
        <ele>173</ele>
        <time>2018-10-13T08:28:34Z</time>
      </trkpt>
      <trkpt lat="49.00997" lon="1.83903">
        <ele>173</ele>
        <time>2018-10-13T08:28:40Z</time>
      </trkpt>
      <trkpt lat="49.00993" lon="1.83916">
        <ele>174</ele>
        <time>2018-10-13T08:28:47Z</time>
      </trkpt>
      <trkpt lat="49.00988" lon="1.83928">
        <ele>174</ele>
        <time>2018-10-13T08:28:53Z</time>
      </trkpt>
      <trkpt lat="49.00983" lon="1.83941">
        <ele>175</ele>
        <time>2018-10-13T08:29:01Z</time>
      </trkpt>
      <trkpt lat="49.0098" lon="1.83955">
        <ele>176</ele>
        <time>2018-10-13T08:29:07Z</time>
      </trkpt>
      <trkpt lat="49.00976" lon="1.8397">
        <ele>176</ele>
        <time>2018-10-13T08:29:13Z</time>
      </trkpt>
      <trkpt lat="49.00973" lon="1.83983">
        <ele>176</ele>
        <time>2018-10-13T08:29:20Z</time>
      </trkpt>
      <trkpt lat="49.00969" lon="1.83997">
        <ele>176</ele>
        <time>2018-10-13T08:29:26Z</time>
      </trkpt>
      <trkpt lat="49.00966" lon="1.84011">
        <ele>176</ele>
        <time>2018-10-13T08:29:32Z</time>
      </trkpt>
      <trkpt lat="49.00962" lon="1.84024">
        <ele>176</ele>
        <time>2018-10-13T08:29:39Z</time>
      </trkpt>
      <trkpt lat="49.00959" lon="1.84037">
        <ele>176</ele>
        <time>2018-10-13T08:29:47Z</time>
      </trkpt>
      <trkpt lat="49.00955" lon="1.84051">
        <ele>176</ele>
        <time>2018-10-13T08:29:55Z</time>
      </trkpt>
      <trkpt lat="49.0095" lon="1.84063">
        <ele>176</ele>
        <time>2018-10-13T08:30:03Z</time>
      </trkpt>
      <trkpt lat="49.00949" lon="1.84077">
        <ele>176</ele>
        <time>2018-10-13T08:30:08Z</time>
      </trkpt>
      <trkpt lat="49.00946" lon="1.84092">
        <ele>176</ele>
        <time>2018-10-13T08:30:14Z</time>
      </trkpt>
      <trkpt lat="49.0094" lon="1.84103">
        <ele>176</ele>
        <time>2018-10-13T08:30:20Z</time>
      </trkpt>
      <trkpt lat="49.00936" lon="1.84116">
        <ele>176</ele>
        <time>2018-10-13T08:30:28Z</time>
      </trkpt>
      <trkpt lat="49.0093" lon="1.84128">
        <ele>176</ele>
        <time>2018-10-13T08:30:34Z</time>
      </trkpt>
      <trkpt lat="49.00928" lon="1.84143">
        <ele>175</ele>
        <time>2018-10-13T08:30:41Z</time>
      </trkpt>
      <trkpt lat="49.00928" lon="1.84157">
        <ele>175</ele>
        <time>2018-10-13T08:30:47Z</time>
      </trkpt>
      <trkpt lat="49.00925" lon="1.8417">
        <ele>175</ele>
        <time>2018-10-13T08:30:53Z</time>
      </trkpt>
      <trkpt lat="49.00921" lon="1.84184">
        <ele>175</ele>
        <time>2018-10-13T08:31:00Z</time>
      </trkpt>
      <trkpt lat="49.00917" lon="1.84197">
        <ele>175</ele>
        <time>2018-10-13T08:31:07Z</time>
      </trkpt>
      <trkpt lat="49.00913" lon="1.84211">
        <ele>175</ele>
        <time>2018-10-13T08:31:15Z</time>
      </trkpt>
      <trkpt lat="49.0091" lon="1.84225">
        <ele>175</ele>
        <time>2018-10-13T08:31:22Z</time>
      </trkpt>
      <trkpt lat="49.00906" lon="1.84239">
        <ele>175</ele>
        <time>2018-10-13T08:31:29Z</time>
      </trkpt>
      <trkpt lat="49.00902" lon="1.84252">
        <ele>175</ele>
        <time>2018-10-13T08:31:34Z</time>
      </trkpt>
      <trkpt lat="49.00897" lon="1.84266">
        <ele>175</ele>
        <time>2018-10-13T08:31:41Z</time>
      </trkpt>
      <trkpt lat="49.00894" lon="1.8428">
        <ele>175</ele>
        <time>2018-10-13T08:31:49Z</time>
      </trkpt>
      <trkpt lat="49.00889" lon="1.84293">
        <ele>175</ele>
        <time>2018-10-13T08:31:56Z</time>
      </trkpt>
      <trkpt lat="49.00885" lon="1.84306">
        <ele>175</ele>
        <time>2018-10-13T08:32:02Z</time>
      </trkpt>
      <trkpt lat="49.00882" lon="1.84321">
        <ele>175</ele>
        <time>2018-10-13T08:32:10Z</time>
      </trkpt>
      <trkpt lat="49.00877" lon="1.84334">
        <ele>175</ele>
        <time>2018-10-13T08:32:19Z</time>
      </trkpt>
      <trkpt lat="49.00873" lon="1.84347">
        <ele>175</ele>
        <time>2018-10-13T08:32:30Z</time>
      </trkpt>
      <trkpt lat="49.00871" lon="1.84363">
        <ele>175</ele>
        <time>2018-10-13T08:32:39Z</time>
      </trkpt>
      <trkpt lat="49.00867" lon="1.84376">
        <ele>175</ele>
        <time>2018-10-13T08:32:46Z</time>
      </trkpt>
      <trkpt lat="49.00862" lon="1.84389">
        <ele>175</ele>
        <time>2018-10-13T08:32:53Z</time>
      </trkpt>
      <trkpt lat="49.00858" lon="1.84402">
        <ele>175</ele>
        <time>2018-10-13T08:32:59Z</time>
      </trkpt>
      <trkpt lat="49.00855" lon="1.84415">
        <ele>176</ele>
        <time>2018-10-13T08:33:06Z</time>
      </trkpt>
      <trkpt lat="49.00851" lon="1.84429">
        <ele>176</ele>
        <time>2018-10-13T08:33:15Z</time>
      </trkpt>
      <trkpt lat="49.00847" lon="1.84442">
        <ele>176</ele>
        <time>2018-10-13T08:33:21Z</time>
      </trkpt>
      <trkpt lat="49.00844" lon="1.84456">
        <ele>177</ele>
        <time>2018-10-13T08:33:28Z</time>
      </trkpt>
      <trkpt lat="49.0084" lon="1.8447">
        <ele>177</ele>
        <time>2018-10-13T08:33:35Z</time>
      </trkpt>
      <trkpt lat="49.00838" lon="1.84484">
        <ele>177</ele>
        <time>2018-10-13T08:33:42Z</time>
      </trkpt>
      <trkpt lat="49.00834" lon="1.84497">
        <ele>177</ele>
        <time>2018-10-13T08:33:49Z</time>
      </trkpt>
      <trkpt lat="49.00831" lon="1.84511">
        <ele>177</ele>
        <time>2018-10-13T08:33:56Z</time>
      </trkpt>
      <trkpt lat="49.00827" lon="1.84525">
        <ele>177</ele>
        <time>2018-10-13T08:34:04Z</time>
      </trkpt>
      <trkpt lat="49.00822" lon="1.84538">
        <ele>177</ele>
        <time>2018-10-13T08:34:10Z</time>
      </trkpt>
      <trkpt lat="49.00816" lon="1.84549">
        <ele>177</ele>
        <time>2018-10-13T08:34:17Z</time>
      </trkpt>
      <trkpt lat="49.00812" lon="1.84562">
        <ele>177</ele>
        <time>2018-10-13T08:34:24Z</time>
      </trkpt>
      <trkpt lat="49.00807" lon="1.84576">
        <ele>178</ele>
        <time>2018-10-13T08:34:30Z</time>
      </trkpt>
      <trkpt lat="49.00805" lon="1.8459">
        <ele>178</ele>
        <time>2018-10-13T08:34:37Z</time>
      </trkpt>
      <trkpt lat="49.00803" lon="1.84604">
        <ele>178</ele>
        <time>2018-10-13T08:34:45Z</time>
      </trkpt>
      <trkpt lat="49.008" lon="1.84617">
        <ele>178</ele>
        <time>2018-10-13T08:34:53Z</time>
      </trkpt>
      <trkpt lat="49.00798" lon="1.84631">
        <ele>178</ele>
        <time>2018-10-13T08:35:00Z</time>
      </trkpt>
      <trkpt lat="49.00794" lon="1.84645">
        <ele>178</ele>
        <time>2018-10-13T08:35:08Z</time>
      </trkpt>
      <trkpt lat="49.00788" lon="1.84657">
        <ele>178</ele>
        <time>2018-10-13T08:35:16Z</time>
      </trkpt>
      <trkpt lat="49.00782" lon="1.8467">
        <ele>177</ele>
        <time>2018-10-13T08:35:22Z</time>
      </trkpt>
      <trkpt lat="49.00777" lon="1.84683">
        <ele>177</ele>
        <time>2018-10-13T08:35:28Z</time>
      </trkpt>
      <trkpt lat="49.00774" lon="1.84698">
        <ele>176</ele>
        <time>2018-10-13T08:35:36Z</time>
      </trkpt>
      <trkpt lat="49.0077" lon="1.84711">
        <ele>176</ele>
        <time>2018-10-13T08:35:42Z</time>
      </trkpt>
      <trkpt lat="49.00767" lon="1.84725">
        <ele>176</ele>
        <time>2018-10-13T08:35:49Z</time>
      </trkpt>
      <trkpt lat="49.00764" lon="1.84739">
        <ele>175</ele>
        <time>2018-10-13T08:35:57Z</time>
      </trkpt>
      <trkpt lat="49.00758" lon="1.8475">
        <ele>175</ele>
        <time>2018-10-13T08:36:03Z</time>
      </trkpt>
      <trkpt lat="49.00754" lon="1.84764">
        <ele>175</ele>
        <time>2018-10-13T08:36:10Z</time>
      </trkpt>
      <trkpt lat="49.00751" lon="1.84779">
        <ele>175</ele>
        <time>2018-10-13T08:36:16Z</time>
      </trkpt>
      <trkpt lat="49.00751" lon="1.84794">
        <ele>174</ele>
        <time>2018-10-13T08:36:23Z</time>
      </trkpt>
      <trkpt lat="49.00755" lon="1.84809">
        <ele>174</ele>
        <time>2018-10-13T08:36:31Z</time>
      </trkpt>
      <trkpt lat="49.00758" lon="1.84823">
        <ele>173</ele>
        <time>2018-10-13T08:36:39Z</time>
      </trkpt>
      <trkpt lat="49.00764" lon="1.84833">
        <ele>172</ele>
        <time>2018-10-13T08:36:46Z</time>
      </trkpt>
      <trkpt lat="49.00769" lon="1.84846">
        <ele>171</ele>
        <time>2018-10-13T08:36:54Z</time>
      </trkpt>
      <trkpt lat="49.00772" lon="1.8486">
        <ele>171</ele>
        <time>2018-10-13T08:37:08Z</time>
      </trkpt>
      <trkpt lat="49.00776" lon="1.84875">
        <ele>170</ele>
        <time>2018-10-13T08:37:14Z</time>
      </trkpt>
      <trkpt lat="49.00781" lon="1.84888">
        <ele>170</ele>
        <time>2018-10-13T08:37:18Z</time>
      </trkpt>
      <trkpt lat="49.00788" lon="1.849">
        <ele>169</ele>
        <time>2018-10-13T08:37:25Z</time>
      </trkpt>
      <trkpt lat="49.00793" lon="1.84913">
        <ele>168</ele>
        <time>2018-10-13T08:37:32Z</time>
      </trkpt>
      <trkpt lat="49.00799" lon="1.84924">
        <ele>167</ele>
        <time>2018-10-13T08:37:38Z</time>
      </trkpt>
      <trkpt lat="49.00803" lon="1.84936">
        <ele>165</ele>
        <time>2018-10-13T08:37:46Z</time>
      </trkpt>
      <trkpt lat="49.00809" lon="1.84948">
        <ele>164</ele>
        <time>2018-10-13T08:37:52Z</time>
      </trkpt>
      <trkpt lat="49.00814" lon="1.84959">
        <ele>164</ele>
        <time>2018-10-13T08:37:58Z</time>
      </trkpt>
      <trkpt lat="49.00818" lon="1.84972">
        <ele>163</ele>
        <time>2018-10-13T08:38:05Z</time>
      </trkpt>
      <trkpt lat="49.00823" lon="1.84984">
        <ele>161</ele>
        <time>2018-10-13T08:38:13Z</time>
      </trkpt>
      <trkpt lat="49.00828" lon="1.84997">
        <ele>159</ele>
        <time>2018-10-13T08:38:26Z</time>
      </trkpt>
      <trkpt lat="49.00831" lon="1.85011">
        <ele>158</ele>
        <time>2018-10-13T08:38:33Z</time>
      </trkpt>
      <trkpt lat="49.00833" lon="1.85026">
        <ele>157</ele>
        <time>2018-10-13T08:38:40Z</time>
      </trkpt>
      <trkpt lat="49.00835" lon="1.85041">
        <ele>155</ele>
        <time>2018-10-13T08:38:47Z</time>
      </trkpt>
      <trkpt lat="49.00836" lon="1.85056">
        <ele>154</ele>
        <time>2018-10-13T08:38:55Z</time>
      </trkpt>
      <trkpt lat="49.00836" lon="1.85071">
        <ele>153</ele>
        <time>2018-10-13T08:39:04Z</time>
      </trkpt>
      <trkpt lat="49.00835" lon="1.85084">
        <ele>153</ele>
        <time>2018-10-13T08:39:12Z</time>
      </trkpt>
      <trkpt lat="49.00834" lon="1.85099">
        <ele>153</ele>
        <time>2018-10-13T08:39:20Z</time>
      </trkpt>
      <trkpt lat="49.00833" lon="1.85113">
        <ele>152</ele>
        <time>2018-10-13T08:39:28Z</time>
      </trkpt>
      <trkpt lat="49.00832" lon="1.85128">
        <ele>151</ele>
        <time>2018-10-13T08:39:35Z</time>
      </trkpt>
      <trkpt lat="49.00833" lon="1.85142">
        <ele>150</ele>
        <time>2018-10-13T08:39:42Z</time>
      </trkpt>
      <trkpt lat="49.00834" lon="1.85156">
        <ele>150</ele>
        <time>2018-10-13T08:39:49Z</time>
      </trkpt>
      <trkpt lat="49.00832" lon="1.85171">
        <ele>149</ele>
        <time>2018-10-13T08:39:56Z</time>
      </trkpt>
      <trkpt lat="49.00829" lon="1.85186">
        <ele>148</ele>
        <time>2018-10-13T08:40:04Z</time>
      </trkpt>
      <trkpt lat="49.00824" lon="1.85199">
        <ele>147</ele>
        <time>2018-10-13T08:40:10Z</time>
      </trkpt>
      <trkpt lat="49.00817" lon="1.85211">
        <ele>146</ele>
        <time>2018-10-13T08:40:17Z</time>
      </trkpt>
      <trkpt lat="49.00813" lon="1.85224">
        <ele>146</ele>
        <time>2018-10-13T08:40:24Z</time>
      </trkpt>
      <trkpt lat="49.00815" lon="1.85238">
        <ele>144</ele>
        <time>2018-10-13T08:40:32Z</time>
      </trkpt>
      <trkpt lat="49.00818" lon="1.85251">
        <ele>143</ele>
        <time>2018-10-13T08:40:40Z</time>
      </trkpt>
      <trkpt lat="49.00824" lon="1.85265">
        <ele>142</ele>
        <time>2018-10-13T08:40:46Z</time>
      </trkpt>
      <trkpt lat="49.00828" lon="1.85279">
        <ele>142</ele>
        <time>2018-10-13T08:40:52Z</time>
      </trkpt>
      <trkpt lat="49.00818" lon="1.85286">
        <ele>142</ele>
        <time>2018-10-13T08:41:27Z</time>
      </trkpt>
      <trkpt lat="49.00811" lon="1.85294">
        <ele>141</ele>
        <time>2018-10-13T08:41:35Z</time>
      </trkpt>
      <trkpt lat="49.00801" lon="1.85299">
        <ele>140</ele>
        <time>2018-10-13T08:41:42Z</time>
      </trkpt>
      <trkpt lat="49.00791" lon="1.85304">
        <ele>140</ele>
        <time>2018-10-13T08:41:50Z</time>
      </trkpt>
      <trkpt lat="49.00782" lon="1.85308">
        <ele>140</ele>
        <time>2018-10-13T08:41:55Z</time>
      </trkpt>
      <trkpt lat="49.00772" lon="1.85313">
        <ele>140</ele>
        <time>2018-10-13T08:42:01Z</time>
      </trkpt>
      <trkpt lat="49.00764" lon="1.85319">
        <ele>139</ele>
        <time>2018-10-13T08:42:07Z</time>
      </trkpt>
      <trkpt lat="49.00755" lon="1.85327">
        <ele>139</ele>
        <time>2018-10-13T08:42:15Z</time>
      </trkpt>
      <trkpt lat="49.00747" lon="1.85336">
        <ele>139</ele>
        <time>2018-10-13T08:42:20Z</time>
      </trkpt>
      <trkpt lat="49.0074" lon="1.85347">
        <ele>139</ele>
        <time>2018-10-13T08:42:28Z</time>
      </trkpt>
      <trkpt lat="49.00731" lon="1.85348">
        <ele>139</ele>
        <time>2018-10-13T08:42:45Z</time>
      </trkpt>
      <trkpt lat="49.00722" lon="1.85349">
        <ele>139</ele>
        <time>2018-10-13T08:42:55Z</time>
      </trkpt>
      <trkpt lat="49.00713" lon="1.85349">
        <ele>141</ele>
        <time>2018-10-13T08:43:04Z</time>
      </trkpt>
      <trkpt lat="49.00703" lon="1.85348">
        <ele>142</ele>
        <time>2018-10-13T08:43:11Z</time>
      </trkpt>
      <trkpt lat="49.00694" lon="1.85346">
        <ele>143</ele>
        <time>2018-10-13T08:43:19Z</time>
      </trkpt>
      <trkpt lat="49.00684" lon="1.85342">
        <ele>144</ele>
        <time>2018-10-13T08:43:26Z</time>
      </trkpt>
      <trkpt lat="49.00676" lon="1.85338">
        <ele>145</ele>
        <time>2018-10-13T08:43:34Z</time>
      </trkpt>
      <trkpt lat="49.00667" lon="1.85331">
        <ele>146</ele>
        <time>2018-10-13T08:43:43Z</time>
      </trkpt>
      <trkpt lat="49.00657" lon="1.85328">
        <ele>147</ele>
        <time>2018-10-13T08:43:50Z</time>
      </trkpt>
      <trkpt lat="49.00647" lon="1.85323">
        <ele>147</ele>
        <time>2018-10-13T08:43:56Z</time>
      </trkpt>
      <trkpt lat="49.00637" lon="1.85317">
        <ele>147</ele>
        <time>2018-10-13T08:44:01Z</time>
      </trkpt>
      <trkpt lat="49.00628" lon="1.85312">
        <ele>148</ele>
        <time>2018-10-13T08:44:06Z</time>
      </trkpt>
      <trkpt lat="49.00619" lon="1.85309">
        <ele>148</ele>
        <time>2018-10-13T08:44:13Z</time>
      </trkpt>
      <trkpt lat="49.0061" lon="1.85304">
        <ele>147</ele>
        <time>2018-10-13T08:44:20Z</time>
      </trkpt>
      <trkpt lat="49.00602" lon="1.85298">
        <ele>147</ele>
        <time>2018-10-13T08:44:28Z</time>
      </trkpt>
      <trkpt lat="49.00594" lon="1.85292">
        <ele>147</ele>
        <time>2018-10-13T08:44:35Z</time>
      </trkpt>
      <trkpt lat="49.00584" lon="1.85289">
        <ele>147</ele>
        <time>2018-10-13T08:44:40Z</time>
      </trkpt>
      <trkpt lat="49.00574" lon="1.85285">
        <ele>147</ele>
        <time>2018-10-13T08:44:46Z</time>
      </trkpt>
      <trkpt lat="49.00566" lon="1.85277">
        <ele>148</ele>
        <time>2018-10-13T08:44:54Z</time>
      </trkpt>
      <trkpt lat="49.00557" lon="1.85272">
        <ele>149</ele>
        <time>2018-10-13T08:45:06Z</time>
      </trkpt>
      <trkpt lat="49.00548" lon="1.85273">
        <ele>150</ele>
        <time>2018-10-13T08:45:17Z</time>
      </trkpt>
      <trkpt lat="49.00538" lon="1.85271">
        <ele>150</ele>
        <time>2018-10-13T08:45:24Z</time>
      </trkpt>
      <trkpt lat="49.00529" lon="1.8527">
        <ele>151</ele>
        <time>2018-10-13T08:45:30Z</time>
      </trkpt>
      <trkpt lat="49.00519" lon="1.85274">
        <ele>151</ele>
        <time>2018-10-13T08:45:38Z</time>
      </trkpt>
      <trkpt lat="49.0051" lon="1.85275">
        <ele>152</ele>
        <time>2018-10-13T08:45:44Z</time>
      </trkpt>
      <trkpt lat="49.005" lon="1.85276">
        <ele>153</ele>
        <time>2018-10-13T08:45:51Z</time>
      </trkpt>
      <trkpt lat="49.00493" lon="1.85266">
        <ele>149</ele>
        <time>2018-10-13T08:48:48Z</time>
      </trkpt>
      <trkpt lat="49.00489" lon="1.85254">
        <ele>151</ele>
        <time>2018-10-13T08:49:00Z</time>
      </trkpt>
      <trkpt lat="49.0048" lon="1.85247">
        <ele>152</ele>
        <time>2018-10-13T08:49:10Z</time>
      </trkpt>
      <trkpt lat="49.00472" lon="1.85253">
        <ele>152</ele>
        <time>2018-10-13T08:49:18Z</time>
      </trkpt>
      <trkpt lat="49.00462" lon="1.85255">
        <ele>153</ele>
        <time>2018-10-13T08:49:26Z</time>
      </trkpt>
      <trkpt lat="49.00453" lon="1.85258">
        <ele>153</ele>
        <time>2018-10-13T08:49:35Z</time>
      </trkpt>
      <trkpt lat="49.00444" lon="1.85258">
        <ele>154</ele>
        <time>2018-10-13T08:49:44Z</time>
      </trkpt>
      <trkpt lat="49.00433" lon="1.8526">
        <ele>153</ele>
        <time>2018-10-13T08:49:52Z</time>
      </trkpt>
      <trkpt lat="49.00423" lon="1.85261">
        <ele>153</ele>
        <time>2018-10-13T08:49:58Z</time>
      </trkpt>
      <trkpt lat="49.00414" lon="1.85262">
        <ele>152</ele>
        <time>2018-10-13T08:50:04Z</time>
      </trkpt>
      <trkpt lat="49.00403" lon="1.85261">
        <ele>151</ele>
        <time>2018-10-13T08:50:11Z</time>
      </trkpt>
      <trkpt lat="49.00393" lon="1.85262">
        <ele>152</ele>
        <time>2018-10-13T08:50:19Z</time>
      </trkpt>
      <trkpt lat="49.00384" lon="1.85263">
        <ele>152</ele>
        <time>2018-10-13T08:50:26Z</time>
      </trkpt>
      <trkpt lat="49.00375" lon="1.85264">
        <ele>152</ele>
        <time>2018-10-13T08:50:32Z</time>
      </trkpt>
      <trkpt lat="49.00365" lon="1.85265">
        <ele>151</ele>
        <time>2018-10-13T08:50:39Z</time>
      </trkpt>
      <trkpt lat="49.00356" lon="1.85262">
        <ele>151</ele>
        <time>2018-10-13T08:50:48Z</time>
      </trkpt>
      <trkpt lat="49.00345" lon="1.8526">
        <ele>151</ele>
        <time>2018-10-13T08:50:55Z</time>
      </trkpt>
      <trkpt lat="49.00335" lon="1.85259">
        <ele>151</ele>
        <time>2018-10-13T08:51:02Z</time>
      </trkpt>
      <trkpt lat="49.00325" lon="1.85259">
        <ele>151</ele>
        <time>2018-10-13T08:51:08Z</time>
      </trkpt>
      <trkpt lat="49.00316" lon="1.85259">
        <ele>151</ele>
        <time>2018-10-13T08:51:15Z</time>
      </trkpt>
      <trkpt lat="49.00307" lon="1.85261">
        <ele>150</ele>
        <time>2018-10-13T08:51:21Z</time>
      </trkpt>
      <trkpt lat="49.00297" lon="1.85265">
        <ele>149</ele>
        <time>2018-10-13T08:51:28Z</time>
      </trkpt>
      <trkpt lat="49.00288" lon="1.85269">
        <ele>148</ele>
        <time>2018-10-13T08:51:35Z</time>
      </trkpt>
      <trkpt lat="49.00279" lon="1.85264">
        <ele>146</ele>
        <time>2018-10-13T08:51:43Z</time>
      </trkpt>
      <trkpt lat="49.00274" lon="1.85253">
        <ele>145</ele>
        <time>2018-10-13T08:51:51Z</time>
      </trkpt>
      <trkpt lat="49.00269" lon="1.8524">
        <ele>143</ele>
        <time>2018-10-13T08:51:59Z</time>
      </trkpt>
      <trkpt lat="49.00261" lon="1.85229">
        <ele>142</ele>
        <time>2018-10-13T08:52:07Z</time>
      </trkpt>
      <trkpt lat="49.00253" lon="1.85223">
        <ele>142</ele>
        <time>2018-10-13T08:52:13Z</time>
      </trkpt>
      <trkpt lat="49.00244" lon="1.85218">
        <ele>141</ele>
        <time>2018-10-13T08:52:19Z</time>
      </trkpt>
      <trkpt lat="49.00236" lon="1.85212">
        <ele>140</ele>
        <time>2018-10-13T08:52:27Z</time>
      </trkpt>
      <trkpt lat="49.00229" lon="1.85201">
        <ele>139</ele>
        <time>2018-10-13T08:52:35Z</time>
      </trkpt>
      <trkpt lat="49.00224" lon="1.85189">
        <ele>139</ele>
        <time>2018-10-13T08:52:43Z</time>
      </trkpt>
      <trkpt lat="49.0022" lon="1.85175">
        <ele>137</ele>
        <time>2018-10-13T08:52:51Z</time>
      </trkpt>
      <trkpt lat="49.00215" lon="1.85162">
        <ele>136</ele>
        <time>2018-10-13T08:52:58Z</time>
      </trkpt>
      <trkpt lat="49.00209" lon="1.85152">
        <ele>135</ele>
        <time>2018-10-13T08:53:05Z</time>
      </trkpt>
      <trkpt lat="49.00202" lon="1.85143">
        <ele>134</ele>
        <time>2018-10-13T08:53:12Z</time>
      </trkpt>
      <trkpt lat="49.00195" lon="1.85133">
        <ele>133</ele>
        <time>2018-10-13T08:53:19Z</time>
      </trkpt>
      <trkpt lat="49.00187" lon="1.85123">
        <ele>132</ele>
        <time>2018-10-13T08:53:27Z</time>
      </trkpt>
      <trkpt lat="49.0018" lon="1.85115">
        <ele>131</ele>
        <time>2018-10-13T08:53:33Z</time>
      </trkpt>
      <trkpt lat="49.00173" lon="1.85104">
        <ele>130</ele>
        <time>2018-10-13T08:53:40Z</time>
      </trkpt>
      <trkpt lat="49.00166" lon="1.85093">
        <ele>129</ele>
        <time>2018-10-13T08:53:47Z</time>
      </trkpt>
      <trkpt lat="49.00161" lon="1.85082">
        <ele>127</ele>
        <time>2018-10-13T08:53:57Z</time>
      </trkpt>
      <trkpt lat="49.00153" lon="1.85074">
        <ele>125</ele>
        <time>2018-10-13T08:54:04Z</time>
      </trkpt>
      <trkpt lat="49.00146" lon="1.85065">
        <ele>123</ele>
        <time>2018-10-13T08:54:15Z</time>
      </trkpt>
      <trkpt lat="49.00136" lon="1.85063">
        <ele>120</ele>
        <time>2018-10-13T08:54:25Z</time>
      </trkpt>
      <trkpt lat="49.00125" lon="1.8506">
        <ele>118</ele>
        <time>2018-10-13T08:54:32Z</time>
      </trkpt>
      <trkpt lat="49.00115" lon="1.8506">
        <ele>115</ele>
        <time>2018-10-13T08:54:40Z</time>
      </trkpt>
      <trkpt lat="49.00106" lon="1.85063">
        <ele>113</ele>
        <time>2018-10-13T08:54:47Z</time>
      </trkpt>
      <trkpt lat="49.00097" lon="1.85066">
        <ele>111</ele>
        <time>2018-10-13T08:54:53Z</time>
      </trkpt>
      <trkpt lat="49.00089" lon="1.85074">
        <ele>110</ele>
        <time>2018-10-13T08:54:59Z</time>
      </trkpt>
      <trkpt lat="49.00083" lon="1.85086">
        <ele>110</ele>
        <time>2018-10-13T08:55:05Z</time>
      </trkpt>
      <trkpt lat="49.00078" lon="1.85097">
        <ele>109</ele>
        <time>2018-10-13T08:55:11Z</time>
      </trkpt>
      <trkpt lat="49.00068" lon="1.851">
        <ele>107</ele>
        <time>2018-10-13T08:55:23Z</time>
      </trkpt>
      <trkpt lat="49.00062" lon="1.85089">
        <ele>106</ele>
        <time>2018-10-13T08:55:28Z</time>
      </trkpt>
      <trkpt lat="49.00056" lon="1.85079">
        <ele>106</ele>
        <time>2018-10-13T08:55:33Z</time>
      </trkpt>
      <trkpt lat="49.00049" lon="1.85067">
        <ele>106</ele>
        <time>2018-10-13T08:55:39Z</time>
      </trkpt>
      <trkpt lat="49.00042" lon="1.85056">
        <ele>106</ele>
        <time>2018-10-13T08:55:45Z</time>
      </trkpt>
      <trkpt lat="49.00034" lon="1.85047">
        <ele>107</ele>
        <time>2018-10-13T08:55:52Z</time>
      </trkpt>
      <trkpt lat="49.00026" lon="1.85039">
        <ele>107</ele>
        <time>2018-10-13T08:55:58Z</time>
      </trkpt>
      <trkpt lat="49.00018" lon="1.85031">
        <ele>108</ele>
        <time>2018-10-13T08:56:07Z</time>
      </trkpt>
      <trkpt lat="49.00011" lon="1.85022">
        <ele>108</ele>
        <time>2018-10-13T08:56:14Z</time>
      </trkpt>
      <trkpt lat="49.00003" lon="1.85015">
        <ele>108</ele>
        <time>2018-10-13T08:56:20Z</time>
      </trkpt>
      <trkpt lat="48.99994" lon="1.85009">
        <ele>108</ele>
        <time>2018-10-13T08:56:26Z</time>
      </trkpt>
      <trkpt lat="48.99984" lon="1.85003">
        <ele>109</ele>
        <time>2018-10-13T08:56:33Z</time>
      </trkpt>
      <trkpt lat="48.99976" lon="1.84998">
        <ele>109</ele>
        <time>2018-10-13T08:56:38Z</time>
      </trkpt>
      <trkpt lat="48.99967" lon="1.84995">
        <ele>109</ele>
        <time>2018-10-13T08:56:45Z</time>
      </trkpt>
      <trkpt lat="48.99958" lon="1.84992">
        <ele>108</ele>
        <time>2018-10-13T08:56:53Z</time>
      </trkpt>
      <trkpt lat="48.99949" lon="1.84988">
        <ele>107</ele>
        <time>2018-10-13T08:56:59Z</time>
      </trkpt>
      <trkpt lat="48.99939" lon="1.84984">
        <ele>106</ele>
        <time>2018-10-13T08:57:10Z</time>
      </trkpt>
      <trkpt lat="48.9993" lon="1.84979">
        <ele>105</ele>
        <time>2018-10-13T08:57:18Z</time>
      </trkpt>
      <trkpt lat="48.99922" lon="1.84972">
        <ele>105</ele>
        <time>2018-10-13T08:57:24Z</time>
      </trkpt>
      <trkpt lat="48.99915" lon="1.84961">
        <ele>104</ele>
        <time>2018-10-13T08:57:31Z</time>
      </trkpt>
      <trkpt lat="48.99906" lon="1.84954">
        <ele>104</ele>
        <time>2018-10-13T08:57:40Z</time>
      </trkpt>
      <trkpt lat="48.99897" lon="1.84951">
        <ele>103</ele>
        <time>2018-10-13T08:57:49Z</time>
      </trkpt>
      <trkpt lat="48.99887" lon="1.84951">
        <ele>101</ele>
        <time>2018-10-13T08:58:04Z</time>
      </trkpt>
      <trkpt lat="48.99878" lon="1.84953">
        <ele>100</ele>
        <time>2018-10-13T08:58:10Z</time>
      </trkpt>
      <trkpt lat="48.99868" lon="1.84956">
        <ele>99</ele>
        <time>2018-10-13T08:58:18Z</time>
      </trkpt>
      <trkpt lat="48.99859" lon="1.84959">
        <ele>99</ele>
        <time>2018-10-13T08:58:27Z</time>
      </trkpt>
      <trkpt lat="48.99851" lon="1.84966">
        <ele>99</ele>
        <time>2018-10-13T08:58:35Z</time>
      </trkpt>
      <trkpt lat="48.99842" lon="1.84971">
        <ele>99</ele>
        <time>2018-10-13T08:58:41Z</time>
      </trkpt>
      <trkpt lat="48.99835" lon="1.8498">
        <ele>100</ele>
        <time>2018-10-13T08:58:49Z</time>
      </trkpt>
      <trkpt lat="48.99826" lon="1.84985">
        <ele>100</ele>
        <time>2018-10-13T08:58:56Z</time>
      </trkpt>
      <trkpt lat="48.99818" lon="1.8499">
        <ele>100</ele>
        <time>2018-10-13T08:59:02Z</time>
      </trkpt>
      <trkpt lat="48.99809" lon="1.84997">
        <ele>101</ele>
        <time>2018-10-13T08:59:10Z</time>
      </trkpt>
      <trkpt lat="48.99802" lon="1.85006">
        <ele>101</ele>
        <time>2018-10-13T08:59:17Z</time>
      </trkpt>
      <trkpt lat="48.99805" lon="1.85019">
        <ele>102</ele>
        <time>2018-10-13T08:59:24Z</time>
      </trkpt>
      <trkpt lat="48.99812" lon="1.8503">
        <ele>102</ele>
        <time>2018-10-13T08:59:32Z</time>
      </trkpt>
      <trkpt lat="48.99819" lon="1.85039">
        <ele>103</ele>
        <time>2018-10-13T08:59:39Z</time>
      </trkpt>
      <trkpt lat="48.99826" lon="1.85051">
        <ele>104</ele>
        <time>2018-10-13T08:59:47Z</time>
      </trkpt>
      <trkpt lat="48.99833" lon="1.85061">
        <ele>105</ele>
        <time>2018-10-13T08:59:54Z</time>
      </trkpt>
      <trkpt lat="48.99842" lon="1.85068">
        <ele>106</ele>
        <time>2018-10-13T09:00:01Z</time>
      </trkpt>
      <trkpt lat="48.99851" lon="1.85074">
        <ele>107</ele>
        <time>2018-10-13T09:00:08Z</time>
      </trkpt>
      <trkpt lat="48.9986" lon="1.8508">
        <ele>108</ele>
        <time>2018-10-13T09:00:17Z</time>
      </trkpt>
      <trkpt lat="48.99867" lon="1.85089">
        <ele>108</ele>
        <time>2018-10-13T09:00:26Z</time>
      </trkpt>
      <trkpt lat="48.99875" lon="1.85097">
        <ele>109</ele>
        <time>2018-10-13T09:00:33Z</time>
      </trkpt>
      <trkpt lat="48.99884" lon="1.85105">
        <ele>109</ele>
        <time>2018-10-13T09:00:39Z</time>
      </trkpt>
      <trkpt lat="48.99892" lon="1.85112">
        <ele>109</ele>
        <time>2018-10-13T09:00:46Z</time>
      </trkpt>
      <trkpt lat="48.999" lon="1.85121">
        <ele>109</ele>
        <time>2018-10-13T09:00:54Z</time>
      </trkpt>
      <trkpt lat="48.99908" lon="1.85129">
        <ele>110</ele>
        <time>2018-10-13T09:01:01Z</time>
      </trkpt>
      <trkpt lat="48.99913" lon="1.8514">
        <ele>110</ele>
        <time>2018-10-13T09:01:17Z</time>
      </trkpt>
      <trkpt lat="48.9991" lon="1.85154">
        <ele>111</ele>
        <time>2018-10-13T09:01:28Z</time>
      </trkpt>
      <trkpt lat="48.99908" lon="1.85168">
        <ele>112</ele>
        <time>2018-10-13T09:01:38Z</time>
      </trkpt>
      <trkpt lat="48.99902" lon="1.85179">
        <ele>113</ele>
        <time>2018-10-13T09:01:45Z</time>
      </trkpt>
      <trkpt lat="48.99898" lon="1.85193">
        <ele>114</ele>
        <time>2018-10-13T09:01:53Z</time>
      </trkpt>
      <trkpt lat="48.99896" lon="1.85208">
        <ele>115</ele>
        <time>2018-10-13T09:02:02Z</time>
      </trkpt>
      <trkpt lat="48.99892" lon="1.85221">
        <ele>115</ele>
        <time>2018-10-13T09:02:09Z</time>
      </trkpt>
      <trkpt lat="48.99889" lon="1.85236">
        <ele>115</ele>
        <time>2018-10-13T09:02:16Z</time>
      </trkpt>
      <trkpt lat="48.99887" lon="1.8525">
        <ele>115</ele>
        <time>2018-10-13T09:02:24Z</time>
      </trkpt>
      <trkpt lat="48.99884" lon="1.85265">
        <ele>116</ele>
        <time>2018-10-13T09:02:33Z</time>
      </trkpt>
      <trkpt lat="48.9988" lon="1.85279">
        <ele>115</ele>
        <time>2018-10-13T09:02:40Z</time>
      </trkpt>
      <trkpt lat="48.99877" lon="1.85294">
        <ele>115</ele>
        <time>2018-10-13T09:02:49Z</time>
      </trkpt>
      <trkpt lat="48.99875" lon="1.85307">
        <ele>115</ele>
        <time>2018-10-13T09:02:56Z</time>
      </trkpt>
      <trkpt lat="48.99873" lon="1.85321">
        <ele>115</ele>
        <time>2018-10-13T09:03:03Z</time>
      </trkpt>
      <trkpt lat="48.9987" lon="1.85335">
        <ele>115</ele>
        <time>2018-10-13T09:03:10Z</time>
      </trkpt>
      <trkpt lat="48.99868" lon="1.8535">
        <ele>116</ele>
        <time>2018-10-13T09:03:18Z</time>
      </trkpt>
      <trkpt lat="48.99867" lon="1.85363">
        <ele>116</ele>
        <time>2018-10-13T09:03:25Z</time>
      </trkpt>
      <trkpt lat="48.99865" lon="1.85377">
        <ele>116</ele>
        <time>2018-10-13T09:03:31Z</time>
      </trkpt>
      <trkpt lat="48.99864" lon="1.85393">
        <ele>116</ele>
        <time>2018-10-13T09:03:39Z</time>
      </trkpt>
      <trkpt lat="48.99864" lon="1.85407">
        <ele>117</ele>
        <time>2018-10-13T09:05:15Z</time>
      </trkpt>
      <trkpt lat="48.99861" lon="1.85421">
        <ele>118</ele>
        <time>2018-10-13T09:05:23Z</time>
      </trkpt>
      <trkpt lat="48.99859" lon="1.85436">
        <ele>119</ele>
        <time>2018-10-13T09:05:30Z</time>
      </trkpt>
      <trkpt lat="48.99856" lon="1.85449">
        <ele>119</ele>
        <time>2018-10-13T09:05:37Z</time>
      </trkpt>
      <trkpt lat="48.99853" lon="1.85464">
        <ele>120</ele>
        <time>2018-10-13T09:05:45Z</time>
      </trkpt>
      <trkpt lat="48.99852" lon="1.85478">
        <ele>121</ele>
        <time>2018-10-13T09:05:53Z</time>
      </trkpt>
      <trkpt lat="48.99849" lon="1.85492">
        <ele>122</ele>
        <time>2018-10-13T09:06:00Z</time>
      </trkpt>
      <trkpt lat="48.9985" lon="1.85509">
        <ele>122</ele>
        <time>2018-10-13T09:06:07Z</time>
      </trkpt>
      <trkpt lat="48.99848" lon="1.85523">
        <ele>122</ele>
        <time>2018-10-13T09:06:16Z</time>
      </trkpt>
      <trkpt lat="48.99846" lon="1.85538">
        <ele>122</ele>
        <time>2018-10-13T09:06:23Z</time>
      </trkpt>
      <trkpt lat="48.99843" lon="1.85553">
        <ele>122</ele>
        <time>2018-10-13T09:06:30Z</time>
      </trkpt>
      <trkpt lat="48.99841" lon="1.85567">
        <ele>123</ele>
        <time>2018-10-13T09:06:38Z</time>
      </trkpt>
      <trkpt lat="48.99834" lon="1.85578">
        <ele>123</ele>
        <time>2018-10-13T09:06:45Z</time>
      </trkpt>
      <trkpt lat="48.99831" lon="1.85592">
        <ele>124</ele>
        <time>2018-10-13T09:06:53Z</time>
      </trkpt>
      <trkpt lat="48.99825" lon="1.85605">
        <ele>124</ele>
        <time>2018-10-13T09:07:00Z</time>
      </trkpt>
      <trkpt lat="48.99819" lon="1.85616">
        <ele>125</ele>
        <time>2018-10-13T09:07:08Z</time>
      </trkpt>
      <trkpt lat="48.99812" lon="1.85627">
        <ele>126</ele>
        <time>2018-10-13T09:07:18Z</time>
      </trkpt>
      <trkpt lat="48.99805" lon="1.85635">
        <ele>127</ele>
        <time>2018-10-13T09:07:25Z</time>
      </trkpt>
      <trkpt lat="48.99799" lon="1.85647">
        <ele>127</ele>
        <time>2018-10-13T09:07:32Z</time>
      </trkpt>
      <trkpt lat="48.99792" lon="1.85657">
        <ele>128</ele>
        <time>2018-10-13T09:07:37Z</time>
      </trkpt>
      <trkpt lat="48.99784" lon="1.85667">
        <ele>128</ele>
        <time>2018-10-13T09:07:44Z</time>
      </trkpt>
      <trkpt lat="48.99777" lon="1.85676">
        <ele>128</ele>
        <time>2018-10-13T09:07:51Z</time>
      </trkpt>
      <trkpt lat="48.99772" lon="1.8569">
        <ele>128</ele>
        <time>2018-10-13T09:08:01Z</time>
      </trkpt>
      <trkpt lat="48.99764" lon="1.85696">
        <ele>129</ele>
        <time>2018-10-13T09:08:08Z</time>
      </trkpt>
      <trkpt lat="48.99755" lon="1.85702">
        <ele>129</ele>
        <time>2018-10-13T09:08:15Z</time>
      </trkpt>
      <trkpt lat="48.99746" lon="1.8571">
        <ele>129</ele>
        <time>2018-10-13T09:08:22Z</time>
      </trkpt>
      <trkpt lat="48.9974" lon="1.8572">
        <ele>128</ele>
        <time>2018-10-13T09:08:28Z</time>
      </trkpt>
      <trkpt lat="48.9973" lon="1.85716">
        <ele>129</ele>
        <time>2018-10-13T09:08:36Z</time>
      </trkpt>
      <trkpt lat="48.99729" lon="1.857">
        <ele>131</ele>
        <time>2018-10-13T09:08:46Z</time>
      </trkpt>
      <trkpt lat="48.99726" lon="1.85686">
        <ele>131</ele>
        <time>2018-10-13T09:08:52Z</time>
      </trkpt>
      <trkpt lat="48.99724" lon="1.85672">
        <ele>131</ele>
        <time>2018-10-13T09:08:57Z</time>
      </trkpt>
      <trkpt lat="48.99723" lon="1.85658">
        <ele>130</ele>
        <time>2018-10-13T09:09:03Z</time>
      </trkpt>
      <trkpt lat="48.9972" lon="1.85645">
        <ele>129</ele>
        <time>2018-10-13T09:09:09Z</time>
      </trkpt>
      <trkpt lat="48.99719" lon="1.85631">
        <ele>129</ele>
        <time>2018-10-13T09:09:16Z</time>
      </trkpt>
      <trkpt lat="48.99719" lon="1.85616">
        <ele>128</ele>
        <time>2018-10-13T09:09:23Z</time>
      </trkpt>
      <trkpt lat="48.99717" lon="1.85601">
        <ele>128</ele>
        <time>2018-10-13T09:09:31Z</time>
      </trkpt>
      <trkpt lat="48.99716" lon="1.85586">
        <ele>127</ele>
        <time>2018-10-13T09:09:38Z</time>
      </trkpt>
      <trkpt lat="48.99714" lon="1.85571">
        <ele>127</ele>
        <time>2018-10-13T09:09:45Z</time>
      </trkpt>
      <trkpt lat="48.99712" lon="1.85557">
        <ele>126</ele>
        <time>2018-10-13T09:09:54Z</time>
      </trkpt>
      <trkpt lat="48.9971" lon="1.85541">
        <ele>125</ele>
        <time>2018-10-13T09:10:02Z</time>
      </trkpt>
      <trkpt lat="48.99709" lon="1.85526">
        <ele>124</ele>
        <time>2018-10-13T09:10:09Z</time>
      </trkpt>
      <trkpt lat="48.99708" lon="1.8551">
        <ele>123</ele>
        <time>2018-10-13T09:10:17Z</time>
      </trkpt>
      <trkpt lat="48.99709" lon="1.85495">
        <ele>122</ele>
        <time>2018-10-13T09:10:25Z</time>
      </trkpt>
      <trkpt lat="48.99707" lon="1.85482">
        <ele>120</ele>
        <time>2018-10-13T09:10:33Z</time>
      </trkpt>
      <trkpt lat="48.99707" lon="1.85468">
        <ele>119</ele>
        <time>2018-10-13T09:10:41Z</time>
      </trkpt>
      <trkpt lat="48.99707" lon="1.85453">
        <ele>119</ele>
        <time>2018-10-13T09:10:47Z</time>
      </trkpt>
      <trkpt lat="48.99698" lon="1.85446">
        <ele>118</ele>
        <time>2018-10-13T09:10:53Z</time>
      </trkpt>
      <trkpt lat="48.99689" lon="1.85448">
        <ele>117</ele>
        <time>2018-10-13T09:11:01Z</time>
      </trkpt>
      <trkpt lat="48.9968" lon="1.85453">
        <ele>116</ele>
        <time>2018-10-13T09:11:10Z</time>
      </trkpt>
      <trkpt lat="48.99671" lon="1.85458">
        <ele>115</ele>
        <time>2018-10-13T09:11:18Z</time>
      </trkpt>
      <trkpt lat="48.99661" lon="1.85462">
        <ele>115</ele>
        <time>2018-10-13T09:11:25Z</time>
      </trkpt>
      <trkpt lat="48.99653" lon="1.8547">
        <ele>115</ele>
        <time>2018-10-13T09:11:32Z</time>
      </trkpt>
      <trkpt lat="48.99644" lon="1.85476">
        <ele>115</ele>
        <time>2018-10-13T09:11:39Z</time>
      </trkpt>
      <trkpt lat="48.99635" lon="1.85481">
        <ele>116</ele>
        <time>2018-10-13T09:11:45Z</time>
      </trkpt>
      <trkpt lat="48.99627" lon="1.85487">
        <ele>116</ele>
        <time>2018-10-13T09:11:52Z</time>
      </trkpt>
      <trkpt lat="48.99619" lon="1.85494">
        <ele>116</ele>
        <time>2018-10-13T09:11:58Z</time>
      </trkpt>
      <trkpt lat="48.99611" lon="1.85504">
        <ele>116</ele>
        <time>2018-10-13T09:12:05Z</time>
      </trkpt>
      <trkpt lat="48.99604" lon="1.85514">
        <ele>116</ele>
        <time>2018-10-13T09:12:11Z</time>
      </trkpt>
      <trkpt lat="48.99598" lon="1.85526">
        <ele>116</ele>
        <time>2018-10-13T09:12:18Z</time>
      </trkpt>
      <trkpt lat="48.99593" lon="1.85538">
        <ele>115</ele>
        <time>2018-10-13T09:12:25Z</time>
      </trkpt>
      <trkpt lat="48.99589" lon="1.8555">
        <ele>115</ele>
        <time>2018-10-13T09:12:32Z</time>
      </trkpt>
      <trkpt lat="48.99584" lon="1.85564">
        <ele>114</ele>
        <time>2018-10-13T09:12:39Z</time>
      </trkpt>
      <trkpt lat="48.99579" lon="1.85576">
        <ele>114</ele>
        <time>2018-10-13T09:12:46Z</time>
      </trkpt>
      <trkpt lat="48.99576" lon="1.85589">
        <ele>113</ele>
        <time>2018-10-13T09:12:52Z</time>
      </trkpt>
      <trkpt lat="48.99573" lon="1.85603">
        <ele>113</ele>
        <time>2018-10-13T09:12:59Z</time>
      </trkpt>
      <trkpt lat="48.99572" lon="1.85618">
        <ele>114</ele>
        <time>2018-10-13T09:13:06Z</time>
      </trkpt>
      <trkpt lat="48.99571" lon="1.85633">
        <ele>114</ele>
        <time>2018-10-13T09:13:13Z</time>
      </trkpt>
      <trkpt lat="48.9957" lon="1.85647">
        <ele>114</ele>
        <time>2018-10-13T09:13:25Z</time>
      </trkpt>
      <trkpt lat="48.99569" lon="1.85661">
        <ele>114</ele>
        <time>2018-10-13T09:13:33Z</time>
      </trkpt>
      <trkpt lat="48.99565" lon="1.85674">
        <ele>114</ele>
        <time>2018-10-13T09:13:40Z</time>
      </trkpt>
      <trkpt lat="48.99565" lon="1.85689">
        <ele>113</ele>
        <time>2018-10-13T09:13:48Z</time>
      </trkpt>
      <trkpt lat="48.99565" lon="1.85704">
        <ele>113</ele>
        <time>2018-10-13T09:13:56Z</time>
      </trkpt>
      <trkpt lat="48.99566" lon="1.85719">
        <ele>112</ele>
        <time>2018-10-13T09:14:04Z</time>
      </trkpt>
      <trkpt lat="48.99567" lon="1.85733">
        <ele>112</ele>
        <time>2018-10-13T09:14:11Z</time>
      </trkpt>
      <trkpt lat="48.99566" lon="1.85747">
        <ele>112</ele>
        <time>2018-10-13T09:14:18Z</time>
      </trkpt>
      <trkpt lat="48.99565" lon="1.85763">
        <ele>112</ele>
        <time>2018-10-13T09:14:25Z</time>
      </trkpt>
      <trkpt lat="48.99565" lon="1.85778">
        <ele>112</ele>
        <time>2018-10-13T09:14:33Z</time>
      </trkpt>
      <trkpt lat="48.99565" lon="1.85793">
        <ele>112</ele>
        <time>2018-10-13T09:14:41Z</time>
      </trkpt>
      <trkpt lat="48.99567" lon="1.85807">
        <ele>112</ele>
        <time>2018-10-13T09:14:48Z</time>
      </trkpt>
      <trkpt lat="48.99571" lon="1.8582">
        <ele>112</ele>
        <time>2018-10-13T09:14:56Z</time>
      </trkpt>
      <trkpt lat="48.99573" lon="1.85834">
        <ele>112</ele>
        <time>2018-10-13T09:15:03Z</time>
      </trkpt>
      <trkpt lat="48.99575" lon="1.8585">
        <ele>112</ele>
        <time>2018-10-13T09:15:11Z</time>
      </trkpt>
      <trkpt lat="48.99577" lon="1.85865">
        <ele>111</ele>
        <time>2018-10-13T09:15:19Z</time>
      </trkpt>
      <trkpt lat="48.9958" lon="1.85879">
        <ele>111</ele>
        <time>2018-10-13T09:15:26Z</time>
      </trkpt>
      <trkpt lat="48.99581" lon="1.85892">
        <ele>111</ele>
        <time>2018-10-13T09:15:33Z</time>
      </trkpt>
      <trkpt lat="48.99582" lon="1.85908">
        <ele>111</ele>
        <time>2018-10-13T09:15:40Z</time>
      </trkpt>
      <trkpt lat="48.99586" lon="1.85921">
        <ele>111</ele>
        <time>2018-10-13T09:15:47Z</time>
      </trkpt>
      <trkpt lat="48.9959" lon="1.85935">
        <ele>111</ele>
        <time>2018-10-13T09:15:55Z</time>
      </trkpt>
      <trkpt lat="48.99595" lon="1.85948">
        <ele>110</ele>
        <time>2018-10-13T09:16:03Z</time>
      </trkpt>
      <trkpt lat="48.99598" lon="1.85961">
        <ele>110</ele>
        <time>2018-10-13T09:16:11Z</time>
      </trkpt>
      <trkpt lat="48.99604" lon="1.85973">
        <ele>109</ele>
        <time>2018-10-13T09:16:18Z</time>
      </trkpt>
      <trkpt lat="48.99607" lon="1.85988">
        <ele>109</ele>
        <time>2018-10-13T09:16:24Z</time>
      </trkpt>
      <trkpt lat="48.9961" lon="1.86002">
        <ele>109</ele>
        <time>2018-10-13T09:16:31Z</time>
      </trkpt>
      <trkpt lat="48.99612" lon="1.86015">
        <ele>109</ele>
        <time>2018-10-13T09:16:38Z</time>
      </trkpt>
      <trkpt lat="48.99615" lon="1.86028">
        <ele>108</ele>
        <time>2018-10-13T09:16:45Z</time>
      </trkpt>
      <trkpt lat="48.99607" lon="1.86037">
        <ele>107</ele>
        <time>2018-10-13T09:16:54Z</time>
      </trkpt>
      <trkpt lat="48.99597" lon="1.86038">
        <ele>106</ele>
        <time>2018-10-13T09:17:01Z</time>
      </trkpt>
      <trkpt lat="48.99588" lon="1.86041">
        <ele>106</ele>
        <time>2018-10-13T09:17:07Z</time>
      </trkpt>
      <trkpt lat="48.99579" lon="1.86044">
        <ele>106</ele>
        <time>2018-10-13T09:17:15Z</time>
      </trkpt>
      <trkpt lat="48.99569" lon="1.86044">
        <ele>105</ele>
        <time>2018-10-13T09:17:22Z</time>
      </trkpt>
      <trkpt lat="48.99559" lon="1.86044">
        <ele>105</ele>
        <time>2018-10-13T09:17:30Z</time>
      </trkpt>
      <trkpt lat="48.99549" lon="1.86043">
        <ele>104</ele>
        <time>2018-10-13T09:17:36Z</time>
      </trkpt>
      <trkpt lat="48.99539" lon="1.86044">
        <ele>103</ele>
        <time>2018-10-13T09:17:44Z</time>
      </trkpt>
      <trkpt lat="48.99529" lon="1.86042">
        <ele>102</ele>
        <time>2018-10-13T09:17:58Z</time>
      </trkpt>
      <trkpt lat="48.99521" lon="1.86036">
        <ele>100</ele>
        <time>2018-10-13T09:18:10Z</time>
      </trkpt>
      <trkpt lat="48.99513" lon="1.86027">
        <ele>99</ele>
        <time>2018-10-13T09:18:20Z</time>
      </trkpt>
      <trkpt lat="48.99507" lon="1.86016">
        <ele>97</ele>
        <time>2018-10-13T09:18:30Z</time>
      </trkpt>
      <trkpt lat="48.99499" lon="1.86007">
        <ele>96</ele>
        <time>2018-10-13T09:18:40Z</time>
      </trkpt>
      <trkpt lat="48.99491" lon="1.86001">
        <ele>94</ele>
        <time>2018-10-13T09:18:49Z</time>
      </trkpt>
      <trkpt lat="48.99482" lon="1.85997">
        <ele>92</ele>
        <time>2018-10-13T09:18:59Z</time>
      </trkpt>
      <trkpt lat="48.99472" lon="1.85995">
        <ele>89</ele>
        <time>2018-10-13T09:19:09Z</time>
      </trkpt>
      <trkpt lat="48.99462" lon="1.85992">
        <ele>87</ele>
        <time>2018-10-13T09:19:15Z</time>
      </trkpt>
      <trkpt lat="48.99452" lon="1.85988">
        <ele>86</ele>
        <time>2018-10-13T09:19:23Z</time>
      </trkpt>
      <trkpt lat="48.99443" lon="1.85982">
        <ele>84</ele>
        <time>2018-10-13T09:19:31Z</time>
      </trkpt>
      <trkpt lat="48.99434" lon="1.85981">
        <ele>82</ele>
        <time>2018-10-13T09:19:39Z</time>
      </trkpt>
      <trkpt lat="48.99423" lon="1.8598">
        <ele>81</ele>
        <time>2018-10-13T09:19:46Z</time>
      </trkpt>
      <trkpt lat="48.99414" lon="1.85981">
        <ele>80</ele>
        <time>2018-10-13T09:19:54Z</time>
      </trkpt>
      <trkpt lat="48.99404" lon="1.85981">
        <ele>78</ele>
        <time>2018-10-13T09:20:03Z</time>
      </trkpt>
      <trkpt lat="48.99395" lon="1.85984">
        <ele>77</ele>
        <time>2018-10-13T09:20:11Z</time>
      </trkpt>
      <trkpt lat="48.99386" lon="1.85989">
        <ele>72</ele>
        <time>2018-10-13T09:21:26Z</time>
      </trkpt>
      <trkpt lat="48.99376" lon="1.85988">
        <ele>70</ele>
        <time>2018-10-13T09:21:34Z</time>
      </trkpt>
      <trkpt lat="48.99366" lon="1.8599">
        <ele>69</ele>
        <time>2018-10-13T09:21:41Z</time>
      </trkpt>
      <trkpt lat="48.99356" lon="1.8599">
        <ele>68</ele>
        <time>2018-10-13T09:21:50Z</time>
      </trkpt>
      <trkpt lat="48.99347" lon="1.85991">
        <ele>67</ele>
        <time>2018-10-13T09:21:59Z</time>
      </trkpt>
      <trkpt lat="48.99337" lon="1.8599">
        <ele>65</ele>
        <time>2018-10-13T09:22:10Z</time>
      </trkpt>
      <trkpt lat="48.99328" lon="1.85991">
        <ele>63</ele>
        <time>2018-10-13T09:22:21Z</time>
      </trkpt>
      <trkpt lat="48.99318" lon="1.85993">
        <ele>60</ele>
        <time>2018-10-13T09:22:31Z</time>
      </trkpt>
      <trkpt lat="48.99308" lon="1.85991">
        <ele>57</ele>
        <time>2018-10-13T09:22:40Z</time>
      </trkpt>
      <trkpt lat="48.99299" lon="1.8599">
        <ele>55</ele>
        <time>2018-10-13T09:22:47Z</time>
      </trkpt>
      <trkpt lat="48.9929" lon="1.85985">
        <ele>52</ele>
        <time>2018-10-13T09:23:04Z</time>
      </trkpt>
      <trkpt lat="48.9928" lon="1.85986">
        <ele>47</ele>
        <time>2018-10-13T09:23:21Z</time>
      </trkpt>
      <trkpt lat="48.99271" lon="1.8599">
        <ele>44</ele>
        <time>2018-10-13T09:23:30Z</time>
      </trkpt>
      <trkpt lat="48.99262" lon="1.85989">
        <ele>41</ele>
        <time>2018-10-13T09:23:37Z</time>
      </trkpt>
      <trkpt lat="48.99252" lon="1.85989">
        <ele>40</ele>
        <time>2018-10-13T09:23:43Z</time>
      </trkpt>
      <trkpt lat="48.99243" lon="1.85992">
        <ele>38</ele>
        <time>2018-10-13T09:23:50Z</time>
      </trkpt>
      <trkpt lat="48.99234" lon="1.85998">
        <ele>35</ele>
        <time>2018-10-13T09:23:59Z</time>
      </trkpt>
      <trkpt lat="48.99224" lon="1.85998">
        <ele>34</ele>
        <time>2018-10-13T09:24:07Z</time>
      </trkpt>
      <trkpt lat="48.99219" lon="1.85985">
        <ele>32</ele>
        <time>2018-10-13T09:24:17Z</time>
      </trkpt>
      <trkpt lat="48.99218" lon="1.8597">
        <ele>31</ele>
        <time>2018-10-13T09:24:25Z</time>
      </trkpt>
      <trkpt lat="48.99214" lon="1.85955">
        <ele>29</ele>
        <time>2018-10-13T09:24:32Z</time>
      </trkpt>
      <trkpt lat="48.99211" lon="1.85942">
        <ele>28</ele>
        <time>2018-10-13T09:24:40Z</time>
      </trkpt>
      <trkpt lat="48.99207" lon="1.85929">
        <ele>27</ele>
        <time>2018-10-13T09:24:47Z</time>
      </trkpt>
      <trkpt lat="48.99203" lon="1.85917">
        <ele>26</ele>
        <time>2018-10-13T09:24:54Z</time>
      </trkpt>
      <trkpt lat="48.99202" lon="1.85903">
        <ele>25</ele>
        <time>2018-10-13T09:25:02Z</time>
      </trkpt>
      <trkpt lat="48.99198" lon="1.85889">
        <ele>24</ele>
        <time>2018-10-13T09:25:10Z</time>
      </trkpt>
      <trkpt lat="48.99193" lon="1.85875">
        <ele>24</ele>
        <time>2018-10-13T09:25:17Z</time>
      </trkpt>
      <trkpt lat="48.99188" lon="1.85863">
        <ele>24</ele>
        <time>2018-10-13T09:25:22Z</time>
      </trkpt>
      <trkpt lat="48.99185" lon="1.85849">
        <ele>23</ele>
        <time>2018-10-13T09:25:29Z</time>
      </trkpt>
      <trkpt lat="48.99181" lon="1.85835">
        <ele>23</ele>
        <time>2018-10-13T09:25:36Z</time>
      </trkpt>
      <trkpt lat="48.99178" lon="1.8582">
        <ele>23</ele>
        <time>2018-10-13T09:25:43Z</time>
      </trkpt>
      <trkpt lat="48.99174" lon="1.85806">
        <ele>22</ele>
        <time>2018-10-13T09:25:50Z</time>
      </trkpt>
      <trkpt lat="48.9917" lon="1.85792">
        <ele>22</ele>
        <time>2018-10-13T09:25:57Z</time>
      </trkpt>
      <trkpt lat="48.99166" lon="1.85778">
        <ele>22</ele>
        <time>2018-10-13T09:26:04Z</time>
      </trkpt>
      <trkpt lat="48.9916" lon="1.85766">
        <ele>21</ele>
        <time>2018-10-13T09:26:11Z</time>
      </trkpt>
      <trkpt lat="48.99151" lon="1.85762">
        <ele>20</ele>
        <time>2018-10-13T09:26:39Z</time>
      </trkpt>
      <trkpt lat="48.99145" lon="1.85772">
        <ele>21</ele>
        <time>2018-10-13T09:27:01Z</time>
      </trkpt>
      <trkpt lat="48.99139" lon="1.85783">
        <ele>20</ele>
        <time>2018-10-13T09:27:11Z</time>
      </trkpt>
      <trkpt lat="48.99129" lon="1.85787">
        <ele>19</ele>
        <time>2018-10-13T09:27:19Z</time>
      </trkpt>
      <trkpt lat="48.9912" lon="1.85793">
        <ele>19</ele>
        <time>2018-10-13T09:27:24Z</time>
      </trkpt>
      <trkpt lat="48.99111" lon="1.85798">
        <ele>19</ele>
        <time>2018-10-13T09:27:32Z</time>
      </trkpt>
      <trkpt lat="48.99103" lon="1.85806">
        <ele>19</ele>
        <time>2018-10-13T09:27:40Z</time>
      </trkpt>
      <trkpt lat="48.99097" lon="1.85817">
        <ele>18</ele>
        <time>2018-10-13T09:27:51Z</time>
      </trkpt>
      <trkpt lat="48.99099" lon="1.85832">
        <ele>18</ele>
        <time>2018-10-13T09:27:59Z</time>
      </trkpt>
      <trkpt lat="48.99099" lon="1.85848">
        <ele>17</ele>
        <time>2018-10-13T09:28:05Z</time>
      </trkpt>
      <trkpt lat="48.99101" lon="1.85863">
        <ele>16</ele>
        <time>2018-10-13T09:28:12Z</time>
      </trkpt>
      <trkpt lat="48.99103" lon="1.85877">
        <ele>15</ele>
        <time>2018-10-13T09:28:20Z</time>
      </trkpt>
      <trkpt lat="48.99107" lon="1.8589">
        <ele>14</ele>
        <time>2018-10-13T09:28:27Z</time>
      </trkpt>
      <trkpt lat="48.99112" lon="1.85904">
        <ele>13</ele>
        <time>2018-10-13T09:28:34Z</time>
      </trkpt>
      <trkpt lat="48.99118" lon="1.85916">
        <ele>11</ele>
        <time>2018-10-13T09:28:41Z</time>
      </trkpt>
      <trkpt lat="48.99121" lon="1.85929">
        <ele>10</ele>
        <time>2018-10-13T09:28:48Z</time>
      </trkpt>
      <trkpt lat="48.99125" lon="1.85944">
        <ele>9</ele>
        <time>2018-10-13T09:28:55Z</time>
      </trkpt>
      <trkpt lat="48.99129" lon="1.85957">
        <ele>9</ele>
        <time>2018-10-13T09:29:04Z</time>
      </trkpt>
      <trkpt lat="48.99133" lon="1.85969">
        <ele>9</ele>
        <time>2018-10-13T09:29:13Z</time>
      </trkpt>
      <trkpt lat="48.99136" lon="1.85983">
        <ele>9</ele>
        <time>2018-10-13T09:29:20Z</time>
      </trkpt>
      <trkpt lat="48.99139" lon="1.85996">
        <ele>10</ele>
        <time>2018-10-13T09:29:26Z</time>
      </trkpt>
      <trkpt lat="48.99143" lon="1.86009">
        <ele>10</ele>
        <time>2018-10-13T09:29:32Z</time>
      </trkpt>
      <trkpt lat="48.99148" lon="1.86021">
        <ele>11</ele>
        <time>2018-10-13T09:29:39Z</time>
      </trkpt>
      <trkpt lat="48.99151" lon="1.86034">
        <ele>11</ele>
        <time>2018-10-13T09:29:47Z</time>
      </trkpt>
      <trkpt lat="48.99158" lon="1.86046">
        <ele>12</ele>
        <time>2018-10-13T09:29:55Z</time>
      </trkpt>
      <trkpt lat="48.99162" lon="1.8606">
        <ele>12</ele>
        <time>2018-10-13T09:30:02Z</time>
      </trkpt>
      <trkpt lat="48.99165" lon="1.86075">
        <ele>13</ele>
        <time>2018-10-13T09:30:10Z</time>
      </trkpt>
      <trkpt lat="48.99169" lon="1.86088">
        <ele>13</ele>
        <time>2018-10-13T09:30:16Z</time>
      </trkpt>
      <trkpt lat="48.99172" lon="1.86101">
        <ele>14</ele>
        <time>2018-10-13T09:30:23Z</time>
      </trkpt>
      <trkpt lat="48.99176" lon="1.86114">
        <ele>14</ele>
        <time>2018-10-13T09:30:31Z</time>
      </trkpt>
      <trkpt lat="48.99184" lon="1.86123">
        <ele>13</ele>
        <time>2018-10-13T09:30:37Z</time>
      </trkpt>
      <trkpt lat="48.99189" lon="1.86134">
        <ele>13</ele>
        <time>2018-10-13T09:30:44Z</time>
      </trkpt>
      <trkpt lat="48.99193" lon="1.86148">
        <ele>13</ele>
        <time>2018-10-13T09:30:51Z</time>
      </trkpt>
      <trkpt lat="48.99197" lon="1.86161">
        <ele>12</ele>
        <time>2018-10-13T09:31:01Z</time>
      </trkpt>
      <trkpt lat="48.99199" lon="1.86174">
        <ele>12</ele>
        <time>2018-10-13T09:31:09Z</time>
      </trkpt>
      <trkpt lat="48.99202" lon="1.86188">
        <ele>12</ele>
        <time>2018-10-13T09:31:23Z</time>
      </trkpt>
      <trkpt lat="48.99207" lon="1.862">
        <ele>12</ele>
        <time>2018-10-13T09:31:35Z</time>
      </trkpt>
      <trkpt lat="48.99212" lon="1.86213">
        <ele>11</ele>
        <time>2018-10-13T09:31:44Z</time>
      </trkpt>
      <trkpt lat="48.99216" lon="1.86228">
        <ele>11</ele>
        <time>2018-10-13T09:31:51Z</time>
      </trkpt>
      <trkpt lat="48.99221" lon="1.86241">
        <ele>10</ele>
        <time>2018-10-13T09:31:57Z</time>
      </trkpt>
      <trkpt lat="48.99225" lon="1.86254">
        <ele>9</ele>
        <time>2018-10-13T09:32:05Z</time>
      </trkpt>
      <trkpt lat="48.99229" lon="1.86268">
        <ele>9</ele>
        <time>2018-10-13T09:32:11Z</time>
      </trkpt>
      <trkpt lat="48.99234" lon="1.86279">
        <ele>8</ele>
        <time>2018-10-13T09:32:18Z</time>
      </trkpt>
      <trkpt lat="48.99239" lon="1.86291">
        <ele>8</ele>
        <time>2018-10-13T09:32:26Z</time>
      </trkpt>
      <trkpt lat="48.9924" lon="1.86305">
        <ele>9</ele>
        <time>2018-10-13T09:32:33Z</time>
      </trkpt>
      <trkpt lat="48.99244" lon="1.8632">
        <ele>9</ele>
        <time>2018-10-13T09:32:40Z</time>
      </trkpt>
      <trkpt lat="48.99248" lon="1.86332">
        <ele>10</ele>
        <time>2018-10-13T09:32:46Z</time>
      </trkpt>
      <trkpt lat="48.99253" lon="1.86344">
        <ele>10</ele>
        <time>2018-10-13T09:32:52Z</time>
      </trkpt>
      <trkpt lat="48.99258" lon="1.86356">
        <ele>11</ele>
        <time>2018-10-13T09:33:00Z</time>
      </trkpt>
      <trkpt lat="48.99264" lon="1.86367">
        <ele>11</ele>
        <time>2018-10-13T09:33:08Z</time>
      </trkpt>
      <trkpt lat="48.99268" lon="1.86381">
        <ele>11</ele>
        <time>2018-10-13T09:33:15Z</time>
      </trkpt>
      <trkpt lat="48.99272" lon="1.86394">
        <ele>12</ele>
        <time>2018-10-13T09:33:21Z</time>
      </trkpt>
      <trkpt lat="48.99276" lon="1.86407">
        <ele>12</ele>
        <time>2018-10-13T09:33:29Z</time>
      </trkpt>
      <trkpt lat="48.99281" lon="1.8642">
        <ele>11</ele>
        <time>2018-10-13T09:33:36Z</time>
      </trkpt>
      <trkpt lat="48.99285" lon="1.86434">
        <ele>11</ele>
        <time>2018-10-13T09:33:42Z</time>
      </trkpt>
      <trkpt lat="48.99288" lon="1.86447">
        <ele>11</ele>
        <time>2018-10-13T09:33:48Z</time>
      </trkpt>
      <trkpt lat="48.99292" lon="1.8646">
        <ele>11</ele>
        <time>2018-10-13T09:33:55Z</time>
      </trkpt>
      <trkpt lat="48.99295" lon="1.86474">
        <ele>11</ele>
        <time>2018-10-13T09:34:02Z</time>
      </trkpt>
      <trkpt lat="48.99298" lon="1.86487">
        <ele>11</ele>
        <time>2018-10-13T09:34:09Z</time>
      </trkpt>
      <trkpt lat="48.99303" lon="1.865">
        <ele>11</ele>
        <time>2018-10-13T09:34:18Z</time>
      </trkpt>
      <trkpt lat="48.99306" lon="1.86514">
        <ele>11</ele>
        <time>2018-10-13T09:34:24Z</time>
      </trkpt>
      <trkpt lat="48.9931" lon="1.86527">
        <ele>12</ele>
        <time>2018-10-13T09:34:33Z</time>
      </trkpt>
      <trkpt lat="48.99313" lon="1.86541">
        <ele>12</ele>
        <time>2018-10-13T09:34:40Z</time>
      </trkpt>
      <trkpt lat="48.99317" lon="1.86555">
        <ele>11</ele>
        <time>2018-10-13T09:34:52Z</time>
      </trkpt>
      <trkpt lat="48.99322" lon="1.86567">
        <ele>11</ele>
        <time>2018-10-13T09:34:59Z</time>
      </trkpt>
      <trkpt lat="48.99326" lon="1.8658">
        <ele>10</ele>
        <time>2018-10-13T09:35:07Z</time>
      </trkpt>
      <trkpt lat="48.99328" lon="1.86594">
        <ele>10</ele>
        <time>2018-10-13T09:35:12Z</time>
      </trkpt>
      <trkpt lat="48.99332" lon="1.86607">
        <ele>9</ele>
        <time>2018-10-13T09:35:22Z</time>
      </trkpt>
      <trkpt lat="48.99336" lon="1.8662">
        <ele>9</ele>
        <time>2018-10-13T09:35:28Z</time>
      </trkpt>
      <trkpt lat="48.99339" lon="1.86634">
        <ele>9</ele>
        <time>2018-10-13T09:35:36Z</time>
      </trkpt>
      <trkpt lat="48.99342" lon="1.86651">
        <ele>9</ele>
        <time>2018-10-13T09:35:42Z</time>
      </trkpt>
      <trkpt lat="48.99344" lon="1.86665">
        <ele>10</ele>
        <time>2018-10-13T09:35:49Z</time>
      </trkpt>
      <trkpt lat="48.99348" lon="1.8668">
        <ele>12</ele>
        <time>2018-10-13T09:35:58Z</time>
      </trkpt>
      <trkpt lat="48.99352" lon="1.86693">
        <ele>12</ele>
        <time>2018-10-13T09:36:05Z</time>
      </trkpt>
      <trkpt lat="48.99355" lon="1.86708">
        <ele>12</ele>
        <time>2018-10-13T09:36:11Z</time>
      </trkpt>
      <trkpt lat="48.99356" lon="1.86723">
        <ele>13</ele>
        <time>2018-10-13T09:36:19Z</time>
      </trkpt>
      <trkpt lat="48.99359" lon="1.86739">
        <ele>12</ele>
        <time>2018-10-13T09:36:26Z</time>
      </trkpt>
      <trkpt lat="48.99362" lon="1.86754">
        <ele>12</ele>
        <time>2018-10-13T09:36:32Z</time>
      </trkpt>
      <trkpt lat="48.99364" lon="1.86768">
        <ele>12</ele>
        <time>2018-10-13T09:36:39Z</time>
      </trkpt>
      <trkpt lat="48.99367" lon="1.86781">
        <ele>12</ele>
        <time>2018-10-13T09:36:46Z</time>
      </trkpt>
      <trkpt lat="48.99367" lon="1.86796">
        <ele>11</ele>
        <time>2018-10-13T09:36:52Z</time>
      </trkpt>
      <trkpt lat="48.9937" lon="1.8681">
        <ele>11</ele>
        <time>2018-10-13T09:36:59Z</time>
      </trkpt>
      <trkpt lat="48.99373" lon="1.86824">
        <ele>11</ele>
        <time>2018-10-13T09:37:08Z</time>
      </trkpt>
      <trkpt lat="48.99376" lon="1.86837">
        <ele>11</ele>
        <time>2018-10-13T09:37:16Z</time>
      </trkpt>
      <trkpt lat="48.99379" lon="1.86851">
        <ele>10</ele>
        <time>2018-10-13T09:37:22Z</time>
      </trkpt>
      <trkpt lat="48.99383" lon="1.86863">
        <ele>10</ele>
        <time>2018-10-13T09:37:30Z</time>
      </trkpt>
      <trkpt lat="48.99385" lon="1.86879">
        <ele>10</ele>
        <time>2018-10-13T09:37:36Z</time>
      </trkpt>
      <trkpt lat="48.99387" lon="1.86894">
        <ele>10</ele>
        <time>2018-10-13T09:37:43Z</time>
      </trkpt>
      <trkpt lat="48.99387" lon="1.86908">
        <ele>11</ele>
        <time>2018-10-13T09:37:49Z</time>
      </trkpt>
      <trkpt lat="48.9939" lon="1.86923">
        <ele>11</ele>
        <time>2018-10-13T09:37:55Z</time>
      </trkpt>
      <trkpt lat="48.99394" lon="1.86936">
        <ele>12</ele>
        <time>2018-10-13T09:38:01Z</time>
      </trkpt>
      <trkpt lat="48.99394" lon="1.8695">
        <ele>12</ele>
        <time>2018-10-13T09:38:09Z</time>
      </trkpt>
      <trkpt lat="48.99396" lon="1.86965">
        <ele>12</ele>
        <time>2018-10-13T09:38:17Z</time>
      </trkpt>
      <trkpt lat="48.99397" lon="1.8698">
        <ele>12</ele>
        <time>2018-10-13T09:38:25Z</time>
      </trkpt>
      <trkpt lat="48.99397" lon="1.86995">
        <ele>12</ele>
        <time>2018-10-13T09:38:32Z</time>
      </trkpt>
      <trkpt lat="48.99399" lon="1.8701">
        <ele>12</ele>
        <time>2018-10-13T09:38:40Z</time>
      </trkpt>
      <trkpt lat="48.994" lon="1.87026">
        <ele>12</ele>
        <time>2018-10-13T09:38:46Z</time>
      </trkpt>
      <trkpt lat="48.99404" lon="1.87039">
        <ele>12</ele>
        <time>2018-10-13T09:38:52Z</time>
      </trkpt>
      <trkpt lat="48.99406" lon="1.87053">
        <ele>12</ele>
        <time>2018-10-13T09:38:59Z</time>
      </trkpt>
      <trkpt lat="48.99407" lon="1.87067">
        <ele>12</ele>
        <time>2018-10-13T09:39:07Z</time>
      </trkpt>
      <trkpt lat="48.99408" lon="1.87082">
        <ele>12</ele>
        <time>2018-10-13T09:39:13Z</time>
      </trkpt>
      <trkpt lat="48.9941" lon="1.87097">
        <ele>12</ele>
        <time>2018-10-13T09:39:20Z</time>
      </trkpt>
      <trkpt lat="48.99414" lon="1.87111">
        <ele>12</ele>
        <time>2018-10-13T09:39:27Z</time>
      </trkpt>
      <trkpt lat="48.99416" lon="1.87125">
        <ele>13</ele>
        <time>2018-10-13T09:39:36Z</time>
      </trkpt>
      <trkpt lat="48.99419" lon="1.87139">
        <ele>13</ele>
        <time>2018-10-13T09:39:45Z</time>
      </trkpt>
      <trkpt lat="48.99423" lon="1.87152">
        <ele>13</ele>
        <time>2018-10-13T09:39:53Z</time>
      </trkpt>
      <trkpt lat="48.99428" lon="1.87164">
        <ele>13</ele>
        <time>2018-10-13T09:40:00Z</time>
      </trkpt>
      <trkpt lat="48.9943" lon="1.87179">
        <ele>12</ele>
        <time>2018-10-13T09:40:07Z</time>
      </trkpt>
      <trkpt lat="48.99433" lon="1.87192">
        <ele>12</ele>
        <time>2018-10-13T09:40:14Z</time>
      </trkpt>
      <trkpt lat="48.99437" lon="1.87206">
        <ele>12</ele>
        <time>2018-10-13T09:40:20Z</time>
      </trkpt>
      <trkpt lat="48.99439" lon="1.87219">
        <ele>12</ele>
        <time>2018-10-13T09:40:28Z</time>
      </trkpt>
      <trkpt lat="48.99442" lon="1.87234">
        <ele>12</ele>
        <time>2018-10-13T09:40:35Z</time>
      </trkpt>
      <trkpt lat="48.99446" lon="1.87249">
        <ele>11</ele>
        <time>2018-10-13T09:40:42Z</time>
      </trkpt>
      <trkpt lat="48.9945" lon="1.87262">
        <ele>11</ele>
        <time>2018-10-13T09:40:49Z</time>
      </trkpt>
      <trkpt lat="48.99452" lon="1.87276">
        <ele>11</ele>
        <time>2018-10-13T09:40:56Z</time>
      </trkpt>
      <trkpt lat="48.99454" lon="1.8729">
        <ele>11</ele>
        <time>2018-10-13T09:41:04Z</time>
      </trkpt>
      <trkpt lat="48.99457" lon="1.87305">
        <ele>12</ele>
        <time>2018-10-13T09:41:12Z</time>
      </trkpt>
      <trkpt lat="48.99461" lon="1.87318">
        <ele>12</ele>
        <time>2018-10-13T09:41:18Z</time>
      </trkpt>
      <trkpt lat="48.99462" lon="1.87332">
        <ele>12</ele>
        <time>2018-10-13T09:41:24Z</time>
      </trkpt>
      <trkpt lat="48.99465" lon="1.87346">
        <ele>12</ele>
        <time>2018-10-13T09:41:31Z</time>
      </trkpt>
      <trkpt lat="48.99469" lon="1.8736">
        <ele>13</ele>
        <time>2018-10-13T09:41:39Z</time>
      </trkpt>
      <trkpt lat="48.9947" lon="1.87374">
        <ele>13</ele>
        <time>2018-10-13T09:41:47Z</time>
      </trkpt>
      <trkpt lat="48.99473" lon="1.87388">
        <ele>13</ele>
        <time>2018-10-13T09:41:57Z</time>
      </trkpt>
      <trkpt lat="48.99476" lon="1.87404">
        <ele>13</ele>
        <time>2018-10-13T09:42:04Z</time>
      </trkpt>
      <trkpt lat="48.99479" lon="1.87417">
        <ele>13</ele>
        <time>2018-10-13T09:42:11Z</time>
      </trkpt>
      <trkpt lat="48.99483" lon="1.8743">
        <ele>13</ele>
        <time>2018-10-13T09:42:17Z</time>
      </trkpt>
      <trkpt lat="48.99489" lon="1.87443">
        <ele>13</ele>
        <time>2018-10-13T09:42:25Z</time>
      </trkpt>
      <trkpt lat="48.99494" lon="1.87455">
        <ele>13</ele>
        <time>2018-10-13T09:42:36Z</time>
      </trkpt>
      <trkpt lat="48.99498" lon="1.87468">
        <ele>12</ele>
        <time>2018-10-13T09:42:42Z</time>
      </trkpt>
      <trkpt lat="48.99503" lon="1.8748">
        <ele>11</ele>
        <time>2018-10-13T09:42:49Z</time>
      </trkpt>
      <trkpt lat="48.9951" lon="1.8749">
        <ele>11</ele>
        <time>2018-10-13T09:42:56Z</time>
      </trkpt>
      <trkpt lat="48.99512" lon="1.87505">
        <ele>10</ele>
        <time>2018-10-13T09:43:04Z</time>
      </trkpt>
      <trkpt lat="48.99516" lon="1.87518">
        <ele>9</ele>
        <time>2018-10-13T09:43:11Z</time>
      </trkpt>
      <trkpt lat="48.99523" lon="1.8753">
        <ele>9</ele>
        <time>2018-10-13T09:43:19Z</time>
      </trkpt>
      <trkpt lat="48.9953" lon="1.87541">
        <ele>9</ele>
        <time>2018-10-13T09:43:27Z</time>
      </trkpt>
      <trkpt lat="48.99535" lon="1.87554">
        <ele>9</ele>
        <time>2018-10-13T09:43:36Z</time>
      </trkpt>
      <trkpt lat="48.99541" lon="1.87565">
        <ele>9</ele>
        <time>2018-10-13T09:43:44Z</time>
      </trkpt>
      <trkpt lat="48.99547" lon="1.87575">
        <ele>9</ele>
        <time>2018-10-13T09:43:52Z</time>
      </trkpt>
      <trkpt lat="48.99554" lon="1.87586">
        <ele>9</ele>
        <time>2018-10-13T09:43:59Z</time>
      </trkpt>
      <trkpt lat="48.99561" lon="1.87594">
        <ele>9</ele>
        <time>2018-10-13T09:44:06Z</time>
      </trkpt>
      <trkpt lat="48.99567" lon="1.87606">
        <ele>10</ele>
        <time>2018-10-13T09:44:13Z</time>
      </trkpt>
      <trkpt lat="48.9957" lon="1.8762">
        <ele>10</ele>
        <time>2018-10-13T09:44:19Z</time>
      </trkpt>
      <trkpt lat="48.99576" lon="1.87632">
        <ele>11</ele>
        <time>2018-10-13T09:44:26Z</time>
      </trkpt>
      <trkpt lat="48.99583" lon="1.87641">
        <ele>12</ele>
        <time>2018-10-13T09:44:36Z</time>
      </trkpt>
      <trkpt lat="48.9959" lon="1.87651">
        <ele>11</ele>
        <time>2018-10-13T09:44:46Z</time>
      </trkpt>
      <trkpt lat="48.99595" lon="1.87664">
        <ele>10</ele>
        <time>2018-10-13T09:44:52Z</time>
      </trkpt>
      <trkpt lat="48.99601" lon="1.87677">
        <ele>9</ele>
        <time>2018-10-13T09:45:00Z</time>
      </trkpt>
      <trkpt lat="48.99607" lon="1.87688">
        <ele>9</ele>
        <time>2018-10-13T09:45:07Z</time>
      </trkpt>
      <trkpt lat="48.99611" lon="1.87701">
        <ele>9</ele>
        <time>2018-10-13T09:45:15Z</time>
      </trkpt>
      <trkpt lat="48.99617" lon="1.87714">
        <ele>9</ele>
        <time>2018-10-13T09:45:20Z</time>
      </trkpt>
      <trkpt lat="48.99622" lon="1.87727">
        <ele>10</ele>
        <time>2018-10-13T09:45:28Z</time>
      </trkpt>
      <trkpt lat="48.99626" lon="1.87739">
        <ele>10</ele>
        <time>2018-10-13T09:45:35Z</time>
      </trkpt>
      <trkpt lat="48.99631" lon="1.87752">
        <ele>10</ele>
        <time>2018-10-13T09:45:42Z</time>
      </trkpt>
      <trkpt lat="48.99637" lon="1.87762">
        <ele>10</ele>
        <time>2018-10-13T09:45:50Z</time>
      </trkpt>
      <trkpt lat="48.99643" lon="1.87774">
        <ele>10</ele>
        <time>2018-10-13T09:45:57Z</time>
      </trkpt>
      <trkpt lat="48.99646" lon="1.87787">
        <ele>9</ele>
        <time>2018-10-13T09:46:04Z</time>
      </trkpt>
      <trkpt lat="48.9965" lon="1.878">
        <ele>9</ele>
        <time>2018-10-13T09:46:12Z</time>
      </trkpt>
      <trkpt lat="48.99654" lon="1.87814">
        <ele>10</ele>
        <time>2018-10-13T09:46:17Z</time>
      </trkpt>
      <trkpt lat="48.99658" lon="1.87827">
        <ele>10</ele>
        <time>2018-10-13T09:46:24Z</time>
      </trkpt>
      <trkpt lat="48.99661" lon="1.8784">
        <ele>10</ele>
        <time>2018-10-13T09:46:31Z</time>
      </trkpt>
      <trkpt lat="48.99666" lon="1.87852">
        <ele>10</ele>
        <time>2018-10-13T09:46:37Z</time>
      </trkpt>
      <trkpt lat="48.99667" lon="1.87867">
        <ele>10</ele>
        <time>2018-10-13T09:46:45Z</time>
      </trkpt>
      <trkpt lat="48.9967" lon="1.87882">
        <ele>10</ele>
        <time>2018-10-13T09:46:54Z</time>
      </trkpt>
      <trkpt lat="48.99675" lon="1.87894">
        <ele>10</ele>
        <time>2018-10-13T09:47:00Z</time>
      </trkpt>
      <trkpt lat="48.99678" lon="1.87908">
        <ele>10</ele>
        <time>2018-10-13T09:47:07Z</time>
      </trkpt>
      <trkpt lat="48.9968" lon="1.87923">
        <ele>10</ele>
        <time>2018-10-13T09:47:15Z</time>
      </trkpt>
      <trkpt lat="48.99682" lon="1.87938">
        <ele>10</ele>
        <time>2018-10-13T09:47:23Z</time>
      </trkpt>
      <trkpt lat="48.99683" lon="1.87954">
        <ele>10</ele>
        <time>2018-10-13T09:47:29Z</time>
      </trkpt>
      <trkpt lat="48.99685" lon="1.87968">
        <ele>11</ele>
        <time>2018-10-13T09:47:35Z</time>
      </trkpt>
      <trkpt lat="48.99689" lon="1.87982">
        <ele>12</ele>
        <time>2018-10-13T09:47:42Z</time>
      </trkpt>
      <trkpt lat="48.99692" lon="1.87995">
        <ele>12</ele>
        <time>2018-10-13T09:47:48Z</time>
      </trkpt>
      <trkpt lat="48.99694" lon="1.88009">
        <ele>13</ele>
        <time>2018-10-13T09:47:54Z</time>
      </trkpt>
      <trkpt lat="48.99696" lon="1.88024">
        <ele>13</ele>
        <time>2018-10-13T09:48:02Z</time>
      </trkpt>
      <trkpt lat="48.99696" lon="1.88039">
        <ele>13</ele>
        <time>2018-10-13T09:48:09Z</time>
      </trkpt>
      <trkpt lat="48.99697" lon="1.88053">
        <ele>13</ele>
        <time>2018-10-13T09:48:17Z</time>
      </trkpt>
      <trkpt lat="48.99698" lon="1.88068">
        <ele>13</ele>
        <time>2018-10-13T09:48:24Z</time>
      </trkpt>
      <trkpt lat="48.99701" lon="1.88082">
        <ele>13</ele>
        <time>2018-10-13T09:48:32Z</time>
      </trkpt>
      <trkpt lat="48.99704" lon="1.88095">
        <ele>13</ele>
        <time>2018-10-13T09:48:37Z</time>
      </trkpt>
      <trkpt lat="48.99707" lon="1.8811">
        <ele>13</ele>
        <time>2018-10-13T09:48:43Z</time>
      </trkpt>
      <trkpt lat="48.99709" lon="1.88124">
        <ele>12</ele>
        <time>2018-10-13T09:48:50Z</time>
      </trkpt>
      <trkpt lat="48.9971" lon="1.88137">
        <ele>12</ele>
        <time>2018-10-13T09:48:58Z</time>
      </trkpt>
      <trkpt lat="48.99711" lon="1.88151">
        <ele>12</ele>
        <time>2018-10-13T09:49:05Z</time>
      </trkpt>
      <trkpt lat="48.99716" lon="1.88164">
        <ele>11</ele>
        <time>2018-10-13T09:49:16Z</time>
      </trkpt>
      <trkpt lat="48.99719" lon="1.88178">
        <ele>11</ele>
        <time>2018-10-13T09:49:22Z</time>
      </trkpt>
      <trkpt lat="48.99722" lon="1.88191">
        <ele>10</ele>
        <time>2018-10-13T09:49:29Z</time>
      </trkpt>
      <trkpt lat="48.99727" lon="1.88205">
        <ele>10</ele>
        <time>2018-10-13T09:49:37Z</time>
      </trkpt>
      <trkpt lat="48.99729" lon="1.88219">
        <ele>10</ele>
        <time>2018-10-13T09:49:44Z</time>
      </trkpt>
      <trkpt lat="48.99731" lon="1.88234">
        <ele>10</ele>
        <time>2018-10-13T09:49:52Z</time>
      </trkpt>
      <trkpt lat="48.99735" lon="1.88248">
        <ele>10</ele>
        <time>2018-10-13T09:50:01Z</time>
      </trkpt>
      <trkpt lat="48.99741" lon="1.8826">
        <ele>9</ele>
        <time>2018-10-13T09:50:09Z</time>
      </trkpt>
      <trkpt lat="48.99744" lon="1.88275">
        <ele>9</ele>
        <time>2018-10-13T09:50:15Z</time>
      </trkpt>
      <trkpt lat="48.99749" lon="1.88287">
        <ele>9</ele>
        <time>2018-10-13T09:50:22Z</time>
      </trkpt>
      <trkpt lat="48.99755" lon="1.88299">
        <ele>9</ele>
        <time>2018-10-13T09:50:28Z</time>
      </trkpt>
      <trkpt lat="48.99759" lon="1.88312">
        <ele>10</ele>
        <time>2018-10-13T09:50:33Z</time>
      </trkpt>
      <trkpt lat="48.99763" lon="1.88325">
        <ele>11</ele>
        <time>2018-10-13T09:50:40Z</time>
      </trkpt>
      <trkpt lat="48.99768" lon="1.88337">
        <ele>11</ele>
        <time>2018-10-13T09:50:46Z</time>
      </trkpt>
      <trkpt lat="48.99765" lon="1.8835">
        <ele>11</ele>
        <time>2018-10-13T09:50:53Z</time>
      </trkpt>
      <trkpt lat="48.99761" lon="1.88362">
        <ele>11</ele>
        <time>2018-10-13T09:51:02Z</time>
      </trkpt>
      <trkpt lat="48.99765" lon="1.88376">
        <ele>11</ele>
        <time>2018-10-13T09:51:10Z</time>
      </trkpt>
      <trkpt lat="48.99769" lon="1.8839">
        <ele>10</ele>
        <time>2018-10-13T09:51:18Z</time>
      </trkpt>
      <trkpt lat="48.99774" lon="1.88402">
        <ele>10</ele>
        <time>2018-10-13T09:51:25Z</time>
      </trkpt>
      <trkpt lat="48.99778" lon="1.88414">
        <ele>11</ele>
        <time>2018-10-13T09:51:32Z</time>
      </trkpt>
      <trkpt lat="48.99783" lon="1.88427">
        <ele>11</ele>
        <time>2018-10-13T09:51:39Z</time>
      </trkpt>
      <trkpt lat="48.99788" lon="1.88439">
        <ele>11</ele>
        <time>2018-10-13T09:51:46Z</time>
      </trkpt>
      <trkpt lat="48.99793" lon="1.88451">
        <ele>11</ele>
        <time>2018-10-13T09:51:53Z</time>
      </trkpt>
      <trkpt lat="48.99799" lon="1.88463">
        <ele>11</ele>
        <time>2018-10-13T09:52:00Z</time>
      </trkpt>
      <trkpt lat="48.99803" lon="1.88477">
        <ele>10</ele>
        <time>2018-10-13T09:52:07Z</time>
      </trkpt>
      <trkpt lat="48.99808" lon="1.88491">
        <ele>11</ele>
        <time>2018-10-13T09:52:14Z</time>
      </trkpt>
      <trkpt lat="48.99812" lon="1.88503">
        <ele>11</ele>
        <time>2018-10-13T09:52:20Z</time>
      </trkpt>
      <trkpt lat="48.99817" lon="1.88515">
        <ele>11</ele>
        <time>2018-10-13T09:52:27Z</time>
      </trkpt>
      <trkpt lat="48.99822" lon="1.88527">
        <ele>10</ele>
        <time>2018-10-13T09:52:35Z</time>
      </trkpt>
      <trkpt lat="48.99826" lon="1.88541">
        <ele>10</ele>
        <time>2018-10-13T09:52:42Z</time>
      </trkpt>
      <trkpt lat="48.99828" lon="1.88556">
        <ele>11</ele>
        <time>2018-10-13T09:52:49Z</time>
      </trkpt>
      <trkpt lat="48.99832" lon="1.8857">
        <ele>11</ele>
        <time>2018-10-13T09:52:56Z</time>
      </trkpt>
      <trkpt lat="48.99835" lon="1.88584">
        <ele>11</ele>
        <time>2018-10-13T09:53:02Z</time>
      </trkpt>
      <trkpt lat="48.9984" lon="1.88595">
        <ele>11</ele>
        <time>2018-10-13T09:53:09Z</time>
      </trkpt>
      <trkpt lat="48.99845" lon="1.88609">
        <ele>11</ele>
        <time>2018-10-13T09:53:16Z</time>
      </trkpt>
      <trkpt lat="48.99848" lon="1.88622">
        <ele>11</ele>
        <time>2018-10-13T09:53:22Z</time>
      </trkpt>
      <trkpt lat="48.9985" lon="1.88635">
        <ele>11</ele>
        <time>2018-10-13T09:53:30Z</time>
      </trkpt>
      <trkpt lat="48.99855" lon="1.88649">
        <ele>10</ele>
        <time>2018-10-13T09:53:37Z</time>
      </trkpt>
      <trkpt lat="48.99859" lon="1.88661">
        <ele>10</ele>
        <time>2018-10-13T09:53:44Z</time>
      </trkpt>
      <trkpt lat="48.99863" lon="1.88675">
        <ele>10</ele>
        <time>2018-10-13T09:53:50Z</time>
      </trkpt>
      <trkpt lat="48.99865" lon="1.88688">
        <ele>10</ele>
        <time>2018-10-13T09:53:57Z</time>
      </trkpt>
      <trkpt lat="48.99868" lon="1.88702">
        <ele>10</ele>
        <time>2018-10-13T09:54:05Z</time>
      </trkpt>
      <trkpt lat="48.99869" lon="1.88717">
        <ele>10</ele>
        <time>2018-10-13T09:54:12Z</time>
      </trkpt>
      <trkpt lat="48.99871" lon="1.88731">
        <ele>11</ele>
        <time>2018-10-13T09:54:19Z</time>
      </trkpt>
      <trkpt lat="48.99873" lon="1.88744">
        <ele>12</ele>
        <time>2018-10-13T09:54:25Z</time>
      </trkpt>
      <trkpt lat="48.99878" lon="1.88757">
        <ele>12</ele>
        <time>2018-10-13T09:54:33Z</time>
      </trkpt>
      <trkpt lat="48.99883" lon="1.88768">
        <ele>13</ele>
        <time>2018-10-13T09:54:39Z</time>
      </trkpt>
      <trkpt lat="48.99887" lon="1.88783">
        <ele>13</ele>
        <time>2018-10-13T09:54:47Z</time>
      </trkpt>
      <trkpt lat="48.9989" lon="1.88797">
        <ele>13</ele>
        <time>2018-10-13T09:54:55Z</time>
      </trkpt>
      <trkpt lat="48.99895" lon="1.8881">
        <ele>13</ele>
        <time>2018-10-13T09:55:05Z</time>
      </trkpt>
      <trkpt lat="48.99899" lon="1.88823">
        <ele>13</ele>
        <time>2018-10-13T09:55:14Z</time>
      </trkpt>
      <trkpt lat="48.99903" lon="1.88837">
        <ele>12</ele>
        <time>2018-10-13T09:55:22Z</time>
      </trkpt>
      <trkpt lat="48.99908" lon="1.88851">
        <ele>10</ele>
        <time>2018-10-13T09:55:31Z</time>
      </trkpt>
      <trkpt lat="48.99913" lon="1.88862">
        <ele>10</ele>
        <time>2018-10-13T09:55:37Z</time>
      </trkpt>
      <trkpt lat="48.99917" lon="1.88876">
        <ele>9</ele>
        <time>2018-10-13T09:55:46Z</time>
      </trkpt>
      <trkpt lat="48.99922" lon="1.88888">
        <ele>8</ele>
        <time>2018-10-13T09:55:54Z</time>
      </trkpt>
      <trkpt lat="48.99926" lon="1.88903">
        <ele>7</ele>
        <time>2018-10-13T09:56:02Z</time>
      </trkpt>
      <trkpt lat="48.99928" lon="1.88917">
        <ele>8</ele>
        <time>2018-10-13T09:56:10Z</time>
      </trkpt>
      <trkpt lat="48.99933" lon="1.88931">
        <ele>8</ele>
        <time>2018-10-13T09:56:17Z</time>
      </trkpt>
      <trkpt lat="48.99938" lon="1.88944">
        <ele>9</ele>
        <time>2018-10-13T09:56:25Z</time>
      </trkpt>
      <trkpt lat="48.99941" lon="1.88959">
        <ele>9</ele>
        <time>2018-10-13T09:56:33Z</time>
      </trkpt>
      <trkpt lat="48.99947" lon="1.88971">
        <ele>10</ele>
        <time>2018-10-13T09:56:39Z</time>
      </trkpt>
      <trkpt lat="48.99951" lon="1.88986">
        <ele>11</ele>
        <time>2018-10-13T09:56:46Z</time>
      </trkpt>
      <trkpt lat="48.99956" lon="1.89">
        <ele>11</ele>
        <time>2018-10-13T09:56:55Z</time>
      </trkpt>
      <trkpt lat="48.9996" lon="1.89013">
        <ele>12</ele>
        <time>2018-10-13T09:57:02Z</time>
      </trkpt>
      <trkpt lat="48.99965" lon="1.89025">
        <ele>12</ele>
        <time>2018-10-13T09:57:09Z</time>
      </trkpt>
      <trkpt lat="48.99971" lon="1.89035">
        <ele>12</ele>
        <time>2018-10-13T09:57:17Z</time>
      </trkpt>
      <trkpt lat="48.99975" lon="1.89049">
        <ele>11</ele>
        <time>2018-10-13T09:57:26Z</time>
      </trkpt>
      <trkpt lat="48.99979" lon="1.89062">
        <ele>10</ele>
        <time>2018-10-13T09:57:35Z</time>
      </trkpt>
      <trkpt lat="48.99981" lon="1.89076">
        <ele>10</ele>
        <time>2018-10-13T09:57:41Z</time>
      </trkpt>
      <trkpt lat="48.99986" lon="1.8909">
        <ele>10</ele>
        <time>2018-10-13T09:57:48Z</time>
      </trkpt>
      <trkpt lat="48.9999" lon="1.89103">
        <ele>10</ele>
        <time>2018-10-13T09:57:54Z</time>
      </trkpt>
      <trkpt lat="48.99994" lon="1.89116">
        <ele>10</ele>
        <time>2018-10-13T09:58:01Z</time>
      </trkpt>
      <trkpt lat="49" lon="1.89128">
        <ele>9</ele>
        <time>2018-10-13T09:58:07Z</time>
      </trkpt>
      <trkpt lat="49.00006" lon="1.89139">
        <ele>9</ele>
        <time>2018-10-13T09:58:14Z</time>
      </trkpt>
      <trkpt lat="49.00012" lon="1.89152">
        <ele>8</ele>
        <time>2018-10-13T09:58:21Z</time>
      </trkpt>
      <trkpt lat="49.00019" lon="1.89164">
        <ele>8</ele>
        <time>2018-10-13T09:58:28Z</time>
      </trkpt>
      <trkpt lat="49.00023" lon="1.89178">
        <ele>8</ele>
        <time>2018-10-13T09:58:35Z</time>
      </trkpt>
      <trkpt lat="49.00027" lon="1.8919">
        <ele>9</ele>
        <time>2018-10-13T09:58:43Z</time>
      </trkpt>
      <trkpt lat="49.00035" lon="1.89199">
        <ele>8</ele>
        <time>2018-10-13T09:58:50Z</time>
      </trkpt>
      <trkpt lat="49.00041" lon="1.89211">
        <ele>7</ele>
        <time>2018-10-13T09:59:04Z</time>
      </trkpt>
      <trkpt lat="49.00046" lon="1.89223">
        <ele>7</ele>
        <time>2018-10-13T09:59:09Z</time>
      </trkpt>
      <trkpt lat="49.00051" lon="1.89237">
        <ele>8</ele>
        <time>2018-10-13T09:59:15Z</time>
      </trkpt>
      <trkpt lat="49.00056" lon="1.89251">
        <ele>8</ele>
        <time>2018-10-13T09:59:22Z</time>
      </trkpt>
      <trkpt lat="49.0006" lon="1.89264">
        <ele>9</ele>
        <time>2018-10-13T09:59:28Z</time>
      </trkpt>
      <trkpt lat="49.00065" lon="1.89275">
        <ele>10</ele>
        <time>2018-10-13T09:59:34Z</time>
      </trkpt>
      <trkpt lat="49.0007" lon="1.89288">
        <ele>10</ele>
        <time>2018-10-13T09:59:42Z</time>
      </trkpt>
      <trkpt lat="49.00076" lon="1.893">
        <ele>11</ele>
        <time>2018-10-13T09:59:50Z</time>
      </trkpt>
      <trkpt lat="49.0008" lon="1.89311">
        <ele>11</ele>
        <time>2018-10-13T09:59:59Z</time>
      </trkpt>
      <trkpt lat="49.00086" lon="1.89324">
        <ele>11</ele>
        <time>2018-10-13T10:00:06Z</time>
      </trkpt>
      <trkpt lat="49.0009" lon="1.89336">
        <ele>11</ele>
        <time>2018-10-13T10:00:14Z</time>
      </trkpt>
      <trkpt lat="49.00095" lon="1.89349">
        <ele>11</ele>
        <time>2018-10-13T10:00:23Z</time>
      </trkpt>
      <trkpt lat="49.00099" lon="1.89364">
        <ele>10</ele>
        <time>2018-10-13T10:00:32Z</time>
      </trkpt>
      <trkpt lat="49.00105" lon="1.89377">
        <ele>10</ele>
        <time>2018-10-13T10:00:39Z</time>
      </trkpt>
      <trkpt lat="49.0011" lon="1.8939">
        <ele>9</ele>
        <time>2018-10-13T10:00:46Z</time>
      </trkpt>
      <trkpt lat="49.00116" lon="1.89401">
        <ele>9</ele>
        <time>2018-10-13T10:00:53Z</time>
      </trkpt>
      <trkpt lat="49.00121" lon="1.89415">
        <ele>9</ele>
        <time>2018-10-13T10:01:00Z</time>
      </trkpt>
      <trkpt lat="49.00125" lon="1.89428">
        <ele>9</ele>
        <time>2018-10-13T10:01:07Z</time>
      </trkpt>
      <trkpt lat="49.00129" lon="1.89442">
        <ele>10</ele>
        <time>2018-10-13T10:01:14Z</time>
      </trkpt>
      <trkpt lat="49.00133" lon="1.89455">
        <ele>10</ele>
        <time>2018-10-13T10:01:22Z</time>
      </trkpt>
      <trkpt lat="49.00135" lon="1.8947">
        <ele>10</ele>
        <time>2018-10-13T10:01:31Z</time>
      </trkpt>
      <trkpt lat="49.00139" lon="1.89483">
        <ele>10</ele>
        <time>2018-10-13T10:01:40Z</time>
      </trkpt>
      <trkpt lat="49.00143" lon="1.89497">
        <ele>10</ele>
        <time>2018-10-13T10:01:46Z</time>
      </trkpt>
      <trkpt lat="49.00147" lon="1.89511">
        <ele>10</ele>
        <time>2018-10-13T10:01:52Z</time>
      </trkpt>
      <trkpt lat="49.0015" lon="1.89525">
        <ele>10</ele>
        <time>2018-10-13T10:01:59Z</time>
      </trkpt>
      <trkpt lat="49.00153" lon="1.89538">
        <ele>10</ele>
        <time>2018-10-13T10:02:07Z</time>
      </trkpt>
      <trkpt lat="49.00157" lon="1.89552">
        <ele>10</ele>
        <time>2018-10-13T10:02:14Z</time>
      </trkpt>
      <trkpt lat="49.00159" lon="1.89566">
        <ele>10</ele>
        <time>2018-10-13T10:02:22Z</time>
      </trkpt>
      <trkpt lat="49.00161" lon="1.8958">
        <ele>10</ele>
        <time>2018-10-13T10:02:29Z</time>
      </trkpt>
      <trkpt lat="49.00163" lon="1.89593">
        <ele>10</ele>
        <time>2018-10-13T10:02:35Z</time>
      </trkpt>
      <trkpt lat="49.00165" lon="1.89609">
        <ele>10</ele>
        <time>2018-10-13T10:02:42Z</time>
      </trkpt>
      <trkpt lat="49.00166" lon="1.89624">
        <ele>10</ele>
        <time>2018-10-13T10:02:49Z</time>
      </trkpt>
      <trkpt lat="49.00168" lon="1.89638">
        <ele>11</ele>
        <time>2018-10-13T10:02:57Z</time>
      </trkpt>
      <trkpt lat="49.00172" lon="1.89651">
        <ele>10</ele>
        <time>2018-10-13T10:03:04Z</time>
      </trkpt>
      <trkpt lat="49.00175" lon="1.89666">
        <ele>10</ele>
        <time>2018-10-13T10:03:11Z</time>
      </trkpt>
      <trkpt lat="49.00179" lon="1.89679">
        <ele>9</ele>
        <time>2018-10-13T10:03:19Z</time>
      </trkpt>
      <trkpt lat="49.00182" lon="1.89694">
        <ele>9</ele>
        <time>2018-10-13T10:03:27Z</time>
      </trkpt>
      <trkpt lat="49.00185" lon="1.8971">
        <ele>9</ele>
        <time>2018-10-13T10:03:33Z</time>
      </trkpt>
      <trkpt lat="49.00188" lon="1.89723">
        <ele>9</ele>
        <time>2018-10-13T10:03:38Z</time>
      </trkpt>
      <trkpt lat="49.00191" lon="1.89737">
        <ele>9</ele>
        <time>2018-10-13T10:03:45Z</time>
      </trkpt>
      <trkpt lat="49.00196" lon="1.89751">
        <ele>10</ele>
        <time>2018-10-13T10:03:52Z</time>
      </trkpt>
      <trkpt lat="49.00201" lon="1.89763">
        <ele>10</ele>
        <time>2018-10-13T10:03:59Z</time>
      </trkpt>
      <trkpt lat="49.00204" lon="1.89776">
        <ele>11</ele>
        <time>2018-10-13T10:04:05Z</time>
      </trkpt>
      <trkpt lat="49.00206" lon="1.89789">
        <ele>12</ele>
        <time>2018-10-13T10:04:11Z</time>
      </trkpt>
      <trkpt lat="49.00209" lon="1.89803">
        <ele>12</ele>
        <time>2018-10-13T10:04:18Z</time>
      </trkpt>
      <trkpt lat="49.00213" lon="1.89816">
        <ele>13</ele>
        <time>2018-10-13T10:04:26Z</time>
      </trkpt>
      <trkpt lat="49.00218" lon="1.89828">
        <ele>13</ele>
        <time>2018-10-13T10:04:33Z</time>
      </trkpt>
      <trkpt lat="49.00223" lon="1.89841">
        <ele>13</ele>
        <time>2018-10-13T10:04:40Z</time>
      </trkpt>
      <trkpt lat="49.00228" lon="1.89854">
        <ele>13</ele>
        <time>2018-10-13T10:04:47Z</time>
      </trkpt>
      <trkpt lat="49.00232" lon="1.89868">
        <ele>13</ele>
        <time>2018-10-13T10:04:55Z</time>
      </trkpt>
      <trkpt lat="49.00236" lon="1.8988">
        <ele>13</ele>
        <time>2018-10-13T10:05:02Z</time>
      </trkpt>
      <trkpt lat="49.0024" lon="1.89895">
        <ele>13</ele>
        <time>2018-10-13T10:05:09Z</time>
      </trkpt>
      <trkpt lat="49.00243" lon="1.89908">
        <ele>14</ele>
        <time>2018-10-13T10:05:15Z</time>
      </trkpt>
      <trkpt lat="49.00244" lon="1.89923">
        <ele>14</ele>
        <time>2018-10-13T10:05:22Z</time>
      </trkpt>
      <trkpt lat="49.00249" lon="1.89938">
        <ele>14</ele>
        <time>2018-10-13T10:05:28Z</time>
      </trkpt>
      <trkpt lat="49.00254" lon="1.8995">
        <ele>14</ele>
        <time>2018-10-13T10:05:36Z</time>
      </trkpt>
      <trkpt lat="49.00258" lon="1.89964">
        <ele>14</ele>
        <time>2018-10-13T10:05:43Z</time>
      </trkpt>
      <trkpt lat="49.00261" lon="1.89978">
        <ele>14</ele>
        <time>2018-10-13T10:05:51Z</time>
      </trkpt>
      <trkpt lat="49.00264" lon="1.89992">
        <ele>14</ele>
        <time>2018-10-13T10:05:56Z</time>
      </trkpt>
      <trkpt lat="49.00269" lon="1.90005">
        <ele>14</ele>
        <time>2018-10-13T10:06:02Z</time>
      </trkpt>
      <trkpt lat="49.00273" lon="1.90018">
        <ele>15</ele>
        <time>2018-10-13T10:06:08Z</time>
      </trkpt>
      <trkpt lat="49.00276" lon="1.90032">
        <ele>16</ele>
        <time>2018-10-13T10:06:18Z</time>
      </trkpt>
      <trkpt lat="49.00281" lon="1.90045">
        <ele>16</ele>
        <time>2018-10-13T10:06:26Z</time>
      </trkpt>
      <trkpt lat="49.00282" lon="1.90059">
        <ele>16</ele>
        <time>2018-10-13T10:06:33Z</time>
      </trkpt>
      <trkpt lat="49.00284" lon="1.90074">
        <ele>15</ele>
        <time>2018-10-13T10:06:41Z</time>
      </trkpt>
      <trkpt lat="49.00286" lon="1.90089">
        <ele>15</ele>
        <time>2018-10-13T10:06:48Z</time>
      </trkpt>
      <trkpt lat="49.0029" lon="1.90102">
        <ele>14</ele>
        <time>2018-10-13T10:07:02Z</time>
      </trkpt>
      <trkpt lat="49.00293" lon="1.90116">
        <ele>14</ele>
        <time>2018-10-13T10:07:08Z</time>
      </trkpt>
      <trkpt lat="49.00297" lon="1.90129">
        <ele>14</ele>
        <time>2018-10-13T10:07:16Z</time>
      </trkpt>
      <trkpt lat="49.00304" lon="1.90138">
        <ele>18</ele>
        <time>2018-10-13T10:09:16Z</time>
      </trkpt>
      <trkpt lat="49.00307" lon="1.90152">
        <ele>18</ele>
        <time>2018-10-13T10:09:23Z</time>
      </trkpt>
      <trkpt lat="49.00311" lon="1.90166">
        <ele>17</ele>
        <time>2018-10-13T10:09:30Z</time>
      </trkpt>
      <trkpt lat="49.00314" lon="1.90179">
        <ele>16</ele>
        <time>2018-10-13T10:09:38Z</time>
      </trkpt>
      <trkpt lat="49.00319" lon="1.90192">
        <ele>15</ele>
        <time>2018-10-13T10:09:45Z</time>
      </trkpt>
      <trkpt lat="49.00326" lon="1.90203">
        <ele>14</ele>
        <time>2018-10-13T10:09:52Z</time>
      </trkpt>
      <trkpt lat="49.00331" lon="1.90214">
        <ele>13</ele>
        <time>2018-10-13T10:09:59Z</time>
      </trkpt>
      <trkpt lat="49.00333" lon="1.90229">
        <ele>12</ele>
        <time>2018-10-13T10:10:07Z</time>
      </trkpt>
      <trkpt lat="49.00337" lon="1.90242">
        <ele>11</ele>
        <time>2018-10-13T10:10:15Z</time>
      </trkpt>
      <trkpt lat="49.00341" lon="1.90257">
        <ele>10</ele>
        <time>2018-10-13T10:10:21Z</time>
      </trkpt>
      <trkpt lat="49.00343" lon="1.90271">
        <ele>10</ele>
        <time>2018-10-13T10:10:27Z</time>
      </trkpt>
      <trkpt lat="49.00348" lon="1.90286">
        <ele>10</ele>
        <time>2018-10-13T10:10:35Z</time>
      </trkpt>
      <trkpt lat="49.00352" lon="1.90298">
        <ele>9</ele>
        <time>2018-10-13T10:10:43Z</time>
      </trkpt>
      <trkpt lat="49.00354" lon="1.90313">
        <ele>9</ele>
        <time>2018-10-13T10:10:49Z</time>
      </trkpt>
      <trkpt lat="49.00358" lon="1.90327">
        <ele>9</ele>
        <time>2018-10-13T10:10:56Z</time>
      </trkpt>
      <trkpt lat="49.0036" lon="1.90342">
        <ele>9</ele>
        <time>2018-10-13T10:11:02Z</time>
      </trkpt>
      <trkpt lat="49.00363" lon="1.90355">
        <ele>10</ele>
        <time>2018-10-13T10:11:09Z</time>
      </trkpt>
      <trkpt lat="49.00366" lon="1.90371">
        <ele>10</ele>
        <time>2018-10-13T10:11:17Z</time>
      </trkpt>
      <trkpt lat="49.0037" lon="1.90385">
        <ele>10</ele>
        <time>2018-10-13T10:11:25Z</time>
      </trkpt>
      <trkpt lat="49.00373" lon="1.90399">
        <ele>10</ele>
        <time>2018-10-13T10:11:32Z</time>
      </trkpt>
      <trkpt lat="49.00376" lon="1.90412">
        <ele>10</ele>
        <time>2018-10-13T10:11:39Z</time>
      </trkpt>
      <trkpt lat="49.00381" lon="1.90426">
        <ele>10</ele>
        <time>2018-10-13T10:11:45Z</time>
      </trkpt>
      <trkpt lat="49.00383" lon="1.9044">
        <ele>10</ele>
        <time>2018-10-13T10:11:51Z</time>
      </trkpt>
      <trkpt lat="49.00385" lon="1.90455">
        <ele>10</ele>
        <time>2018-10-13T10:11:58Z</time>
      </trkpt>
      <trkpt lat="49.00389" lon="1.90469">
        <ele>11</ele>
        <time>2018-10-13T10:12:06Z</time>
      </trkpt>
      <trkpt lat="49.00394" lon="1.90481">
        <ele>11</ele>
        <time>2018-10-13T10:12:12Z</time>
      </trkpt>
      <trkpt lat="49.00398" lon="1.90495">
        <ele>11</ele>
        <time>2018-10-13T10:12:19Z</time>
      </trkpt>
      <trkpt lat="49.00402" lon="1.90508">
        <ele>11</ele>
        <time>2018-10-13T10:12:26Z</time>
      </trkpt>
      <trkpt lat="49.00405" lon="1.90522">
        <ele>11</ele>
        <time>2018-10-13T10:12:33Z</time>
      </trkpt>
      <trkpt lat="49.0041" lon="1.90535">
        <ele>11</ele>
        <time>2018-10-13T10:12:42Z</time>
      </trkpt>
      <trkpt lat="49.00415" lon="1.90549">
        <ele>10</ele>
        <time>2018-10-13T10:12:50Z</time>
      </trkpt>
      <trkpt lat="49.00418" lon="1.90566">
        <ele>10</ele>
        <time>2018-10-13T10:13:00Z</time>
      </trkpt>
      <trkpt lat="49.00419" lon="1.90581">
        <ele>10</ele>
        <time>2018-10-13T10:13:07Z</time>
      </trkpt>
      <trkpt lat="49.00419" lon="1.90596">
        <ele>11</ele>
        <time>2018-10-13T10:13:14Z</time>
      </trkpt>
      <trkpt lat="49.00418" lon="1.9061">
        <ele>11</ele>
        <time>2018-10-13T10:13:22Z</time>
      </trkpt>
      <trkpt lat="49.00422" lon="1.90623">
        <ele>11</ele>
        <time>2018-10-13T10:13:28Z</time>
      </trkpt>
      <trkpt lat="49.00423" lon="1.90638">
        <ele>11</ele>
        <time>2018-10-13T10:13:34Z</time>
      </trkpt>
      <trkpt lat="49.00423" lon="1.90653">
        <ele>12</ele>
        <time>2018-10-13T10:13:41Z</time>
      </trkpt>
      <trkpt lat="49.00426" lon="1.90667">
        <ele>12</ele>
        <time>2018-10-13T10:13:49Z</time>
      </trkpt>
      <trkpt lat="49.00432" lon="1.90676">
        <ele>13</ele>
        <time>2018-10-13T10:14:13Z</time>
      </trkpt>
      <trkpt lat="49.00442" lon="1.90678">
        <ele>17</ele>
        <time>2018-10-13T10:14:41Z</time>
      </trkpt>
      <trkpt lat="49.00444" lon="1.90693">
        <ele>16</ele>
        <time>2018-10-13T10:15:16Z</time>
      </trkpt>
      <trkpt lat="49.00443" lon="1.90707">
        <ele>15</ele>
        <time>2018-10-13T10:15:24Z</time>
      </trkpt>
      <trkpt lat="49.00443" lon="1.90722">
        <ele>15</ele>
        <time>2018-10-13T10:15:32Z</time>
      </trkpt>
      <trkpt lat="49.00446" lon="1.90736">
        <ele>14</ele>
        <time>2018-10-13T10:15:39Z</time>
      </trkpt>
      <trkpt lat="49.00448" lon="1.90751">
        <ele>13</ele>
        <time>2018-10-13T10:15:46Z</time>
      </trkpt>
      <trkpt lat="49.00448" lon="1.90766">
        <ele>12</ele>
        <time>2018-10-13T10:15:53Z</time>
      </trkpt>
      <trkpt lat="49.00448" lon="1.90782">
        <ele>12</ele>
        <time>2018-10-13T10:16:01Z</time>
      </trkpt>
      <trkpt lat="49.00449" lon="1.90797">
        <ele>11</ele>
        <time>2018-10-13T10:16:08Z</time>
      </trkpt>
      <trkpt lat="49.00445" lon="1.9081">
        <ele>12</ele>
        <time>2018-10-13T10:16:17Z</time>
      </trkpt>
      <trkpt lat="49.00442" lon="1.90824">
        <ele>12</ele>
        <time>2018-10-13T10:16:24Z</time>
      </trkpt>
      <trkpt lat="49.00443" lon="1.90838">
        <ele>13</ele>
        <time>2018-10-13T10:16:29Z</time>
      </trkpt>
      <trkpt lat="49.00445" lon="1.90853">
        <ele>13</ele>
        <time>2018-10-13T10:16:38Z</time>
      </trkpt>
      <trkpt lat="49.00447" lon="1.90867">
        <ele>13</ele>
        <time>2018-10-13T10:16:45Z</time>
      </trkpt>
      <trkpt lat="49.00447" lon="1.90883">
        <ele>13</ele>
        <time>2018-10-13T10:16:53Z</time>
      </trkpt>
      <trkpt lat="49.00445" lon="1.90897">
        <ele>13</ele>
        <time>2018-10-13T10:17:01Z</time>
      </trkpt>
      <trkpt lat="49.00444" lon="1.90911">
        <ele>13</ele>
        <time>2018-10-13T10:17:08Z</time>
      </trkpt>
      <trkpt lat="49.00448" lon="1.90925">
        <ele>13</ele>
        <time>2018-10-13T10:17:15Z</time>
      </trkpt>
      <trkpt lat="49.00451" lon="1.90939">
        <ele>12</ele>
        <time>2018-10-13T10:17:22Z</time>
      </trkpt>
      <trkpt lat="49.00453" lon="1.90954">
        <ele>12</ele>
        <time>2018-10-13T10:17:28Z</time>
      </trkpt>
      <trkpt lat="49.00455" lon="1.90969">
        <ele>12</ele>
        <time>2018-10-13T10:17:39Z</time>
      </trkpt>
      <trkpt lat="49.0045" lon="1.90982">
        <ele>13</ele>
        <time>2018-10-13T10:17:47Z</time>
      </trkpt>
      <trkpt lat="49.00445" lon="1.90994">
        <ele>14</ele>
        <time>2018-10-13T10:18:02Z</time>
      </trkpt>
      <trkpt lat="49.00454" lon="1.90998">
        <ele>14</ele>
        <time>2018-10-13T10:19:10Z</time>
      </trkpt>
      <trkpt lat="49.00462" lon="1.90993">
        <ele>16</ele>
        <time>2018-10-13T10:19:38Z</time>
      </trkpt>
      <trkpt lat="49.00468" lon="1.91005">
        <ele>20</ele>
        <time>2018-10-13T10:20:22Z</time>
      </trkpt>
      <trkpt lat="49.0047" lon="1.91019">
        <ele>20</ele>
        <time>2018-10-13T10:20:48Z</time>
      </trkpt>
      <trkpt lat="49.0047" lon="1.91033">
        <ele>19</ele>
        <time>2018-10-13T10:21:06Z</time>
      </trkpt>
      <trkpt lat="49.00475" lon="1.91021">
        <ele>21</ele>
        <time>2018-10-13T10:21:52Z</time>
      </trkpt>
      <trkpt lat="49.00471" lon="1.91033">
        <ele>20</ele>
        <time>2018-10-13T10:22:20Z</time>
      </trkpt>
      <trkpt lat="49.00465" lon="1.91043">
        <ele>20</ele>
        <time>2018-10-13T10:22:29Z</time>
      </trkpt>
      <trkpt lat="49.00474" lon="1.91044">
        <ele>21</ele>
        <time>2018-10-13T10:22:49Z</time>
      </trkpt>
      <trkpt lat="49.00482" lon="1.91049">
        <ele>22</ele>
        <time>2018-10-13T10:23:19Z</time>
      </trkpt>
      <trkpt lat="49.00489" lon="1.9106">
        <ele>21</ele>
        <time>2018-10-13T10:23:33Z</time>
      </trkpt>
      <trkpt lat="49.00495" lon="1.9107">
        <ele>19</ele>
        <time>2018-10-13T10:24:07Z</time>
      </trkpt>
      <trkpt lat="49.00499" lon="1.91056">
        <ele>19</ele>
        <time>2018-10-13T10:24:52Z</time>
      </trkpt>
      <trkpt lat="49.00498" lon="1.91042">
        <ele>18</ele>
        <time>2018-10-13T10:25:06Z</time>
      </trkpt>
      <trkpt lat="49.00493" lon="1.91029">
        <ele>18</ele>
        <time>2018-10-13T10:25:36Z</time>
      </trkpt>
      <trkpt lat="49.00484" lon="1.91034">
        <ele>19</ele>
        <time>2018-10-13T10:25:51Z</time>
      </trkpt>
      <trkpt lat="49.00483" lon="1.9102">
        <ele>20</ele>
        <time>2018-10-13T10:26:39Z</time>
      </trkpt>
      <trkpt lat="49.00488" lon="1.91007">
        <ele>20</ele>
        <time>2018-10-13T10:26:48Z</time>
      </trkpt>
      <trkpt lat="49.00481" lon="1.90999">
        <ele>21</ele>
        <time>2018-10-13T10:26:58Z</time>
      </trkpt>
      <trkpt lat="49.00488" lon="1.9099">
        <ele>22</ele>
        <time>2018-10-13T10:27:48Z</time>
      </trkpt>
      <trkpt lat="49.00493" lon="1.90978">
        <ele>21</ele>
        <time>2018-10-13T10:28:11Z</time>
      </trkpt>
      <trkpt lat="49.00496" lon="1.90964">
        <ele>22</ele>
        <time>2018-10-13T10:28:23Z</time>
      </trkpt>
      <trkpt lat="49.00502" lon="1.90953">
        <ele>21</ele>
        <time>2018-10-13T10:28:48Z</time>
      </trkpt>
      <trkpt lat="49.00508" lon="1.90943">
        <ele>21</ele>
        <time>2018-10-13T10:29:05Z</time>
      </trkpt>
      <trkpt lat="49.0051" lon="1.90929">
        <ele>21</ele>
        <time>2018-10-13T10:29:21Z</time>
      </trkpt>
      <trkpt lat="49.00515" lon="1.90916">
        <ele>21</ele>
        <time>2018-10-13T10:29:35Z</time>
      </trkpt>
      <trkpt lat="49.00518" lon="1.90904">
        <ele>20</ele>
        <time>2018-10-13T10:29:52Z</time>
      </trkpt>
      <trkpt lat="49.00518" lon="1.9089">
        <ele>20</ele>
        <time>2018-10-13T10:30:27Z</time>
      </trkpt>
      <trkpt lat="49.00519" lon="1.90876">
        <ele>19</ele>
        <time>2018-10-13T10:30:46Z</time>
      </trkpt>
      <trkpt lat="49.0052" lon="1.90862">
        <ele>20</ele>
        <time>2018-10-13T10:31:12Z</time>
      </trkpt>
      <trkpt lat="49.00522" lon="1.90848">
        <ele>19</ele>
        <time>2018-10-13T10:31:27Z</time>
      </trkpt>
      <trkpt lat="49.00528" lon="1.90838">
        <ele>19</ele>
        <time>2018-10-13T10:32:02Z</time>
      </trkpt>
      <trkpt lat="49.00532" lon="1.90825">
        <ele>20</ele>
        <time>2018-10-13T10:34:42Z</time>
      </trkpt>
      <trkpt lat="49.00531" lon="1.90811">
        <ele>20</ele>
        <time>2018-10-13T10:35:06Z</time>
      </trkpt>
      <trkpt lat="49.00533" lon="1.90798">
        <ele>22</ele>
        <time>2018-10-13T10:36:00Z</time>
      </trkpt>
      <trkpt lat="49.00532" lon="1.90812">
        <ele>22</ele>
        <time>2018-10-13T10:36:10Z</time>
      </trkpt>
      <trkpt lat="49.0053" lon="1.90827">
        <ele>23</ele>
        <time>2018-10-13T10:36:19Z</time>
      </trkpt>
      <trkpt lat="49.00531" lon="1.90813">
        <ele>22</ele>
        <time>2018-10-13T10:36:34Z</time>
      </trkpt>
      <trkpt lat="49.00529" lon="1.908">
        <ele>25</ele>
        <time>2018-10-13T10:40:59Z</time>
      </trkpt>
      <trkpt lat="49.00535" lon="1.90788">
        <ele>26</ele>
        <time>2018-10-13T10:41:24Z</time>
      </trkpt>
      <trkpt lat="49.00539" lon="1.90776">
        <ele>28</ele>
        <time>2018-10-13T10:41:37Z</time>
      </trkpt>
      <trkpt lat="49.00545" lon="1.90765">
        <ele>28</ele>
        <time>2018-10-13T10:41:45Z</time>
      </trkpt>
      <trkpt lat="49.00551" lon="1.90754">
        <ele>28</ele>
        <time>2018-10-13T10:41:56Z</time>
      </trkpt>
      <trkpt lat="49.00556" lon="1.90742">
        <ele>28</ele>
        <time>2018-10-13T10:42:07Z</time>
      </trkpt>
      <trkpt lat="49.00565" lon="1.90735">
        <ele>29</ele>
        <time>2018-10-13T10:42:20Z</time>
      </trkpt>
      <trkpt lat="49.00557" lon="1.9074">
        <ele>29</ele>
        <time>2018-10-13T10:42:50Z</time>
      </trkpt>
      <trkpt lat="49.00558" lon="1.90754">
        <ele>25</ele>
        <time>2018-10-13T10:45:37Z</time>
      </trkpt>
      <trkpt lat="49.0055" lon="1.90758">
        <ele>25</ele>
        <time>2018-10-13T10:46:00Z</time>
      </trkpt>
      <trkpt lat="49.00544" lon="1.9077">
        <ele>26</ele>
        <time>2018-10-13T10:46:16Z</time>
      </trkpt>
      <trkpt lat="49.00535" lon="1.90776">
        <ele>26</ele>
        <time>2018-10-13T10:46:23Z</time>
      </trkpt>
      <trkpt lat="49.00531" lon="1.90788">
        <ele>25</ele>
        <time>2018-10-13T10:46:39Z</time>
      </trkpt>
      <trkpt lat="49.0053" lon="1.90803">
        <ele>26</ele>
        <time>2018-10-13T10:47:07Z</time>
      </trkpt>
      <trkpt lat="49.00524" lon="1.90813">
        <ele>26</ele>
        <time>2018-10-13T10:47:32Z</time>
      </trkpt>
      <trkpt lat="49.00526" lon="1.90827">
        <ele>27</ele>
        <time>2018-10-13T10:48:02Z</time>
      </trkpt>
      <trkpt lat="49.00524" lon="1.90842">
        <ele>29</ele>
        <time>2018-10-13T10:50:44Z</time>
      </trkpt>
      <trkpt lat="49.00519" lon="1.90854">
        <ele>29</ele>
        <time>2018-10-13T10:50:58Z</time>
      </trkpt>
      <trkpt lat="49.00519" lon="1.90868">
        <ele>29</ele>
        <time>2018-10-13T10:51:08Z</time>
      </trkpt>
      <trkpt lat="49.00515" lon="1.90882">
        <ele>28</ele>
        <time>2018-10-13T10:51:21Z</time>
      </trkpt>
      <trkpt lat="49.00512" lon="1.90896">
        <ele>28</ele>
        <time>2018-10-13T10:51:36Z</time>
      </trkpt>
      <trkpt lat="49.00509" lon="1.90909">
        <ele>28</ele>
        <time>2018-10-13T10:51:46Z</time>
      </trkpt>
      <trkpt lat="49.00504" lon="1.90922">
        <ele>28</ele>
        <time>2018-10-13T10:51:58Z</time>
      </trkpt>
      <trkpt lat="49.00503" lon="1.90936">
        <ele>28</ele>
        <time>2018-10-13T10:52:11Z</time>
      </trkpt>
      <trkpt lat="49.00502" lon="1.9095">
        <ele>29</ele>
        <time>2018-10-13T10:52:25Z</time>
      </trkpt>
      <trkpt lat="49.00495" lon="1.90959">
        <ele>29</ele>
        <time>2018-10-13T10:54:17Z</time>
      </trkpt>
      <trkpt lat="49.00489" lon="1.90969">
        <ele>26</ele>
        <time>2018-10-13T10:55:52Z</time>
      </trkpt>
      <trkpt lat="49.00487" lon="1.90985">
        <ele>27</ele>
        <time>2018-10-13T10:56:40Z</time>
      </trkpt>
      <trkpt lat="49.0048" lon="1.90994">
        <ele>25</ele>
        <time>2018-10-13T10:56:57Z</time>
      </trkpt>
      <trkpt lat="49.00469" lon="1.90993">
        <ele>24</ele>
        <time>2018-10-13T10:57:38Z</time>
      </trkpt>
      <trkpt lat="49.0046" lon="1.90993">
        <ele>24</ele>
        <time>2018-10-13T10:57:47Z</time>
      </trkpt>
      <trkpt lat="49.0045" lon="1.90995">
        <ele>23</ele>
        <time>2018-10-13T10:57:55Z</time>
      </trkpt>
      <trkpt lat="49.00441" lon="1.91001">
        <ele>29</ele>
        <time>2018-10-13T11:03:32Z</time>
      </trkpt>
      <trkpt lat="49.00433" lon="1.91007">
        <ele>27</ele>
        <time>2018-10-13T11:03:42Z</time>
      </trkpt>
      <trkpt lat="49.00432" lon="1.91021">
        <ele>26</ele>
        <time>2018-10-13T11:03:51Z</time>
      </trkpt>
      <trkpt lat="49.00433" lon="1.91036">
        <ele>24</ele>
        <time>2018-10-13T12:23:24Z</time>
      </trkpt>
      <trkpt lat="49.00405" lon="1.91084">
        <ele>12</ele>
        <time>2018-10-13T12:23:34Z</time>
      </trkpt>
      <trkpt lat="49.00414" lon="1.9109">
        <ele>13</ele>
        <time>2018-10-13T12:23:43Z</time>
      </trkpt>
      <trkpt lat="49.00423" lon="1.91089">
        <ele>13</ele>
        <time>2018-10-13T12:23:57Z</time>
      </trkpt>
      <trkpt lat="49.00422" lon="1.91104">
        <ele>13</ele>
        <time>2018-10-13T12:24:11Z</time>
      </trkpt>
      <trkpt lat="49.00421" lon="1.91118">
        <ele>13</ele>
        <time>2018-10-13T12:24:21Z</time>
      </trkpt>
      <trkpt lat="49.00427" lon="1.91127">
        <ele>13</ele>
        <time>2018-10-13T12:24:30Z</time>
      </trkpt>
      <trkpt lat="49.00436" lon="1.91133">
        <ele>14</ele>
        <time>2018-10-13T12:24:40Z</time>
      </trkpt>
      <trkpt lat="49.00446" lon="1.9113">
        <ele>16</ele>
        <time>2018-10-13T12:24:48Z</time>
      </trkpt>
      <trkpt lat="49.00456" lon="1.91133">
        <ele>17</ele>
        <time>2018-10-13T12:24:57Z</time>
      </trkpt>
      <trkpt lat="49.00465" lon="1.91133">
        <ele>18</ele>
        <time>2018-10-13T12:25:05Z</time>
      </trkpt>
      <trkpt lat="49.00475" lon="1.91131">
        <ele>19</ele>
        <time>2018-10-13T12:25:12Z</time>
      </trkpt>
      <trkpt lat="49.00483" lon="1.91136">
        <ele>19</ele>
        <time>2018-10-13T12:25:22Z</time>
      </trkpt>
      <trkpt lat="49.00494" lon="1.91136">
        <ele>20</ele>
        <time>2018-10-13T12:25:29Z</time>
      </trkpt>
      <trkpt lat="49.00501" lon="1.91128">
        <ele>20</ele>
        <time>2018-10-13T12:25:36Z</time>
      </trkpt>
      <trkpt lat="49.00506" lon="1.91115">
        <ele>19</ele>
        <time>2018-10-13T12:25:44Z</time>
      </trkpt>
      <trkpt lat="49.00512" lon="1.91103">
        <ele>19</ele>
        <time>2018-10-13T12:25:51Z</time>
      </trkpt>
      <trkpt lat="49.00515" lon="1.91089">
        <ele>19</ele>
        <time>2018-10-13T12:26:00Z</time>
      </trkpt>
      <trkpt lat="49.00516" lon="1.91075">
        <ele>20</ele>
        <time>2018-10-13T12:26:07Z</time>
      </trkpt>
      <trkpt lat="49.00519" lon="1.91062">
        <ele>21</ele>
        <time>2018-10-13T12:26:16Z</time>
      </trkpt>
      <trkpt lat="49.00523" lon="1.91048">
        <ele>22</ele>
        <time>2018-10-13T12:26:23Z</time>
      </trkpt>
      <trkpt lat="49.00524" lon="1.91034">
        <ele>22</ele>
        <time>2018-10-13T12:26:32Z</time>
      </trkpt>
      <trkpt lat="49.00527" lon="1.9102">
        <ele>23</ele>
        <time>2018-10-13T12:26:41Z</time>
      </trkpt>
      <trkpt lat="49.00531" lon="1.91007">
        <ele>23</ele>
        <time>2018-10-13T12:26:50Z</time>
      </trkpt>
      <trkpt lat="49.0054" lon="1.91011">
        <ele>25</ele>
        <time>2018-10-13T12:27:08Z</time>
      </trkpt>
      <trkpt lat="49.00549" lon="1.91007">
        <ele>26</ele>
        <time>2018-10-13T12:27:17Z</time>
      </trkpt>
      <trkpt lat="49.00558" lon="1.91003">
        <ele>26</ele>
        <time>2018-10-13T12:27:32Z</time>
      </trkpt>
      <trkpt lat="49.00567" lon="1.90996">
        <ele>26</ele>
        <time>2018-10-13T12:27:44Z</time>
      </trkpt>
      <trkpt lat="49.00576" lon="1.90996">
        <ele>27</ele>
        <time>2018-10-13T12:27:58Z</time>
      </trkpt>
      <trkpt lat="49.00585" lon="1.90998">
        <ele>27</ele>
        <time>2018-10-13T12:28:14Z</time>
      </trkpt>
      <trkpt lat="49.00594" lon="1.90995">
        <ele>28</ele>
        <time>2018-10-13T12:28:30Z</time>
      </trkpt>
      <trkpt lat="49.00602" lon="1.90988">
        <ele>30</ele>
        <time>2018-10-13T12:28:47Z</time>
      </trkpt>
      <trkpt lat="49.00611" lon="1.90985">
        <ele>34</ele>
        <time>2018-10-13T12:29:05Z</time>
      </trkpt>
      <trkpt lat="49.00622" lon="1.90985">
        <ele>38</ele>
        <time>2018-10-13T12:29:18Z</time>
      </trkpt>
      <trkpt lat="49.00628" lon="1.90972">
        <ele>39</ele>
        <time>2018-10-13T12:29:28Z</time>
      </trkpt>
      <trkpt lat="49.00629" lon="1.90958">
        <ele>40</ele>
        <time>2018-10-13T12:29:36Z</time>
      </trkpt>
      <trkpt lat="49.00628" lon="1.90943">
        <ele>41</ele>
        <time>2018-10-13T12:29:45Z</time>
      </trkpt>
      <trkpt lat="49.00624" lon="1.90928">
        <ele>42</ele>
        <time>2018-10-13T12:29:52Z</time>
      </trkpt>
      <trkpt lat="49.00621" lon="1.90914">
        <ele>43</ele>
        <time>2018-10-13T12:29:59Z</time>
      </trkpt>
      <trkpt lat="49.00619" lon="1.909">
        <ele>44</ele>
        <time>2018-10-13T12:30:07Z</time>
      </trkpt>
      <trkpt lat="49.00617" lon="1.90886">
        <ele>44</ele>
        <time>2018-10-13T12:30:15Z</time>
      </trkpt>
      <trkpt lat="49.0062" lon="1.90872">
        <ele>44</ele>
        <time>2018-10-13T12:30:22Z</time>
      </trkpt>
      <trkpt lat="49.00625" lon="1.9086">
        <ele>44</ele>
        <time>2018-10-13T12:30:29Z</time>
      </trkpt>
      <trkpt lat="49.00629" lon="1.90846">
        <ele>44</ele>
        <time>2018-10-13T12:30:36Z</time>
      </trkpt>
      <trkpt lat="49.00632" lon="1.90832">
        <ele>44</ele>
        <time>2018-10-13T12:30:45Z</time>
      </trkpt>
      <trkpt lat="49.00637" lon="1.9082">
        <ele>43</ele>
        <time>2018-10-13T12:30:54Z</time>
      </trkpt>
      <trkpt lat="49.00641" lon="1.90806">
        <ele>43</ele>
        <time>2018-10-13T12:31:02Z</time>
      </trkpt>
      <trkpt lat="49.0065" lon="1.90796">
        <ele>43</ele>
        <time>2018-10-13T12:31:09Z</time>
      </trkpt>
      <trkpt lat="49.00658" lon="1.9079">
        <ele>44</ele>
        <time>2018-10-13T12:31:18Z</time>
      </trkpt>
      <trkpt lat="49.00664" lon="1.90802">
        <ele>44</ele>
        <time>2018-10-13T12:31:27Z</time>
      </trkpt>
      <trkpt lat="49.00672" lon="1.90811">
        <ele>44</ele>
        <time>2018-10-13T12:31:35Z</time>
      </trkpt>
      <trkpt lat="49.0068" lon="1.90817">
        <ele>44</ele>
        <time>2018-10-13T12:31:41Z</time>
      </trkpt>
      <trkpt lat="49.00689" lon="1.9082">
        <ele>45</ele>
        <time>2018-10-13T12:31:48Z</time>
      </trkpt>
      <trkpt lat="49.00699" lon="1.90823">
        <ele>45</ele>
        <time>2018-10-13T12:31:56Z</time>
      </trkpt>
      <trkpt lat="49.00708" lon="1.90826">
        <ele>46</ele>
        <time>2018-10-13T12:32:05Z</time>
      </trkpt>
      <trkpt lat="49.00716" lon="1.90832">
        <ele>46</ele>
        <time>2018-10-13T12:32:13Z</time>
      </trkpt>
      <trkpt lat="49.00726" lon="1.90834">
        <ele>46</ele>
        <time>2018-10-13T12:32:22Z</time>
      </trkpt>
      <trkpt lat="49.00735" lon="1.9083">
        <ele>47</ele>
        <time>2018-10-13T12:32:29Z</time>
      </trkpt>
      <trkpt lat="49.00745" lon="1.90828">
        <ele>48</ele>
        <time>2018-10-13T12:32:35Z</time>
      </trkpt>
      <trkpt lat="49.00754" lon="1.90828">
        <ele>48</ele>
        <time>2018-10-13T12:32:42Z</time>
      </trkpt>
      <trkpt lat="49.00764" lon="1.90827">
        <ele>48</ele>
        <time>2018-10-13T12:32:50Z</time>
      </trkpt>
      <trkpt lat="49.00773" lon="1.90826">
        <ele>49</ele>
        <time>2018-10-13T12:32:57Z</time>
      </trkpt>
      <trkpt lat="49.00782" lon="1.90825">
        <ele>49</ele>
        <time>2018-10-13T12:33:04Z</time>
      </trkpt>
      <trkpt lat="49.00792" lon="1.9082">
        <ele>49</ele>
        <time>2018-10-13T12:33:13Z</time>
      </trkpt>
      <trkpt lat="49.00802" lon="1.90817">
        <ele>49</ele>
        <time>2018-10-13T12:33:20Z</time>
      </trkpt>
      <trkpt lat="49.00811" lon="1.90818">
        <ele>49</ele>
        <time>2018-10-13T12:33:26Z</time>
      </trkpt>
      <trkpt lat="49.00819" lon="1.90814">
        <ele>48</ele>
        <time>2018-10-13T12:33:33Z</time>
      </trkpt>
      <trkpt lat="49.00828" lon="1.90808">
        <ele>48</ele>
        <time>2018-10-13T12:33:41Z</time>
      </trkpt>
      <trkpt lat="49.00837" lon="1.90804">
        <ele>48</ele>
        <time>2018-10-13T12:33:48Z</time>
      </trkpt>
      <trkpt lat="49.00846" lon="1.90799">
        <ele>48</ele>
        <time>2018-10-13T12:33:56Z</time>
      </trkpt>
      <trkpt lat="49.00855" lon="1.90796">
        <ele>47</ele>
        <time>2018-10-13T12:34:04Z</time>
      </trkpt>
      <trkpt lat="49.00865" lon="1.90792">
        <ele>46</ele>
        <time>2018-10-13T12:34:13Z</time>
      </trkpt>
      <trkpt lat="49.00873" lon="1.90787">
        <ele>45</ele>
        <time>2018-10-13T12:34:22Z</time>
      </trkpt>
      <trkpt lat="49.00882" lon="1.90784">
        <ele>45</ele>
        <time>2018-10-13T12:34:28Z</time>
      </trkpt>
      <trkpt lat="49.00892" lon="1.90782">
        <ele>44</ele>
        <time>2018-10-13T12:34:34Z</time>
      </trkpt>
      <trkpt lat="49.00902" lon="1.90779">
        <ele>44</ele>
        <time>2018-10-13T12:34:42Z</time>
      </trkpt>
      <trkpt lat="49.00911" lon="1.90773">
        <ele>43</ele>
        <time>2018-10-13T12:34:50Z</time>
      </trkpt>
      <trkpt lat="49.0092" lon="1.90766">
        <ele>43</ele>
        <time>2018-10-13T12:34:57Z</time>
      </trkpt>
      <trkpt lat="49.00928" lon="1.90759">
        <ele>42</ele>
        <time>2018-10-13T12:35:07Z</time>
      </trkpt>
      <trkpt lat="49.00938" lon="1.90761">
        <ele>42</ele>
        <time>2018-10-13T12:35:15Z</time>
      </trkpt>
      <trkpt lat="49.00947" lon="1.90766">
        <ele>42</ele>
        <time>2018-10-13T12:35:25Z</time>
      </trkpt>
      <trkpt lat="49.00956" lon="1.9077">
        <ele>42</ele>
        <time>2018-10-13T12:35:34Z</time>
      </trkpt>
      <trkpt lat="49.00964" lon="1.90776">
        <ele>41</ele>
        <time>2018-10-13T12:35:42Z</time>
      </trkpt>
      <trkpt lat="49.00973" lon="1.90782">
        <ele>41</ele>
        <time>2018-10-13T12:35:50Z</time>
      </trkpt>
      <trkpt lat="49.00982" lon="1.90786">
        <ele>40</ele>
        <time>2018-10-13T12:35:58Z</time>
      </trkpt>
      <trkpt lat="49.00991" lon="1.90789">
        <ele>40</ele>
        <time>2018-10-13T12:36:05Z</time>
      </trkpt>
      <trkpt lat="49.00999" lon="1.90795">
        <ele>39</ele>
        <time>2018-10-13T12:36:13Z</time>
      </trkpt>
      <trkpt lat="49.01009" lon="1.90799">
        <ele>39</ele>
        <time>2018-10-13T12:36:22Z</time>
      </trkpt>
      <trkpt lat="49.01019" lon="1.90802">
        <ele>37</ele>
        <time>2018-10-13T12:36:31Z</time>
      </trkpt>
      <trkpt lat="49.01027" lon="1.90808">
        <ele>36</ele>
        <time>2018-10-13T12:36:39Z</time>
      </trkpt>
      <trkpt lat="49.01037" lon="1.9081">
        <ele>35</ele>
        <time>2018-10-13T12:36:47Z</time>
      </trkpt>
      <trkpt lat="49.01047" lon="1.90812">
        <ele>35</ele>
        <time>2018-10-13T12:36:55Z</time>
      </trkpt>
      <trkpt lat="49.01056" lon="1.90814">
        <ele>35</ele>
        <time>2018-10-13T12:37:04Z</time>
      </trkpt>
      <trkpt lat="49.01065" lon="1.90818">
        <ele>35</ele>
        <time>2018-10-13T12:37:10Z</time>
      </trkpt>
      <trkpt lat="49.01074" lon="1.90824">
        <ele>34</ele>
        <time>2018-10-13T12:37:17Z</time>
      </trkpt>
      <trkpt lat="49.01084" lon="1.90825">
        <ele>33</ele>
        <time>2018-10-13T12:37:25Z</time>
      </trkpt>
      <trkpt lat="49.01094" lon="1.90826">
        <ele>32</ele>
        <time>2018-10-13T12:37:33Z</time>
      </trkpt>
      <trkpt lat="49.01103" lon="1.90824">
        <ele>32</ele>
        <time>2018-10-13T12:37:40Z</time>
      </trkpt>
      <trkpt lat="49.01111" lon="1.90816">
        <ele>30</ele>
        <time>2018-10-13T12:37:49Z</time>
      </trkpt>
      <trkpt lat="49.0112" lon="1.90809">
        <ele>30</ele>
        <time>2018-10-13T12:37:57Z</time>
      </trkpt>
      <trkpt lat="49.01128" lon="1.90801">
        <ele>28</ele>
        <time>2018-10-13T12:38:05Z</time>
      </trkpt>
      <trkpt lat="49.01135" lon="1.90792">
        <ele>27</ele>
        <time>2018-10-13T12:38:12Z</time>
      </trkpt>
      <trkpt lat="49.01142" lon="1.90783">
        <ele>26</ele>
        <time>2018-10-13T12:38:21Z</time>
      </trkpt>
      <trkpt lat="49.01151" lon="1.90773">
        <ele>24</ele>
        <time>2018-10-13T12:38:29Z</time>
      </trkpt>
      <trkpt lat="49.01158" lon="1.90764">
        <ele>23</ele>
        <time>2018-10-13T12:38:37Z</time>
      </trkpt>
      <trkpt lat="49.01167" lon="1.9076">
        <ele>21</ele>
        <time>2018-10-13T12:38:54Z</time>
      </trkpt>
      <trkpt lat="49.01174" lon="1.90751">
        <ele>20</ele>
        <time>2018-10-13T12:39:02Z</time>
      </trkpt>
      <trkpt lat="49.01178" lon="1.90738">
        <ele>19</ele>
        <time>2018-10-13T12:39:15Z</time>
      </trkpt>
      <trkpt lat="49.0118" lon="1.90724">
        <ele>20</ele>
        <time>2018-10-13T12:40:25Z</time>
      </trkpt>
      <trkpt lat="49.01189" lon="1.90717">
        <ele>19</ele>
        <time>2018-10-13T12:40:33Z</time>
      </trkpt>
      <trkpt lat="49.01198" lon="1.90719">
        <ele>19</ele>
        <time>2018-10-13T12:40:40Z</time>
      </trkpt>
      <trkpt lat="49.01208" lon="1.90719">
        <ele>19</ele>
        <time>2018-10-13T12:40:47Z</time>
      </trkpt>
      <trkpt lat="49.01217" lon="1.90714">
        <ele>20</ele>
        <time>2018-10-13T12:40:55Z</time>
      </trkpt>
      <trkpt lat="49.01224" lon="1.90704">
        <ele>20</ele>
        <time>2018-10-13T12:41:02Z</time>
      </trkpt>
      <trkpt lat="49.01233" lon="1.90695">
        <ele>20</ele>
        <time>2018-10-13T12:41:10Z</time>
      </trkpt>
      <trkpt lat="49.0124" lon="1.90685">
        <ele>20</ele>
        <time>2018-10-13T12:41:20Z</time>
      </trkpt>
      <trkpt lat="49.01248" lon="1.90678">
        <ele>20</ele>
        <time>2018-10-13T12:41:26Z</time>
      </trkpt>
      <trkpt lat="49.01256" lon="1.90669">
        <ele>21</ele>
        <time>2018-10-13T12:41:35Z</time>
      </trkpt>
      <trkpt lat="49.01263" lon="1.9066">
        <ele>21</ele>
        <time>2018-10-13T12:41:43Z</time>
      </trkpt>
      <trkpt lat="49.01269" lon="1.90649">
        <ele>21</ele>
        <time>2018-10-13T12:41:51Z</time>
      </trkpt>
      <trkpt lat="49.01273" lon="1.90634">
        <ele>22</ele>
        <time>2018-10-13T12:42:00Z</time>
      </trkpt>
      <trkpt lat="49.01273" lon="1.9062">
        <ele>22</ele>
        <time>2018-10-13T12:42:08Z</time>
      </trkpt>
      <trkpt lat="49.01272" lon="1.90606">
        <ele>23</ele>
        <time>2018-10-13T12:42:15Z</time>
      </trkpt>
      <trkpt lat="49.01269" lon="1.90593">
        <ele>23</ele>
        <time>2018-10-13T12:42:23Z</time>
      </trkpt>
      <trkpt lat="49.01264" lon="1.90579">
        <ele>24</ele>
        <time>2018-10-13T12:42:30Z</time>
      </trkpt>
      <trkpt lat="49.0126" lon="1.90567">
        <ele>25</ele>
        <time>2018-10-13T12:42:38Z</time>
      </trkpt>
      <trkpt lat="49.01256" lon="1.90554">
        <ele>25</ele>
        <time>2018-10-13T12:42:46Z</time>
      </trkpt>
      <trkpt lat="49.01253" lon="1.90541">
        <ele>26</ele>
        <time>2018-10-13T12:42:54Z</time>
      </trkpt>
      <trkpt lat="49.01252" lon="1.90527">
        <ele>26</ele>
        <time>2018-10-13T12:43:01Z</time>
      </trkpt>
      <trkpt lat="49.01249" lon="1.90513">
        <ele>26</ele>
        <time>2018-10-13T12:43:08Z</time>
      </trkpt>
      <trkpt lat="49.0125" lon="1.90498">
        <ele>26</ele>
        <time>2018-10-13T12:43:16Z</time>
      </trkpt>
      <trkpt lat="49.01254" lon="1.90483">
        <ele>26</ele>
        <time>2018-10-13T12:43:24Z</time>
      </trkpt>
      <trkpt lat="49.01258" lon="1.9047">
        <ele>26</ele>
        <time>2018-10-13T12:43:31Z</time>
      </trkpt>
      <trkpt lat="49.01259" lon="1.90455">
        <ele>26</ele>
        <time>2018-10-13T12:43:39Z</time>
      </trkpt>
      <trkpt lat="49.01261" lon="1.9044">
        <ele>26</ele>
        <time>2018-10-13T12:43:47Z</time>
      </trkpt>
      <trkpt lat="49.01266" lon="1.90427">
        <ele>26</ele>
        <time>2018-10-13T12:43:54Z</time>
      </trkpt>
      <trkpt lat="49.01271" lon="1.90415">
        <ele>25</ele>
        <time>2018-10-13T12:44:01Z</time>
      </trkpt>
      <trkpt lat="49.01274" lon="1.90402">
        <ele>25</ele>
        <time>2018-10-13T12:44:08Z</time>
      </trkpt>
      <trkpt lat="49.01278" lon="1.90388">
        <ele>25</ele>
        <time>2018-10-13T12:44:16Z</time>
      </trkpt>
      <trkpt lat="49.01282" lon="1.90373">
        <ele>25</ele>
        <time>2018-10-13T12:44:24Z</time>
      </trkpt>
      <trkpt lat="49.01288" lon="1.90362">
        <ele>25</ele>
        <time>2018-10-13T12:44:31Z</time>
      </trkpt>
      <trkpt lat="49.01294" lon="1.90349">
        <ele>25</ele>
        <time>2018-10-13T12:44:39Z</time>
      </trkpt>
      <trkpt lat="49.01299" lon="1.90338">
        <ele>25</ele>
        <time>2018-10-13T12:44:47Z</time>
      </trkpt>
      <trkpt lat="49.01305" lon="1.90325">
        <ele>26</ele>
        <time>2018-10-13T12:44:55Z</time>
      </trkpt>
      <trkpt lat="49.01312" lon="1.90316">
        <ele>26</ele>
        <time>2018-10-13T12:45:02Z</time>
      </trkpt>
      <trkpt lat="49.01318" lon="1.90306">
        <ele>26</ele>
        <time>2018-10-13T12:45:10Z</time>
      </trkpt>
      <trkpt lat="49.01325" lon="1.90297">
        <ele>25</ele>
        <time>2018-10-13T12:45:16Z</time>
      </trkpt>
      <trkpt lat="49.01334" lon="1.90289">
        <ele>25</ele>
        <time>2018-10-13T12:45:24Z</time>
      </trkpt>
      <trkpt lat="49.01342" lon="1.90281">
        <ele>25</ele>
        <time>2018-10-13T12:45:31Z</time>
      </trkpt>
      <trkpt lat="49.01349" lon="1.90273">
        <ele>25</ele>
        <time>2018-10-13T12:45:37Z</time>
      </trkpt>
      <trkpt lat="49.01358" lon="1.90265">
        <ele>24</ele>
        <time>2018-10-13T12:45:46Z</time>
      </trkpt>
      <trkpt lat="49.01367" lon="1.9026">
        <ele>24</ele>
        <time>2018-10-13T12:45:53Z</time>
      </trkpt>
      <trkpt lat="49.01375" lon="1.90254">
        <ele>24</ele>
        <time>2018-10-13T12:45:59Z</time>
      </trkpt>
      <trkpt lat="49.01384" lon="1.90248">
        <ele>24</ele>
        <time>2018-10-13T12:46:08Z</time>
      </trkpt>
      <trkpt lat="49.01392" lon="1.90243">
        <ele>24</ele>
        <time>2018-10-13T12:46:16Z</time>
      </trkpt>
      <trkpt lat="49.01401" lon="1.9024">
        <ele>23</ele>
        <time>2018-10-13T12:46:22Z</time>
      </trkpt>
      <trkpt lat="49.0141" lon="1.90235">
        <ele>23</ele>
        <time>2018-10-13T12:46:29Z</time>
      </trkpt>
      <trkpt lat="49.01419" lon="1.90229">
        <ele>22</ele>
        <time>2018-10-13T12:46:36Z</time>
      </trkpt>
      <trkpt lat="49.01425" lon="1.90217">
        <ele>21</ele>
        <time>2018-10-13T12:46:44Z</time>
      </trkpt>
      <trkpt lat="49.0143" lon="1.90206">
        <ele>20</ele>
        <time>2018-10-13T12:46:50Z</time>
      </trkpt>
      <trkpt lat="49.01437" lon="1.90194">
        <ele>20</ele>
        <time>2018-10-13T12:46:57Z</time>
      </trkpt>
      <trkpt lat="49.01442" lon="1.9018">
        <ele>19</ele>
        <time>2018-10-13T12:47:05Z</time>
      </trkpt>
      <trkpt lat="49.01444" lon="1.90165">
        <ele>19</ele>
        <time>2018-10-13T12:47:12Z</time>
      </trkpt>
      <trkpt lat="49.01446" lon="1.90152">
        <ele>20</ele>
        <time>2018-10-13T12:47:20Z</time>
      </trkpt>
      <trkpt lat="49.01453" lon="1.90141">
        <ele>19</ele>
        <time>2018-10-13T12:47:38Z</time>
      </trkpt>
      <trkpt lat="49.01459" lon="1.90129">
        <ele>18</ele>
        <time>2018-10-13T12:47:45Z</time>
      </trkpt>
      <trkpt lat="49.01466" lon="1.90118">
        <ele>18</ele>
        <time>2018-10-13T12:47:53Z</time>
      </trkpt>
      <trkpt lat="49.01472" lon="1.90107">
        <ele>17</ele>
        <time>2018-10-13T12:48:01Z</time>
      </trkpt>
      <trkpt lat="49.01478" lon="1.90097">
        <ele>17</ele>
        <time>2018-10-13T12:48:08Z</time>
      </trkpt>
      <trkpt lat="49.01486" lon="1.90088">
        <ele>17</ele>
        <time>2018-10-13T12:48:17Z</time>
      </trkpt>
      <trkpt lat="49.01494" lon="1.90082">
        <ele>17</ele>
        <time>2018-10-13T12:48:25Z</time>
      </trkpt>
      <trkpt lat="49.01502" lon="1.90075">
        <ele>17</ele>
        <time>2018-10-13T12:48:32Z</time>
      </trkpt>
      <trkpt lat="49.01508" lon="1.90064">
        <ele>17</ele>
        <time>2018-10-13T12:48:40Z</time>
      </trkpt>
      <trkpt lat="49.01512" lon="1.90051">
        <ele>17</ele>
        <time>2018-10-13T12:48:47Z</time>
      </trkpt>
      <trkpt lat="49.01518" lon="1.90039">
        <ele>17</ele>
        <time>2018-10-13T12:48:54Z</time>
      </trkpt>
      <trkpt lat="49.01525" lon="1.90029">
        <ele>16</ele>
        <time>2018-10-13T12:49:04Z</time>
      </trkpt>
      <trkpt lat="49.0153" lon="1.90017">
        <ele>15</ele>
        <time>2018-10-13T12:49:15Z</time>
      </trkpt>
      <trkpt lat="49.01536" lon="1.90006">
        <ele>15</ele>
        <time>2018-10-13T12:49:22Z</time>
      </trkpt>
      <trkpt lat="49.01543" lon="1.89996">
        <ele>15</ele>
        <time>2018-10-13T12:49:28Z</time>
      </trkpt>
      <trkpt lat="49.0155" lon="1.89986">
        <ele>14</ele>
        <time>2018-10-13T12:49:38Z</time>
      </trkpt>
      <trkpt lat="49.01559" lon="1.89978">
        <ele>13</ele>
        <time>2018-10-13T12:49:46Z</time>
      </trkpt>
      <trkpt lat="49.01568" lon="1.89971">
        <ele>14</ele>
        <time>2018-10-13T12:49:52Z</time>
      </trkpt>
      <trkpt lat="49.01577" lon="1.89966">
        <ele>14</ele>
        <time>2018-10-13T12:50:00Z</time>
      </trkpt>
      <trkpt lat="49.01585" lon="1.8996">
        <ele>14</ele>
        <time>2018-10-13T12:50:08Z</time>
      </trkpt>
      <trkpt lat="49.01591" lon="1.89949">
        <ele>14</ele>
        <time>2018-10-13T12:50:20Z</time>
      </trkpt>
      <trkpt lat="49.01601" lon="1.89947">
        <ele>14</ele>
        <time>2018-10-13T12:50:30Z</time>
      </trkpt>
      <trkpt lat="49.01611" lon="1.89941">
        <ele>14</ele>
        <time>2018-10-13T12:50:36Z</time>
      </trkpt>
      <trkpt lat="49.01621" lon="1.89939">
        <ele>15</ele>
        <time>2018-10-13T12:50:43Z</time>
      </trkpt>
      <trkpt lat="49.01631" lon="1.89936">
        <ele>15</ele>
        <time>2018-10-13T12:50:49Z</time>
      </trkpt>
      <trkpt lat="49.01639" lon="1.8993">
        <ele>15</ele>
        <time>2018-10-13T12:50:59Z</time>
      </trkpt>
      <trkpt lat="49.01648" lon="1.89923">
        <ele>15</ele>
        <time>2018-10-13T12:51:08Z</time>
      </trkpt>
      <trkpt lat="49.01654" lon="1.89913">
        <ele>15</ele>
        <time>2018-10-13T12:51:14Z</time>
      </trkpt>
      <trkpt lat="49.01661" lon="1.89903">
        <ele>16</ele>
        <time>2018-10-13T12:51:22Z</time>
      </trkpt>
      <trkpt lat="49.01668" lon="1.89893">
        <ele>15</ele>
        <time>2018-10-13T12:51:30Z</time>
      </trkpt>
      <trkpt lat="49.01677" lon="1.89888">
        <ele>15</ele>
        <time>2018-10-13T12:51:36Z</time>
      </trkpt>
      <trkpt lat="49.01684" lon="1.89879">
        <ele>16</ele>
        <time>2018-10-13T12:51:43Z</time>
      </trkpt>
      <trkpt lat="49.01692" lon="1.89871">
        <ele>18</ele>
        <time>2018-10-13T12:51:53Z</time>
      </trkpt>
      <trkpt lat="49.01701" lon="1.89862">
        <ele>19</ele>
        <time>2018-10-13T12:52:00Z</time>
      </trkpt>
      <trkpt lat="49.01709" lon="1.89855">
        <ele>19</ele>
        <time>2018-10-13T12:52:10Z</time>
      </trkpt>
      <trkpt lat="49.01718" lon="1.8985">
        <ele>19</ele>
        <time>2018-10-13T12:52:20Z</time>
      </trkpt>
      <trkpt lat="49.01728" lon="1.89844">
        <ele>21</ele>
        <time>2018-10-13T12:52:29Z</time>
      </trkpt>
      <trkpt lat="49.01737" lon="1.89838">
        <ele>22</ele>
        <time>2018-10-13T12:52:37Z</time>
      </trkpt>
      <trkpt lat="49.01745" lon="1.8983">
        <ele>22</ele>
        <time>2018-10-13T12:52:46Z</time>
      </trkpt>
      <trkpt lat="49.01752" lon="1.89819">
        <ele>21</ele>
        <time>2018-10-13T12:52:52Z</time>
      </trkpt>
      <trkpt lat="49.01761" lon="1.89814">
        <ele>21</ele>
        <time>2018-10-13T12:53:01Z</time>
      </trkpt>
      <trkpt lat="49.01769" lon="1.89806">
        <ele>20</ele>
        <time>2018-10-13T12:53:10Z</time>
      </trkpt>
      <trkpt lat="49.01778" lon="1.898">
        <ele>19</ele>
        <time>2018-10-13T12:53:17Z</time>
      </trkpt>
      <trkpt lat="49.01785" lon="1.8979">
        <ele>19</ele>
        <time>2018-10-13T12:53:25Z</time>
      </trkpt>
      <trkpt lat="49.01794" lon="1.89783">
        <ele>18</ele>
        <time>2018-10-13T12:53:34Z</time>
      </trkpt>
      <trkpt lat="49.01803" lon="1.8978">
        <ele>18</ele>
        <time>2018-10-13T12:53:41Z</time>
      </trkpt>
      <trkpt lat="49.01809" lon="1.8977">
        <ele>17</ele>
        <time>2018-10-13T12:53:50Z</time>
      </trkpt>
      <trkpt lat="49.01817" lon="1.89764">
        <ele>16</ele>
        <time>2018-10-13T12:53:59Z</time>
      </trkpt>
      <trkpt lat="49.01825" lon="1.89758">
        <ele>15</ele>
        <time>2018-10-13T12:54:07Z</time>
      </trkpt>
      <trkpt lat="49.01834" lon="1.89751">
        <ele>14</ele>
        <time>2018-10-13T12:54:14Z</time>
      </trkpt>
      <trkpt lat="49.01843" lon="1.89749">
        <ele>14</ele>
        <time>2018-10-13T12:54:20Z</time>
      </trkpt>
      <trkpt lat="49.01851" lon="1.89742">
        <ele>14</ele>
        <time>2018-10-13T12:54:28Z</time>
      </trkpt>
      <trkpt lat="49.01859" lon="1.89737">
        <ele>14</ele>
        <time>2018-10-13T12:54:34Z</time>
      </trkpt>
      <trkpt lat="49.01868" lon="1.89729">
        <ele>14</ele>
        <time>2018-10-13T12:54:42Z</time>
      </trkpt>
      <trkpt lat="49.01878" lon="1.89728">
        <ele>15</ele>
        <time>2018-10-13T12:54:53Z</time>
      </trkpt>
      <trkpt lat="49.01885" lon="1.89736">
        <ele>16</ele>
        <time>2018-10-13T12:55:39Z</time>
      </trkpt>
      <trkpt lat="49.01888" lon="1.89749">
        <ele>15</ele>
        <time>2018-10-13T12:56:37Z</time>
      </trkpt>
      <trkpt lat="49.01888" lon="1.89736">
        <ele>15</ele>
        <time>2018-10-13T12:57:05Z</time>
      </trkpt>
      <trkpt lat="49.01892" lon="1.89723">
        <ele>18</ele>
        <time>2018-10-13T12:59:49Z</time>
      </trkpt>
      <trkpt lat="49.01901" lon="1.89715">
        <ele>19</ele>
        <time>2018-10-13T12:59:59Z</time>
      </trkpt>
      <trkpt lat="49.01891" lon="1.89718">
        <ele>18</ele>
        <time>2018-10-13T13:00:25Z</time>
      </trkpt>
      <trkpt lat="49.01883" lon="1.89725">
        <ele>16</ele>
        <time>2018-10-13T13:00:36Z</time>
      </trkpt>
      <trkpt lat="49.01878" lon="1.89714">
        <ele>13</ele>
        <time>2018-10-13T13:00:52Z</time>
      </trkpt>
      <trkpt lat="49.01873" lon="1.89702">
        <ele>12</ele>
        <time>2018-10-13T13:01:00Z</time>
      </trkpt>
      <trkpt lat="49.01869" lon="1.89689">
        <ele>11</ele>
        <time>2018-10-13T13:01:08Z</time>
      </trkpt>
      <trkpt lat="49.01865" lon="1.89676">
        <ele>12</ele>
        <time>2018-10-13T13:01:14Z</time>
      </trkpt>
      <trkpt lat="49.01863" lon="1.89663">
        <ele>13</ele>
        <time>2018-10-13T13:01:25Z</time>
      </trkpt>
      <trkpt lat="49.0187" lon="1.89652">
        <ele>13</ele>
        <time>2018-10-13T13:01:38Z</time>
      </trkpt>
      <trkpt lat="49.01879" lon="1.89646">
        <ele>14</ele>
        <time>2018-10-13T13:01:46Z</time>
      </trkpt>
      <trkpt lat="49.01887" lon="1.89641">
        <ele>14</ele>
        <time>2018-10-13T13:01:53Z</time>
      </trkpt>
      <trkpt lat="49.01896" lon="1.89634">
        <ele>14</ele>
        <time>2018-10-13T13:01:59Z</time>
      </trkpt>
      <trkpt lat="49.01903" lon="1.89625">
        <ele>14</ele>
        <time>2018-10-13T13:02:06Z</time>
      </trkpt>
      <trkpt lat="49.01911" lon="1.89616">
        <ele>15</ele>
        <time>2018-10-13T13:02:15Z</time>
      </trkpt>
      <trkpt lat="49.01919" lon="1.89607">
        <ele>15</ele>
        <time>2018-10-13T13:02:28Z</time>
      </trkpt>
      <trkpt lat="49.01926" lon="1.89597">
        <ele>15</ele>
        <time>2018-10-13T13:02:34Z</time>
      </trkpt>
      <trkpt lat="49.01934" lon="1.89587">
        <ele>15</ele>
        <time>2018-10-13T13:02:40Z</time>
      </trkpt>
      <trkpt lat="49.0194" lon="1.89575">
        <ele>15</ele>
        <time>2018-10-13T13:02:46Z</time>
      </trkpt>
      <trkpt lat="49.01946" lon="1.89565">
        <ele>14</ele>
        <time>2018-10-13T13:02:53Z</time>
      </trkpt>
      <trkpt lat="49.01951" lon="1.89553">
        <ele>13</ele>
        <time>2018-10-13T13:03:01Z</time>
      </trkpt>
      <trkpt lat="49.01956" lon="1.8954">
        <ele>13</ele>
        <time>2018-10-13T13:03:07Z</time>
      </trkpt>
      <trkpt lat="49.01961" lon="1.89527">
        <ele>13</ele>
        <time>2018-10-13T13:03:15Z</time>
      </trkpt>
      <trkpt lat="49.01961" lon="1.89513">
        <ele>13</ele>
        <time>2018-10-13T13:03:27Z</time>
      </trkpt>
      <trkpt lat="49.01964" lon="1.89526">
        <ele>21</ele>
        <time>2018-10-13T13:05:01Z</time>
      </trkpt>
      <trkpt lat="49.01974" lon="1.89525">
        <ele>21</ele>
        <time>2018-10-13T13:05:19Z</time>
      </trkpt>
      <trkpt lat="49.01983" lon="1.89531">
        <ele>20</ele>
        <time>2018-10-13T13:05:31Z</time>
      </trkpt>
      <trkpt lat="49.01992" lon="1.89534">
        <ele>21</ele>
        <time>2018-10-13T13:05:41Z</time>
      </trkpt>
      <trkpt lat="49.02001" lon="1.8954">
        <ele>21</ele>
        <time>2018-10-13T13:05:56Z</time>
      </trkpt>
      <trkpt lat="49.0201" lon="1.89544">
        <ele>22</ele>
        <time>2018-10-13T13:06:07Z</time>
      </trkpt>
      <trkpt lat="49.02019" lon="1.8955">
        <ele>24</ele>
        <time>2018-10-13T13:06:21Z</time>
      </trkpt>
      <trkpt lat="49.02028" lon="1.89552">
        <ele>26</ele>
        <time>2018-10-13T13:06:31Z</time>
      </trkpt>
      <trkpt lat="49.02036" lon="1.89545">
        <ele>27</ele>
        <time>2018-10-13T13:06:40Z</time>
      </trkpt>
      <trkpt lat="49.02043" lon="1.89536">
        <ele>28</ele>
        <time>2018-10-13T13:06:47Z</time>
      </trkpt>
      <trkpt lat="49.02052" lon="1.89528">
        <ele>29</ele>
        <time>2018-10-13T13:06:58Z</time>
      </trkpt>
      <trkpt lat="49.02061" lon="1.89521">
        <ele>30</ele>
        <time>2018-10-13T13:07:07Z</time>
      </trkpt>
      <trkpt lat="49.02069" lon="1.89515">
        <ele>30</ele>
        <time>2018-10-13T13:07:15Z</time>
      </trkpt>
      <trkpt lat="49.02078" lon="1.8951">
        <ele>33</ele>
        <time>2018-10-13T13:07:24Z</time>
      </trkpt>
      <trkpt lat="49.02087" lon="1.89506">
        <ele>34</ele>
        <time>2018-10-13T13:07:34Z</time>
      </trkpt>
      <trkpt lat="49.02095" lon="1.895">
        <ele>36</ele>
        <time>2018-10-13T13:07:58Z</time>
      </trkpt>
      <trkpt lat="49.02103" lon="1.89492">
        <ele>37</ele>
        <time>2018-10-13T13:08:15Z</time>
      </trkpt>
      <trkpt lat="49.02109" lon="1.8948">
        <ele>37</ele>
        <time>2018-10-13T13:08:22Z</time>
      </trkpt>
      <trkpt lat="49.02114" lon="1.89467">
        <ele>38</ele>
        <time>2018-10-13T13:08:31Z</time>
      </trkpt>
      <trkpt lat="49.02118" lon="1.89454">
        <ele>39</ele>
        <time>2018-10-13T13:08:39Z</time>
      </trkpt>
      <trkpt lat="49.02124" lon="1.89443">
        <ele>39</ele>
        <time>2018-10-13T13:08:47Z</time>
      </trkpt>
      <trkpt lat="49.02131" lon="1.89432">
        <ele>39</ele>
        <time>2018-10-13T13:08:57Z</time>
      </trkpt>
      <trkpt lat="49.02138" lon="1.89422">
        <ele>41</ele>
        <time>2018-10-13T13:09:06Z</time>
      </trkpt>
      <trkpt lat="49.02148" lon="1.89417">
        <ele>43</ele>
        <time>2018-10-13T13:09:15Z</time>
      </trkpt>
      <trkpt lat="49.02157" lon="1.89419">
        <ele>44</ele>
        <time>2018-10-13T13:09:24Z</time>
      </trkpt>
      <trkpt lat="49.02166" lon="1.89426">
        <ele>45</ele>
        <time>2018-10-13T13:09:35Z</time>
      </trkpt>
      <trkpt lat="49.02173" lon="1.89433">
        <ele>48</ele>
        <time>2018-10-13T13:09:50Z</time>
      </trkpt>
      <trkpt lat="49.02182" lon="1.89439">
        <ele>50</ele>
        <time>2018-10-13T13:10:01Z</time>
      </trkpt>
      <trkpt lat="49.02191" lon="1.8944">
        <ele>51</ele>
        <time>2018-10-13T13:10:11Z</time>
      </trkpt>
      <trkpt lat="49.02201" lon="1.89438">
        <ele>52</ele>
        <time>2018-10-13T13:10:22Z</time>
      </trkpt>
      <trkpt lat="49.02211" lon="1.89436">
        <ele>53</ele>
        <time>2018-10-13T13:10:31Z</time>
      </trkpt>
      <trkpt lat="49.0222" lon="1.89435">
        <ele>53</ele>
        <time>2018-10-13T13:10:38Z</time>
      </trkpt>
      <trkpt lat="49.0223" lon="1.89433">
        <ele>53</ele>
        <time>2018-10-13T13:10:47Z</time>
      </trkpt>
      <trkpt lat="49.02239" lon="1.89432">
        <ele>54</ele>
        <time>2018-10-13T13:10:55Z</time>
      </trkpt>
      <trkpt lat="49.02248" lon="1.89436">
        <ele>55</ele>
        <time>2018-10-13T13:11:04Z</time>
      </trkpt>
      <trkpt lat="49.02258" lon="1.89438">
        <ele>59</ele>
        <time>2018-10-13T13:12:12Z</time>
      </trkpt>
      <trkpt lat="49.02267" lon="1.89431">
        <ele>60</ele>
        <time>2018-10-13T13:12:18Z</time>
      </trkpt>
      <trkpt lat="49.02275" lon="1.89424">
        <ele>60</ele>
        <time>2018-10-13T13:12:28Z</time>
      </trkpt>
      <trkpt lat="49.02285" lon="1.89423">
        <ele>61</ele>
        <time>2018-10-13T13:12:38Z</time>
      </trkpt>
      <trkpt lat="49.02295" lon="1.89421">
        <ele>62</ele>
        <time>2018-10-13T13:12:46Z</time>
      </trkpt>
      <trkpt lat="49.02305" lon="1.89418">
        <ele>62</ele>
        <time>2018-10-13T13:12:52Z</time>
      </trkpt>
      <trkpt lat="49.02313" lon="1.89412">
        <ele>62</ele>
        <time>2018-10-13T13:13:00Z</time>
      </trkpt>
      <trkpt lat="49.02322" lon="1.89407">
        <ele>62</ele>
        <time>2018-10-13T13:13:07Z</time>
      </trkpt>
      <trkpt lat="49.02331" lon="1.89404">
        <ele>62</ele>
        <time>2018-10-13T13:13:14Z</time>
      </trkpt>
      <trkpt lat="49.0234" lon="1.89401">
        <ele>61</ele>
        <time>2018-10-13T13:13:22Z</time>
      </trkpt>
      <trkpt lat="49.02349" lon="1.89395">
        <ele>61</ele>
        <time>2018-10-13T13:13:30Z</time>
      </trkpt>
      <trkpt lat="49.02359" lon="1.89391">
        <ele>60</ele>
        <time>2018-10-13T13:13:45Z</time>
      </trkpt>
      <trkpt lat="49.02368" lon="1.8939">
        <ele>60</ele>
        <time>2018-10-13T13:13:54Z</time>
      </trkpt>
      <trkpt lat="49.02377" lon="1.89389">
        <ele>60</ele>
        <time>2018-10-13T13:14:00Z</time>
      </trkpt>
      <trkpt lat="49.02387" lon="1.89389">
        <ele>60</ele>
        <time>2018-10-13T13:14:07Z</time>
      </trkpt>
      <trkpt lat="49.02396" lon="1.89389">
        <ele>60</ele>
        <time>2018-10-13T13:14:16Z</time>
      </trkpt>
      <trkpt lat="49.02406" lon="1.89386">
        <ele>61</ele>
        <time>2018-10-13T13:14:24Z</time>
      </trkpt>
      <trkpt lat="49.02414" lon="1.8938">
        <ele>61</ele>
        <time>2018-10-13T13:14:31Z</time>
      </trkpt>
      <trkpt lat="49.02423" lon="1.8937">
        <ele>61</ele>
        <time>2018-10-13T13:14:36Z</time>
      </trkpt>
      <trkpt lat="49.0243" lon="1.8936">
        <ele>60</ele>
        <time>2018-10-13T13:14:43Z</time>
      </trkpt>
      <trkpt lat="49.02437" lon="1.89351">
        <ele>58</ele>
        <time>2018-10-13T13:14:53Z</time>
      </trkpt>
      <trkpt lat="49.02445" lon="1.89343">
        <ele>56</ele>
        <time>2018-10-13T13:15:01Z</time>
      </trkpt>
      <trkpt lat="49.02451" lon="1.89331">
        <ele>55</ele>
        <time>2018-10-13T13:15:11Z</time>
      </trkpt>
      <trkpt lat="49.02456" lon="1.89318">
        <ele>54</ele>
        <time>2018-10-13T13:15:16Z</time>
      </trkpt>
      <trkpt lat="49.0246" lon="1.89304">
        <ele>52</ele>
        <time>2018-10-13T13:15:23Z</time>
      </trkpt>
      <trkpt lat="49.02463" lon="1.89289">
        <ele>51</ele>
        <time>2018-10-13T13:15:30Z</time>
      </trkpt>
      <trkpt lat="49.02467" lon="1.89274">
        <ele>50</ele>
        <time>2018-10-13T13:15:38Z</time>
      </trkpt>
      <trkpt lat="49.02466" lon="1.8926">
        <ele>48</ele>
        <time>2018-10-13T13:15:52Z</time>
      </trkpt>
      <trkpt lat="49.02462" lon="1.89248">
        <ele>45</ele>
        <time>2018-10-13T13:16:30Z</time>
      </trkpt>
      <trkpt lat="49.02472" lon="1.89246">
        <ele>42</ele>
        <time>2018-10-13T13:17:09Z</time>
      </trkpt>
      <trkpt lat="49.0248" lon="1.89253">
        <ele>41</ele>
        <time>2018-10-13T13:17:17Z</time>
      </trkpt>
      <trkpt lat="49.0249" lon="1.89258">
        <ele>41</ele>
        <time>2018-10-13T13:17:25Z</time>
      </trkpt>
      <trkpt lat="49.02499" lon="1.89253">
        <ele>41</ele>
        <time>2018-10-13T13:17:31Z</time>
      </trkpt>
      <trkpt lat="49.02508" lon="1.89248">
        <ele>39</ele>
        <time>2018-10-13T13:17:39Z</time>
      </trkpt>
      <trkpt lat="49.0251" lon="1.89234">
        <ele>36</ele>
        <time>2018-10-13T13:17:55Z</time>
      </trkpt>
      <trkpt lat="49.02515" lon="1.89221">
        <ele>36</ele>
        <time>2018-10-13T13:18:03Z</time>
      </trkpt>
      <trkpt lat="49.0252" lon="1.89209">
        <ele>35</ele>
        <time>2018-10-13T13:18:10Z</time>
      </trkpt>
      <trkpt lat="49.02527" lon="1.89198">
        <ele>35</ele>
        <time>2018-10-13T13:18:18Z</time>
      </trkpt>
      <trkpt lat="49.02533" lon="1.89186">
        <ele>35</ele>
        <time>2018-10-13T13:18:27Z</time>
      </trkpt>
      <trkpt lat="49.02537" lon="1.89173">
        <ele>35</ele>
        <time>2018-10-13T13:18:35Z</time>
      </trkpt>
      <trkpt lat="49.02542" lon="1.89161">
        <ele>36</ele>
        <time>2018-10-13T13:18:43Z</time>
      </trkpt>
      <trkpt lat="49.02546" lon="1.89148">
        <ele>36</ele>
        <time>2018-10-13T13:18:50Z</time>
      </trkpt>
      <trkpt lat="49.02553" lon="1.89137">
        <ele>37</ele>
        <time>2018-10-13T13:19:00Z</time>
      </trkpt>
      <trkpt lat="49.0256" lon="1.89127">
        <ele>37</ele>
        <time>2018-10-13T13:19:08Z</time>
      </trkpt>
      <trkpt lat="49.02566" lon="1.89116">
        <ele>37</ele>
        <time>2018-10-13T13:19:17Z</time>
      </trkpt>
      <trkpt lat="49.02573" lon="1.89105">
        <ele>38</ele>
        <time>2018-10-13T13:19:24Z</time>
      </trkpt>
      <trkpt lat="49.02578" lon="1.89093">
        <ele>38</ele>
        <time>2018-10-13T13:19:31Z</time>
      </trkpt>
      <trkpt lat="49.02584" lon="1.89083">
        <ele>39</ele>
        <time>2018-10-13T13:19:42Z</time>
      </trkpt>
      <trkpt lat="49.02591" lon="1.89073">
        <ele>40</ele>
        <time>2018-10-13T13:19:51Z</time>
      </trkpt>
      <trkpt lat="49.02598" lon="1.89064">
        <ele>40</ele>
        <time>2018-10-13T13:20:00Z</time>
      </trkpt>
      <trkpt lat="49.02605" lon="1.89053">
        <ele>40</ele>
        <time>2018-10-13T13:20:09Z</time>
      </trkpt>
      <trkpt lat="49.02612" lon="1.89044">
        <ele>40</ele>
        <time>2018-10-13T13:20:17Z</time>
      </trkpt>
      <trkpt lat="49.02617" lon="1.89031">
        <ele>42</ele>
        <time>2018-10-13T13:20:27Z</time>
      </trkpt>
      <trkpt lat="49.02619" lon="1.89018">
        <ele>43</ele>
        <time>2018-10-13T13:20:35Z</time>
      </trkpt>
      <trkpt lat="49.02621" lon="1.89004">
        <ele>44</ele>
        <time>2018-10-13T13:20:43Z</time>
      </trkpt>
      <trkpt lat="49.02622" lon="1.8899">
        <ele>47</ele>
        <time>2018-10-13T13:20:53Z</time>
      </trkpt>
      <trkpt lat="49.0262" lon="1.88975">
        <ele>49</ele>
        <time>2018-10-13T13:21:01Z</time>
      </trkpt>
      <trkpt lat="49.02619" lon="1.8896">
        <ele>52</ele>
        <time>2018-10-13T13:21:11Z</time>
      </trkpt>
      <trkpt lat="49.02622" lon="1.88946">
        <ele>55</ele>
        <time>2018-10-13T13:21:19Z</time>
      </trkpt>
      <trkpt lat="49.02625" lon="1.88932">
        <ele>57</ele>
        <time>2018-10-13T13:21:28Z</time>
      </trkpt>
      <trkpt lat="49.02627" lon="1.88918">
        <ele>58</ele>
        <time>2018-10-13T13:21:38Z</time>
      </trkpt>
      <trkpt lat="49.0263" lon="1.88904">
        <ele>60</ele>
        <time>2018-10-13T13:21:48Z</time>
      </trkpt>
      <trkpt lat="49.02632" lon="1.8889">
        <ele>60</ele>
        <time>2018-10-13T13:21:56Z</time>
      </trkpt>
      <trkpt lat="49.02638" lon="1.88877">
        <ele>61</ele>
        <time>2018-10-13T13:22:03Z</time>
      </trkpt>
      <trkpt lat="49.02645" lon="1.88868">
        <ele>62</ele>
        <time>2018-10-13T13:22:13Z</time>
      </trkpt>
      <trkpt lat="49.02649" lon="1.88855">
        <ele>63</ele>
        <time>2018-10-13T13:22:22Z</time>
      </trkpt>
      <trkpt lat="49.02654" lon="1.88841">
        <ele>65</ele>
        <time>2018-10-13T13:22:28Z</time>
      </trkpt>
      <trkpt lat="49.02659" lon="1.88829">
        <ele>66</ele>
        <time>2018-10-13T13:22:36Z</time>
      </trkpt>
      <trkpt lat="49.02664" lon="1.88818">
        <ele>68</ele>
        <time>2018-10-13T13:22:43Z</time>
      </trkpt>
      <trkpt lat="49.0267" lon="1.88808">
        <ele>69</ele>
        <time>2018-10-13T13:22:50Z</time>
      </trkpt>
      <trkpt lat="49.02677" lon="1.88797">
        <ele>70</ele>
        <time>2018-10-13T13:22:58Z</time>
      </trkpt>
      <trkpt lat="49.02684" lon="1.88788">
        <ele>70</ele>
        <time>2018-10-13T13:23:06Z</time>
      </trkpt>
      <trkpt lat="49.02691" lon="1.88777">
        <ele>70</ele>
        <time>2018-10-13T13:23:13Z</time>
      </trkpt>
      <trkpt lat="49.02697" lon="1.88764">
        <ele>70</ele>
        <time>2018-10-13T13:23:20Z</time>
      </trkpt>
      <trkpt lat="49.02702" lon="1.88752">
        <ele>69</ele>
        <time>2018-10-13T13:23:29Z</time>
      </trkpt>
      <trkpt lat="49.02705" lon="1.8874">
        <ele>69</ele>
        <time>2018-10-13T13:26:00Z</time>
      </trkpt>
      <trkpt lat="49.0271" lon="1.88727">
        <ele>69</ele>
        <time>2018-10-13T13:26:13Z</time>
      </trkpt>
      <trkpt lat="49.02716" lon="1.88716">
        <ele>69</ele>
        <time>2018-10-13T13:26:21Z</time>
      </trkpt>
      <trkpt lat="49.0272" lon="1.88703">
        <ele>69</ele>
        <time>2018-10-13T13:26:31Z</time>
      </trkpt>
      <trkpt lat="49.02724" lon="1.88688">
        <ele>69</ele>
        <time>2018-10-13T13:26:40Z</time>
      </trkpt>
      <trkpt lat="49.02728" lon="1.88675">
        <ele>68</ele>
        <time>2018-10-13T13:26:47Z</time>
      </trkpt>
      <trkpt lat="49.02732" lon="1.88663">
        <ele>68</ele>
        <time>2018-10-13T13:26:56Z</time>
      </trkpt>
      <trkpt lat="49.02734" lon="1.88649">
        <ele>66</ele>
        <time>2018-10-13T13:27:07Z</time>
      </trkpt>
      <trkpt lat="49.02737" lon="1.88635">
        <ele>65</ele>
        <time>2018-10-13T13:27:16Z</time>
      </trkpt>
      <trkpt lat="49.02741" lon="1.88622">
        <ele>64</ele>
        <time>2018-10-13T13:27:24Z</time>
      </trkpt>
      <trkpt lat="49.02741" lon="1.88606">
        <ele>62</ele>
        <time>2018-10-13T13:27:33Z</time>
      </trkpt>
      <trkpt lat="49.02741" lon="1.88592">
        <ele>60</ele>
        <time>2018-10-13T13:27:41Z</time>
      </trkpt>
      <trkpt lat="49.0274" lon="1.88576">
        <ele>58</ele>
        <time>2018-10-13T13:27:49Z</time>
      </trkpt>
      <trkpt lat="49.02741" lon="1.88561">
        <ele>57</ele>
        <time>2018-10-13T13:27:57Z</time>
      </trkpt>
      <trkpt lat="49.02741" lon="1.88546">
        <ele>56</ele>
        <time>2018-10-13T13:28:05Z</time>
      </trkpt>
      <trkpt lat="49.02737" lon="1.88534">
        <ele>55</ele>
        <time>2018-10-13T13:28:11Z</time>
      </trkpt>
      <trkpt lat="49.02736" lon="1.88519">
        <ele>54</ele>
        <time>2018-10-13T13:28:18Z</time>
      </trkpt>
      <trkpt lat="49.02736" lon="1.88504">
        <ele>53</ele>
        <time>2018-10-13T13:28:26Z</time>
      </trkpt>
      <trkpt lat="49.02734" lon="1.8849">
        <ele>51</ele>
        <time>2018-10-13T13:28:33Z</time>
      </trkpt>
      <trkpt lat="49.02732" lon="1.88474">
        <ele>50</ele>
        <time>2018-10-13T13:28:42Z</time>
      </trkpt>
      <trkpt lat="49.02728" lon="1.88463">
        <ele>51</ele>
        <time>2018-10-13T13:28:48Z</time>
      </trkpt>
      <trkpt lat="49.02724" lon="1.88449">
        <ele>51</ele>
        <time>2018-10-13T13:28:55Z</time>
      </trkpt>
      <trkpt lat="49.0272" lon="1.88436">
        <ele>52</ele>
        <time>2018-10-13T13:29:02Z</time>
      </trkpt>
      <trkpt lat="49.02718" lon="1.88422">
        <ele>54</ele>
        <time>2018-10-13T13:29:10Z</time>
      </trkpt>
      <trkpt lat="49.02716" lon="1.88408">
        <ele>55</ele>
        <time>2018-10-13T13:29:18Z</time>
      </trkpt>
      <trkpt lat="49.02714" lon="1.88393">
        <ele>55</ele>
        <time>2018-10-13T13:29:26Z</time>
      </trkpt>
      <trkpt lat="49.02711" lon="1.88379">
        <ele>55</ele>
        <time>2018-10-13T13:29:35Z</time>
      </trkpt>
      <trkpt lat="49.0271" lon="1.88363">
        <ele>56</ele>
        <time>2018-10-13T13:29:42Z</time>
      </trkpt>
      <trkpt lat="49.02708" lon="1.88348">
        <ele>57</ele>
        <time>2018-10-13T13:29:50Z</time>
      </trkpt>
      <trkpt lat="49.02706" lon="1.88333">
        <ele>58</ele>
        <time>2018-10-13T13:29:57Z</time>
      </trkpt>
      <trkpt lat="49.02705" lon="1.88319">
        <ele>60</ele>
        <time>2018-10-13T13:30:04Z</time>
      </trkpt>
      <trkpt lat="49.02708" lon="1.88304">
        <ele>60</ele>
        <time>2018-10-13T13:30:12Z</time>
      </trkpt>
      <trkpt lat="49.02708" lon="1.8829">
        <ele>61</ele>
        <time>2018-10-13T13:30:20Z</time>
      </trkpt>
      <trkpt lat="49.02707" lon="1.88275">
        <ele>61</ele>
        <time>2018-10-13T13:30:28Z</time>
      </trkpt>
      <trkpt lat="49.02705" lon="1.88261">
        <ele>61</ele>
        <time>2018-10-13T13:30:34Z</time>
      </trkpt>
      <trkpt lat="49.02704" lon="1.88246">
        <ele>62</ele>
        <time>2018-10-13T13:30:40Z</time>
      </trkpt>
      <trkpt lat="49.02704" lon="1.88232">
        <ele>63</ele>
        <time>2018-10-13T13:30:47Z</time>
      </trkpt>
      <trkpt lat="49.02705" lon="1.88217">
        <ele>64</ele>
        <time>2018-10-13T13:30:55Z</time>
      </trkpt>
      <trkpt lat="49.02705" lon="1.88203">
        <ele>65</ele>
        <time>2018-10-13T13:31:03Z</time>
      </trkpt>
      <trkpt lat="49.02709" lon="1.88188">
        <ele>65</ele>
        <time>2018-10-13T13:31:11Z</time>
      </trkpt>
      <trkpt lat="49.02709" lon="1.88174">
        <ele>65</ele>
        <time>2018-10-13T13:31:18Z</time>
      </trkpt>
      <trkpt lat="49.02711" lon="1.88159">
        <ele>65</ele>
        <time>2018-10-13T13:31:27Z</time>
      </trkpt>
      <trkpt lat="49.02713" lon="1.88145">
        <ele>66</ele>
        <time>2018-10-13T13:31:34Z</time>
      </trkpt>
      <trkpt lat="49.02715" lon="1.88131">
        <ele>67</ele>
        <time>2018-10-13T13:31:40Z</time>
      </trkpt>
      <trkpt lat="49.02717" lon="1.88117">
        <ele>68</ele>
        <time>2018-10-13T13:31:47Z</time>
      </trkpt>
      <trkpt lat="49.0272" lon="1.88104">
        <ele>68</ele>
        <time>2018-10-13T13:31:54Z</time>
      </trkpt>
      <trkpt lat="49.02721" lon="1.88089">
        <ele>69</ele>
        <time>2018-10-13T13:32:01Z</time>
      </trkpt>
      <trkpt lat="49.02723" lon="1.88074">
        <ele>69</ele>
        <time>2018-10-13T13:32:11Z</time>
      </trkpt>
      <trkpt lat="49.02724" lon="1.8806">
        <ele>70</ele>
        <time>2018-10-13T13:32:16Z</time>
      </trkpt>
      <trkpt lat="49.02725" lon="1.88045">
        <ele>71</ele>
        <time>2018-10-13T13:32:24Z</time>
      </trkpt>
      <trkpt lat="49.02729" lon="1.88032">
        <ele>71</ele>
        <time>2018-10-13T13:32:33Z</time>
      </trkpt>
      <trkpt lat="49.02731" lon="1.88018">
        <ele>72</ele>
        <time>2018-10-13T13:32:39Z</time>
      </trkpt>
      <trkpt lat="49.02735" lon="1.88005">
        <ele>72</ele>
        <time>2018-10-13T13:32:46Z</time>
      </trkpt>
      <trkpt lat="49.02737" lon="1.8799">
        <ele>73</ele>
        <time>2018-10-13T13:32:54Z</time>
      </trkpt>
      <trkpt lat="49.02739" lon="1.87975">
        <ele>74</ele>
        <time>2018-10-13T13:33:01Z</time>
      </trkpt>
      <trkpt lat="49.02742" lon="1.87962">
        <ele>74</ele>
        <time>2018-10-13T13:33:09Z</time>
      </trkpt>
      <trkpt lat="49.02747" lon="1.87948">
        <ele>75</ele>
        <time>2018-10-13T13:33:16Z</time>
      </trkpt>
      <trkpt lat="49.02751" lon="1.87935">
        <ele>75</ele>
        <time>2018-10-13T13:33:23Z</time>
      </trkpt>
      <trkpt lat="49.02752" lon="1.8792">
        <ele>75</ele>
        <time>2018-10-13T13:33:31Z</time>
      </trkpt>
      <trkpt lat="49.02756" lon="1.87906">
        <ele>75</ele>
        <time>2018-10-13T13:33:39Z</time>
      </trkpt>
      <trkpt lat="49.02761" lon="1.87892">
        <ele>75</ele>
        <time>2018-10-13T13:33:46Z</time>
      </trkpt>
      <trkpt lat="49.02764" lon="1.87878">
        <ele>75</ele>
        <time>2018-10-13T13:33:55Z</time>
      </trkpt>
      <trkpt lat="49.02769" lon="1.87865">
        <ele>75</ele>
        <time>2018-10-13T13:34:02Z</time>
      </trkpt>
      <trkpt lat="49.02774" lon="1.87852">
        <ele>75</ele>
        <time>2018-10-13T13:34:09Z</time>
      </trkpt>
      <trkpt lat="49.0278" lon="1.87841">
        <ele>76</ele>
        <time>2018-10-13T13:34:16Z</time>
      </trkpt>
      <trkpt lat="49.02785" lon="1.87829">
        <ele>75</ele>
        <time>2018-10-13T13:34:24Z</time>
      </trkpt>
      <trkpt lat="49.0279" lon="1.87816">
        <ele>75</ele>
        <time>2018-10-13T13:34:32Z</time>
      </trkpt>
      <trkpt lat="49.02794" lon="1.87802">
        <ele>75</ele>
        <time>2018-10-13T13:34:40Z</time>
      </trkpt>
      <trkpt lat="49.02798" lon="1.87789">
        <ele>74</ele>
        <time>2018-10-13T13:34:48Z</time>
      </trkpt>
      <trkpt lat="49.02803" lon="1.87777">
        <ele>74</ele>
        <time>2018-10-13T13:34:56Z</time>
      </trkpt>
      <trkpt lat="49.02809" lon="1.87765">
        <ele>73</ele>
        <time>2018-10-13T13:35:04Z</time>
      </trkpt>
      <trkpt lat="49.02812" lon="1.87752">
        <ele>73</ele>
        <time>2018-10-13T13:35:11Z</time>
      </trkpt>
      <trkpt lat="49.02817" lon="1.87739">
        <ele>73</ele>
        <time>2018-10-13T13:35:18Z</time>
      </trkpt>
      <trkpt lat="49.02823" lon="1.87728">
        <ele>73</ele>
        <time>2018-10-13T13:35:24Z</time>
      </trkpt>
      <trkpt lat="49.02829" lon="1.87717">
        <ele>73</ele>
        <time>2018-10-13T13:35:31Z</time>
      </trkpt>
      <trkpt lat="49.02836" lon="1.87705">
        <ele>73</ele>
        <time>2018-10-13T13:35:39Z</time>
      </trkpt>
      <trkpt lat="49.02842" lon="1.87695">
        <ele>72</ele>
        <time>2018-10-13T13:35:47Z</time>
      </trkpt>
      <trkpt lat="49.02848" lon="1.87683">
        <ele>71</ele>
        <time>2018-10-13T13:35:55Z</time>
      </trkpt>
      <trkpt lat="49.02855" lon="1.87673">
        <ele>70</ele>
        <time>2018-10-13T13:36:02Z</time>
      </trkpt>
      <trkpt lat="49.02861" lon="1.87661">
        <ele>69</ele>
        <time>2018-10-13T13:36:10Z</time>
      </trkpt>
      <trkpt lat="49.02868" lon="1.87651">
        <ele>69</ele>
        <time>2018-10-13T13:36:19Z</time>
      </trkpt>
      <trkpt lat="49.02875" lon="1.87642">
        <ele>68</ele>
        <time>2018-10-13T13:36:25Z</time>
      </trkpt>
      <trkpt lat="49.02883" lon="1.87634">
        <ele>70</ele>
        <time>2018-10-13T13:40:05Z</time>
      </trkpt>
      <trkpt lat="49.02893" lon="1.87634">
        <ele>68</ele>
        <time>2018-10-13T13:40:16Z</time>
      </trkpt>
      <trkpt lat="49.02903" lon="1.87635">
        <ele>67</ele>
        <time>2018-10-13T13:40:25Z</time>
      </trkpt>
      <trkpt lat="49.02912" lon="1.87633">
        <ele>66</ele>
        <time>2018-10-13T13:40:33Z</time>
      </trkpt>
      <trkpt lat="49.02921" lon="1.87632">
        <ele>66</ele>
        <time>2018-10-13T13:40:43Z</time>
      </trkpt>
      <trkpt lat="49.02931" lon="1.8763">
        <ele>66</ele>
        <time>2018-10-13T13:40:52Z</time>
      </trkpt>
      <trkpt lat="49.02941" lon="1.87633">
        <ele>66</ele>
        <time>2018-10-13T13:40:59Z</time>
      </trkpt>
      <trkpt lat="49.02951" lon="1.87633">
        <ele>68</ele>
        <time>2018-10-13T13:41:09Z</time>
      </trkpt>
      <trkpt lat="49.0296" lon="1.87635">
        <ele>70</ele>
        <time>2018-10-13T13:41:19Z</time>
      </trkpt>
      <trkpt lat="49.02969" lon="1.87638">
        <ele>72</ele>
        <time>2018-10-13T13:41:29Z</time>
      </trkpt>
      <trkpt lat="49.02978" lon="1.8764">
        <ele>74</ele>
        <time>2018-10-13T13:41:38Z</time>
      </trkpt>
      <trkpt lat="49.02988" lon="1.87639">
        <ele>77</ele>
        <time>2018-10-13T13:41:47Z</time>
      </trkpt>
      <trkpt lat="49.02998" lon="1.8764">
        <ele>78</ele>
        <time>2018-10-13T13:41:54Z</time>
      </trkpt>
      <trkpt lat="49.03007" lon="1.87641">
        <ele>80</ele>
        <time>2018-10-13T13:42:04Z</time>
      </trkpt>
      <trkpt lat="49.03017" lon="1.87644">
        <ele>82</ele>
        <time>2018-10-13T13:42:11Z</time>
      </trkpt>
      <trkpt lat="49.03025" lon="1.87653">
        <ele>84</ele>
        <time>2018-10-13T13:42:20Z</time>
      </trkpt>
      <trkpt lat="49.03034" lon="1.87656">
        <ele>84</ele>
        <time>2018-10-13T13:42:26Z</time>
      </trkpt>
      <trkpt lat="49.03044" lon="1.87656">
        <ele>85</ele>
        <time>2018-10-13T13:42:33Z</time>
      </trkpt>
      <trkpt lat="49.03054" lon="1.87655">
        <ele>86</ele>
        <time>2018-10-13T13:42:41Z</time>
      </trkpt>
      <trkpt lat="49.03063" lon="1.87656">
        <ele>87</ele>
        <time>2018-10-13T13:42:50Z</time>
      </trkpt>
      <trkpt lat="49.03072" lon="1.87662">
        <ele>89</ele>
        <time>2018-10-13T13:42:59Z</time>
      </trkpt>
      <trkpt lat="49.03082" lon="1.87668">
        <ele>89</ele>
        <time>2018-10-13T13:43:07Z</time>
      </trkpt>
      <trkpt lat="49.03091" lon="1.87672">
        <ele>89</ele>
        <time>2018-10-13T13:43:12Z</time>
      </trkpt>
      <trkpt lat="49.031" lon="1.87677">
        <ele>89</ele>
        <time>2018-10-13T13:43:21Z</time>
      </trkpt>
      <trkpt lat="49.03108" lon="1.87684">
        <ele>88</ele>
        <time>2018-10-13T13:43:29Z</time>
      </trkpt>
      <trkpt lat="49.03116" lon="1.87693">
        <ele>87</ele>
        <time>2018-10-13T13:43:37Z</time>
      </trkpt>
      <trkpt lat="49.03125" lon="1.87698">
        <ele>87</ele>
        <time>2018-10-13T13:43:43Z</time>
      </trkpt>
      <trkpt lat="49.03134" lon="1.87705">
        <ele>87</ele>
        <time>2018-10-13T13:43:50Z</time>
      </trkpt>
      <trkpt lat="49.03142" lon="1.87712">
        <ele>86</ele>
        <time>2018-10-13T13:43:57Z</time>
      </trkpt>
      <trkpt lat="49.03148" lon="1.87724">
        <ele>87</ele>
        <time>2018-10-13T13:44:07Z</time>
      </trkpt>
      <trkpt lat="49.03157" lon="1.87731">
        <ele>88</ele>
        <time>2018-10-13T13:44:15Z</time>
      </trkpt>
      <trkpt lat="49.03166" lon="1.87732">
        <ele>89</ele>
        <time>2018-10-13T13:44:24Z</time>
      </trkpt>
      <trkpt lat="49.03173" lon="1.87724">
        <ele>90</ele>
        <time>2018-10-13T13:44:31Z</time>
      </trkpt>
      <trkpt lat="49.03182" lon="1.87717">
        <ele>91</ele>
        <time>2018-10-13T13:44:41Z</time>
      </trkpt>
      <trkpt lat="49.03191" lon="1.87714">
        <ele>92</ele>
        <time>2018-10-13T13:44:51Z</time>
      </trkpt>
      <trkpt lat="49.032" lon="1.8771">
        <ele>92</ele>
        <time>2018-10-13T13:45:01Z</time>
      </trkpt>
      <trkpt lat="49.032" lon="1.87695">
        <ele>88</ele>
        <time>2018-10-13T13:45:19Z</time>
      </trkpt>
      <trkpt lat="49.03195" lon="1.87682">
        <ele>84</ele>
        <time>2018-10-13T13:45:27Z</time>
      </trkpt>
      <trkpt lat="49.0319" lon="1.8767">
        <ele>81</ele>
        <time>2018-10-13T13:45:38Z</time>
      </trkpt>
      <trkpt lat="49.03198" lon="1.87663">
        <ele>80</ele>
        <time>2018-10-13T13:45:50Z</time>
      </trkpt>
      <trkpt lat="49.03208" lon="1.87664">
        <ele>79</ele>
        <time>2018-10-13T13:45:57Z</time>
      </trkpt>
      <trkpt lat="49.03204" lon="1.87651">
        <ele>77</ele>
        <time>2018-10-13T13:46:15Z</time>
      </trkpt>
      <trkpt lat="49.03207" lon="1.87637">
        <ele>76</ele>
        <time>2018-10-13T13:46:23Z</time>
      </trkpt>
      <trkpt lat="49.03209" lon="1.87622">
        <ele>76</ele>
        <time>2018-10-13T13:46:31Z</time>
      </trkpt>
      <trkpt lat="49.0321" lon="1.87608">
        <ele>75</ele>
        <time>2018-10-13T13:46:39Z</time>
      </trkpt>
      <trkpt lat="49.03213" lon="1.87595">
        <ele>74</ele>
        <time>2018-10-13T13:46:49Z</time>
      </trkpt>
      <trkpt lat="49.03215" lon="1.87581">
        <ele>73</ele>
        <time>2018-10-13T13:46:55Z</time>
      </trkpt>
      <trkpt lat="49.03218" lon="1.87568">
        <ele>73</ele>
        <time>2018-10-13T13:47:04Z</time>
      </trkpt>
      <trkpt lat="49.0322" lon="1.87554">
        <ele>72</ele>
        <time>2018-10-13T13:47:10Z</time>
      </trkpt>
      <trkpt lat="49.03223" lon="1.87541">
        <ele>72</ele>
        <time>2018-10-13T13:47:16Z</time>
      </trkpt>
      <trkpt lat="49.03226" lon="1.87525">
        <ele>72</ele>
        <time>2018-10-13T13:47:24Z</time>
      </trkpt>
      <trkpt lat="49.0323" lon="1.87511">
        <ele>72</ele>
        <time>2018-10-13T13:47:31Z</time>
      </trkpt>
      <trkpt lat="49.03234" lon="1.87499">
        <ele>72</ele>
        <time>2018-10-13T13:47:39Z</time>
      </trkpt>
      <trkpt lat="49.03237" lon="1.87484">
        <ele>71</ele>
        <time>2018-10-13T13:47:44Z</time>
      </trkpt>
      <trkpt lat="49.03238" lon="1.87469">
        <ele>71</ele>
        <time>2018-10-13T13:47:51Z</time>
      </trkpt>
      <trkpt lat="49.03241" lon="1.87455">
        <ele>71</ele>
        <time>2018-10-13T13:48:00Z</time>
      </trkpt>
      <trkpt lat="49.03243" lon="1.8744">
        <ele>71</ele>
        <time>2018-10-13T13:48:07Z</time>
      </trkpt>
      <trkpt lat="49.03246" lon="1.87426">
        <ele>71</ele>
        <time>2018-10-13T13:48:14Z</time>
      </trkpt>
      <trkpt lat="49.03246" lon="1.87412">
        <ele>69</ele>
        <time>2018-10-13T13:48:22Z</time>
      </trkpt>
      <trkpt lat="49.03246" lon="1.87396">
        <ele>66</ele>
        <time>2018-10-13T13:48:30Z</time>
      </trkpt>
      <trkpt lat="49.03244" lon="1.87382">
        <ele>63</ele>
        <time>2018-10-13T13:48:38Z</time>
      </trkpt>
      <trkpt lat="49.03241" lon="1.87369">
        <ele>57</ele>
        <time>2018-10-13T13:48:48Z</time>
      </trkpt>
      <trkpt lat="49.03237" lon="1.87356">
        <ele>55</ele>
        <time>2018-10-13T13:48:54Z</time>
      </trkpt>
      <trkpt lat="49.03232" lon="1.87342">
        <ele>54</ele>
        <time>2018-10-13T13:49:01Z</time>
      </trkpt>
      <trkpt lat="49.03228" lon="1.87329">
        <ele>52</ele>
        <time>2018-10-13T13:49:08Z</time>
      </trkpt>
      <trkpt lat="49.03226" lon="1.87315">
        <ele>52</ele>
        <time>2018-10-13T13:49:13Z</time>
      </trkpt>
      <trkpt lat="49.03221" lon="1.87303">
        <ele>51</ele>
        <time>2018-10-13T13:49:19Z</time>
      </trkpt>
      <trkpt lat="49.0322" lon="1.87289">
        <ele>50</ele>
        <time>2018-10-13T13:49:28Z</time>
      </trkpt>
      <trkpt lat="49.03217" lon="1.87276">
        <ele>50</ele>
        <time>2018-10-13T13:49:35Z</time>
      </trkpt>
      <trkpt lat="49.03218" lon="1.87262">
        <ele>50</ele>
        <time>2018-10-13T13:49:42Z</time>
      </trkpt>
      <trkpt lat="49.03217" lon="1.87248">
        <ele>51</ele>
        <time>2018-10-13T13:49:51Z</time>
      </trkpt>
      <trkpt lat="49.03214" lon="1.87235">
        <ele>51</ele>
        <time>2018-10-13T13:50:00Z</time>
      </trkpt>
      <trkpt lat="49.03213" lon="1.8722">
        <ele>50</ele>
        <time>2018-10-13T13:50:08Z</time>
      </trkpt>
      <trkpt lat="49.0321" lon="1.87206">
        <ele>49</ele>
        <time>2018-10-13T13:50:14Z</time>
      </trkpt>
      <trkpt lat="49.03207" lon="1.87191">
        <ele>50</ele>
        <time>2018-10-13T13:50:20Z</time>
      </trkpt>
      <trkpt lat="49.03203" lon="1.87178">
        <ele>50</ele>
        <time>2018-10-13T13:50:27Z</time>
      </trkpt>
      <trkpt lat="49.03199" lon="1.87165">
        <ele>50</ele>
        <time>2018-10-13T13:50:34Z</time>
      </trkpt>
      <trkpt lat="49.03196" lon="1.87151">
        <ele>50</ele>
        <time>2018-10-13T13:50:42Z</time>
      </trkpt>
      <trkpt lat="49.03194" lon="1.87136">
        <ele>49</ele>
        <time>2018-10-13T13:50:49Z</time>
      </trkpt>
      <trkpt lat="49.03195" lon="1.87121">
        <ele>47</ele>
        <time>2018-10-13T13:50:58Z</time>
      </trkpt>
      <trkpt lat="49.03195" lon="1.87107">
        <ele>47</ele>
        <time>2018-10-13T13:51:04Z</time>
      </trkpt>
      <trkpt lat="49.03194" lon="1.87092">
        <ele>46</ele>
        <time>2018-10-13T13:51:12Z</time>
      </trkpt>
      <trkpt lat="49.03194" lon="1.87077">
        <ele>45</ele>
        <time>2018-10-13T13:51:19Z</time>
      </trkpt>
      <trkpt lat="49.03195" lon="1.87063">
        <ele>45</ele>
        <time>2018-10-13T13:51:27Z</time>
      </trkpt>
      <trkpt lat="49.03195" lon="1.87047">
        <ele>43</ele>
        <time>2018-10-13T13:51:34Z</time>
      </trkpt>
      <trkpt lat="49.03196" lon="1.87033">
        <ele>42</ele>
        <time>2018-10-13T13:51:42Z</time>
      </trkpt>
      <trkpt lat="49.03198" lon="1.87019">
        <ele>41</ele>
        <time>2018-10-13T13:51:49Z</time>
      </trkpt>
      <trkpt lat="49.03202" lon="1.87006">
        <ele>40</ele>
        <time>2018-10-13T13:51:55Z</time>
      </trkpt>
      <trkpt lat="49.03207" lon="1.86993">
        <ele>38</ele>
        <time>2018-10-13T13:52:02Z</time>
      </trkpt>
      <trkpt lat="49.03209" lon="1.86979">
        <ele>37</ele>
        <time>2018-10-13T13:52:09Z</time>
      </trkpt>
      <trkpt lat="49.03211" lon="1.86964">
        <ele>36</ele>
        <time>2018-10-13T13:52:18Z</time>
      </trkpt>
      <trkpt lat="49.03212" lon="1.86948">
        <ele>35</ele>
        <time>2018-10-13T13:52:27Z</time>
      </trkpt>
      <trkpt lat="49.03212" lon="1.86934">
        <ele>35</ele>
        <time>2018-10-13T13:52:33Z</time>
      </trkpt>
      <trkpt lat="49.03212" lon="1.8692">
        <ele>34</ele>
        <time>2018-10-13T13:52:40Z</time>
      </trkpt>
      <trkpt lat="49.03214" lon="1.86905">
        <ele>34</ele>
        <time>2018-10-13T13:52:51Z</time>
      </trkpt>
      <trkpt lat="49.03216" lon="1.86891">
        <ele>33</ele>
        <time>2018-10-13T13:52:58Z</time>
      </trkpt>
      <trkpt lat="49.03219" lon="1.86876">
        <ele>33</ele>
        <time>2018-10-13T13:53:05Z</time>
      </trkpt>
      <trkpt lat="49.0322" lon="1.86861">
        <ele>33</ele>
        <time>2018-10-13T13:53:13Z</time>
      </trkpt>
      <trkpt lat="49.03224" lon="1.86847">
        <ele>33</ele>
        <time>2018-10-13T13:53:20Z</time>
      </trkpt>
      <trkpt lat="49.03226" lon="1.86834">
        <ele>32</ele>
        <time>2018-10-13T13:53:27Z</time>
      </trkpt>
      <trkpt lat="49.03228" lon="1.8682">
        <ele>32</ele>
        <time>2018-10-13T13:53:34Z</time>
      </trkpt>
      <trkpt lat="49.0323" lon="1.86806">
        <ele>32</ele>
        <time>2018-10-13T13:53:42Z</time>
      </trkpt>
      <trkpt lat="49.0323" lon="1.86792">
        <ele>32</ele>
        <time>2018-10-13T13:54:04Z</time>
      </trkpt>
      <trkpt lat="49.03234" lon="1.86779">
        <ele>31</ele>
        <time>2018-10-13T13:54:15Z</time>
      </trkpt>
      <trkpt lat="49.03235" lon="1.86765">
        <ele>31</ele>
        <time>2018-10-13T13:54:23Z</time>
      </trkpt>
      <trkpt lat="49.03229" lon="1.86755">
        <ele>29</ele>
        <time>2018-10-13T13:54:37Z</time>
      </trkpt>
      <trkpt lat="49.0323" lon="1.86741">
        <ele>27</ele>
        <time>2018-10-13T13:54:46Z</time>
      </trkpt>
      <trkpt lat="49.03236" lon="1.86729">
        <ele>25</ele>
        <time>2018-10-13T13:54:55Z</time>
      </trkpt>
      <trkpt lat="49.03244" lon="1.8672">
        <ele>24</ele>
        <time>2018-10-13T13:55:04Z</time>
      </trkpt>
      <trkpt lat="49.03251" lon="1.86711">
        <ele>24</ele>
        <time>2018-10-13T13:55:12Z</time>
      </trkpt>
      <trkpt lat="49.03259" lon="1.86701">
        <ele>23</ele>
        <time>2018-10-13T13:55:20Z</time>
      </trkpt>
      <trkpt lat="49.03267" lon="1.86694">
        <ele>23</ele>
        <time>2018-10-13T13:55:26Z</time>
      </trkpt>
      <trkpt lat="49.03275" lon="1.86686">
        <ele>24</ele>
        <time>2018-10-13T13:55:32Z</time>
      </trkpt>
      <trkpt lat="49.03283" lon="1.86678">
        <ele>24</ele>
        <time>2018-10-13T13:55:42Z</time>
      </trkpt>
      <trkpt lat="49.03292" lon="1.86673">
        <ele>24</ele>
        <time>2018-10-13T13:55:51Z</time>
      </trkpt>
      <trkpt lat="49.03301" lon="1.86666">
        <ele>25</ele>
        <time>2018-10-13T13:55:58Z</time>
      </trkpt>
      <trkpt lat="49.03309" lon="1.86659">
        <ele>25</ele>
        <time>2018-10-13T13:56:04Z</time>
      </trkpt>
      <trkpt lat="49.03318" lon="1.86653">
        <ele>26</ele>
        <time>2018-10-13T13:56:12Z</time>
      </trkpt>
      <trkpt lat="49.03327" lon="1.86647">
        <ele>27</ele>
        <time>2018-10-13T13:56:19Z</time>
      </trkpt>
      <trkpt lat="49.03335" lon="1.86639">
        <ele>27</ele>
        <time>2018-10-13T13:56:28Z</time>
      </trkpt>
      <trkpt lat="49.03341" lon="1.8663">
        <ele>28</ele>
        <time>2018-10-13T13:56:35Z</time>
      </trkpt>
      <trkpt lat="49.0335" lon="1.8662">
        <ele>28</ele>
        <time>2018-10-13T13:56:42Z</time>
      </trkpt>
      <trkpt lat="49.03358" lon="1.86613">
        <ele>28</ele>
        <time>2018-10-13T13:56:48Z</time>
      </trkpt>
      <trkpt lat="49.03365" lon="1.86602">
        <ele>29</ele>
        <time>2018-10-13T13:56:56Z</time>
      </trkpt>
      <trkpt lat="49.03373" lon="1.86594">
        <ele>30</ele>
        <time>2018-10-13T13:57:04Z</time>
      </trkpt>
      <trkpt lat="49.03381" lon="1.86584">
        <ele>31</ele>
        <time>2018-10-13T13:57:14Z</time>
      </trkpt>
      <trkpt lat="49.03387" lon="1.86572">
        <ele>32</ele>
        <time>2018-10-13T13:57:22Z</time>
      </trkpt>
      <trkpt lat="49.03392" lon="1.86559">
        <ele>33</ele>
        <time>2018-10-13T13:57:30Z</time>
      </trkpt>
      <trkpt lat="49.03399" lon="1.86548">
        <ele>34</ele>
        <time>2018-10-13T13:57:39Z</time>
      </trkpt>
      <trkpt lat="49.03402" lon="1.86534">
        <ele>35</ele>
        <time>2018-10-13T13:57:45Z</time>
      </trkpt>
      <trkpt lat="49.03409" lon="1.86524">
        <ele>34</ele>
        <time>2018-10-13T13:57:52Z</time>
      </trkpt>
      <trkpt lat="49.03419" lon="1.86525">
        <ele>34</ele>
        <time>2018-10-13T13:57:59Z</time>
      </trkpt>
      <trkpt lat="49.03429" lon="1.8653">
        <ele>33</ele>
        <time>2018-10-13T13:58:05Z</time>
      </trkpt>
      <trkpt lat="49.03438" lon="1.86535">
        <ele>33</ele>
        <time>2018-10-13T13:58:12Z</time>
      </trkpt>
      <trkpt lat="49.03447" lon="1.86538">
        <ele>33</ele>
        <time>2018-10-13T13:58:20Z</time>
      </trkpt>
      <trkpt lat="49.03457" lon="1.8654">
        <ele>33</ele>
        <time>2018-10-13T13:58:29Z</time>
      </trkpt>
      <trkpt lat="49.03466" lon="1.86534">
        <ele>33</ele>
        <time>2018-10-13T13:58:36Z</time>
      </trkpt>
      <trkpt lat="49.03475" lon="1.86528">
        <ele>33</ele>
        <time>2018-10-13T13:58:45Z</time>
      </trkpt>
      <trkpt lat="49.03481" lon="1.86517">
        <ele>33</ele>
        <time>2018-10-13T13:58:53Z</time>
      </trkpt>
      <trkpt lat="49.0349" lon="1.86519">
        <ele>33</ele>
        <time>2018-10-13T13:59:13Z</time>
      </trkpt>
      <trkpt lat="49.03496" lon="1.86529">
        <ele>32</ele>
        <time>2018-10-13T13:59:32Z</time>
      </trkpt>
      <trkpt lat="49.03505" lon="1.86534">
        <ele>32</ele>
        <time>2018-10-13T13:59:42Z</time>
      </trkpt>
      <trkpt lat="49.0351" lon="1.86521">
        <ele>32</ele>
        <time>2018-10-13T13:59:51Z</time>
      </trkpt>
      <trkpt lat="49.03514" lon="1.86508">
        <ele>31</ele>
        <time>2018-10-13T14:00:01Z</time>
      </trkpt>
      <trkpt lat="49.03522" lon="1.86499">
        <ele>32</ele>
        <time>2018-10-13T14:00:11Z</time>
      </trkpt>
      <trkpt lat="49.03532" lon="1.865">
        <ele>33</ele>
        <time>2018-10-13T14:00:19Z</time>
      </trkpt>
      <trkpt lat="49.03542" lon="1.86501">
        <ele>34</ele>
        <time>2018-10-13T14:00:27Z</time>
      </trkpt>
      <trkpt lat="49.03551" lon="1.86497">
        <ele>34</ele>
        <time>2018-10-13T14:00:34Z</time>
      </trkpt>
      <trkpt lat="49.03559" lon="1.8649">
        <ele>34</ele>
        <time>2018-10-13T14:00:41Z</time>
      </trkpt>
      <trkpt lat="49.03567" lon="1.86483">
        <ele>34</ele>
        <time>2018-10-13T14:00:49Z</time>
      </trkpt>
      <trkpt lat="49.03576" lon="1.86475">
        <ele>33</ele>
        <time>2018-10-13T14:00:57Z</time>
      </trkpt>
      <trkpt lat="49.03585" lon="1.86473">
        <ele>34</ele>
        <time>2018-10-13T14:01:06Z</time>
      </trkpt>
      <trkpt lat="49.03595" lon="1.86477">
        <ele>35</ele>
        <time>2018-10-13T14:01:16Z</time>
      </trkpt>
      <trkpt lat="49.03604" lon="1.86478">
        <ele>36</ele>
        <time>2018-10-13T14:01:25Z</time>
      </trkpt>
      <trkpt lat="49.03613" lon="1.86477">
        <ele>38</ele>
        <time>2018-10-13T14:01:39Z</time>
      </trkpt>
      <trkpt lat="49.03623" lon="1.86478">
        <ele>40</ele>
        <time>2018-10-13T14:01:49Z</time>
      </trkpt>
      <trkpt lat="49.03633" lon="1.86478">
        <ele>42</ele>
        <time>2018-10-13T14:02:02Z</time>
      </trkpt>
      <trkpt lat="49.03641" lon="1.86473">
        <ele>44</ele>
        <time>2018-10-13T14:02:12Z</time>
      </trkpt>
      <trkpt lat="49.03651" lon="1.8647">
        <ele>46</ele>
        <time>2018-10-13T14:02:24Z</time>
      </trkpt>
      <trkpt lat="49.0366" lon="1.86467">
        <ele>47</ele>
        <time>2018-10-13T14:02:30Z</time>
      </trkpt>
      <trkpt lat="49.03668" lon="1.86462">
        <ele>48</ele>
        <time>2018-10-13T14:02:39Z</time>
      </trkpt>
      <trkpt lat="49.03678" lon="1.86463">
        <ele>49</ele>
        <time>2018-10-13T14:02:50Z</time>
      </trkpt>
      <trkpt lat="49.03688" lon="1.86465">
        <ele>49</ele>
        <time>2018-10-13T14:02:58Z</time>
      </trkpt>
      <trkpt lat="49.03697" lon="1.86463">
        <ele>51</ele>
        <time>2018-10-13T14:03:10Z</time>
      </trkpt>
      <trkpt lat="49.03707" lon="1.86463">
        <ele>51</ele>
        <time>2018-10-13T14:03:21Z</time>
      </trkpt>
      <trkpt lat="49.03717" lon="1.86462">
        <ele>51</ele>
        <time>2018-10-13T14:03:32Z</time>
      </trkpt>
      <trkpt lat="49.03726" lon="1.8646">
        <ele>51</ele>
        <time>2018-10-13T14:03:42Z</time>
      </trkpt>
      <trkpt lat="49.03735" lon="1.86462">
        <ele>52</ele>
        <time>2018-10-13T14:03:57Z</time>
      </trkpt>
      <trkpt lat="49.03745" lon="1.8646">
        <ele>54</ele>
        <time>2018-10-13T14:04:10Z</time>
      </trkpt>
      <trkpt lat="49.03753" lon="1.86465">
        <ele>56</ele>
        <time>2018-10-13T14:04:20Z</time>
      </trkpt>
      <trkpt lat="49.03755" lon="1.86478">
        <ele>57</ele>
        <time>2018-10-13T14:04:37Z</time>
      </trkpt>
      <trkpt lat="49.03752" lon="1.86492">
        <ele>60</ele>
        <time>2018-10-13T14:06:23Z</time>
      </trkpt>
      <trkpt lat="49.03753" lon="1.86505">
        <ele>60</ele>
        <time>2018-10-13T14:06:36Z</time>
      </trkpt>
      <trkpt lat="49.0375" lon="1.8652">
        <ele>60</ele>
        <time>2018-10-13T14:06:48Z</time>
      </trkpt>
      <trkpt lat="49.03747" lon="1.86533">
        <ele>59</ele>
        <time>2018-10-13T14:06:57Z</time>
      </trkpt>
      <trkpt lat="49.03742" lon="1.86546">
        <ele>59</ele>
        <time>2018-10-13T14:07:05Z</time>
      </trkpt>
      <trkpt lat="49.03738" lon="1.8656">
        <ele>58</ele>
        <time>2018-10-13T14:07:12Z</time>
      </trkpt>
      <trkpt lat="49.0373" lon="1.8657">
        <ele>57</ele>
        <time>2018-10-13T14:07:19Z</time>
      </trkpt>
      <trkpt lat="49.03723" lon="1.8658">
        <ele>58</ele>
        <time>2018-10-13T14:07:28Z</time>
      </trkpt>
      <trkpt lat="49.03716" lon="1.8659">
        <ele>57</ele>
        <time>2018-10-13T14:07:38Z</time>
      </trkpt>
      <trkpt lat="49.03711" lon="1.86601">
        <ele>56</ele>
        <time>2018-10-13T14:07:47Z</time>
      </trkpt>
      <trkpt lat="49.03706" lon="1.86613">
        <ele>55</ele>
        <time>2018-10-13T14:07:57Z</time>
      </trkpt>
      <trkpt lat="49.03703" lon="1.86626">
        <ele>53</ele>
        <time>2018-10-13T14:08:06Z</time>
      </trkpt>
      <trkpt lat="49.03706" lon="1.86641">
        <ele>51</ele>
        <time>2018-10-13T14:08:16Z</time>
      </trkpt>
      <trkpt lat="49.0371" lon="1.86654">
        <ele>49</ele>
        <time>2018-10-13T14:08:27Z</time>
      </trkpt>
      <trkpt lat="49.03707" lon="1.86668">
        <ele>47</ele>
        <time>2018-10-13T14:08:39Z</time>
      </trkpt>
      <trkpt lat="49.03706" lon="1.86682">
        <ele>45</ele>
        <time>2018-10-13T14:08:47Z</time>
      </trkpt>
      <trkpt lat="49.03715" lon="1.86683">
        <ele>43</ele>
        <time>2018-10-13T14:09:03Z</time>
      </trkpt>
      <trkpt lat="49.03724" lon="1.86678">
        <ele>42</ele>
        <time>2018-10-13T14:09:13Z</time>
      </trkpt>
      <trkpt lat="49.03734" lon="1.86677">
        <ele>43</ele>
        <time>2018-10-13T14:09:21Z</time>
      </trkpt>
      <trkpt lat="49.03743" lon="1.86678">
        <ele>43</ele>
        <time>2018-10-13T14:09:28Z</time>
      </trkpt>
      <trkpt lat="49.03753" lon="1.86677">
        <ele>43</ele>
        <time>2018-10-13T14:09:37Z</time>
      </trkpt>
      <trkpt lat="49.03763" lon="1.86678">
        <ele>43</ele>
        <time>2018-10-13T14:09:44Z</time>
      </trkpt>
      <trkpt lat="49.03772" lon="1.86677">
        <ele>44</ele>
        <time>2018-10-13T14:09:49Z</time>
      </trkpt>
      <trkpt lat="49.03782" lon="1.86679">
        <ele>44</ele>
        <time>2018-10-13T14:09:58Z</time>
      </trkpt>
      <trkpt lat="49.03792" lon="1.86678">
        <ele>44</ele>
        <time>2018-10-13T14:10:05Z</time>
      </trkpt>
      <trkpt lat="49.03801" lon="1.86674">
        <ele>43</ele>
        <time>2018-10-13T14:10:14Z</time>
      </trkpt>
      <trkpt lat="49.03811" lon="1.86675">
        <ele>43</ele>
        <time>2018-10-13T14:10:21Z</time>
      </trkpt>
      <trkpt lat="49.0382" lon="1.86678">
        <ele>43</ele>
        <time>2018-10-13T14:10:30Z</time>
      </trkpt>
      <trkpt lat="49.0383" lon="1.86678">
        <ele>43</ele>
        <time>2018-10-13T14:10:38Z</time>
      </trkpt>
      <trkpt lat="49.0384" lon="1.86681">
        <ele>44</ele>
        <time>2018-10-13T14:10:47Z</time>
      </trkpt>
      <trkpt lat="49.0385" lon="1.86683">
        <ele>45</ele>
        <time>2018-10-13T14:10:54Z</time>
      </trkpt>
      <trkpt lat="49.03859" lon="1.86686">
        <ele>45</ele>
        <time>2018-10-13T14:11:02Z</time>
      </trkpt>
      <trkpt lat="49.03868" lon="1.86688">
        <ele>45</ele>
        <time>2018-10-13T14:11:11Z</time>
      </trkpt>
      <trkpt lat="49.03877" lon="1.86691">
        <ele>46</ele>
        <time>2018-10-13T14:11:19Z</time>
      </trkpt>
      <trkpt lat="49.03886" lon="1.86695">
        <ele>47</ele>
        <time>2018-10-13T14:11:28Z</time>
      </trkpt>
      <trkpt lat="49.03895" lon="1.867">
        <ele>48</ele>
        <time>2018-10-13T14:11:36Z</time>
      </trkpt>
      <trkpt lat="49.03905" lon="1.86701">
        <ele>49</ele>
        <time>2018-10-13T14:11:43Z</time>
      </trkpt>
      <trkpt lat="49.03915" lon="1.86699">
        <ele>50</ele>
        <time>2018-10-13T14:11:50Z</time>
      </trkpt>
      <trkpt lat="49.03924" lon="1.867">
        <ele>51</ele>
        <time>2018-10-13T14:11:58Z</time>
      </trkpt>
      <trkpt lat="49.03934" lon="1.86703">
        <ele>52</ele>
        <time>2018-10-13T14:12:06Z</time>
      </trkpt>
      <trkpt lat="49.03942" lon="1.86708">
        <ele>54</ele>
        <time>2018-10-13T14:12:13Z</time>
      </trkpt>
      <trkpt lat="49.0395" lon="1.86715">
        <ele>55</ele>
        <time>2018-10-13T14:12:21Z</time>
      </trkpt>
      <trkpt lat="49.03958" lon="1.86723">
        <ele>55</ele>
        <time>2018-10-13T14:12:30Z</time>
      </trkpt>
      <trkpt lat="49.03966" lon="1.8673">
        <ele>56</ele>
        <time>2018-10-13T14:12:38Z</time>
      </trkpt>
      <trkpt lat="49.03974" lon="1.86738">
        <ele>57</ele>
        <time>2018-10-13T14:12:46Z</time>
      </trkpt>
      <trkpt lat="49.03983" lon="1.86743">
        <ele>58</ele>
        <time>2018-10-13T14:12:56Z</time>
      </trkpt>
      <trkpt lat="49.03991" lon="1.86737">
        <ele>59</ele>
        <time>2018-10-13T14:18:47Z</time>
      </trkpt>
      <trkpt lat="49.04001" lon="1.86736">
        <ele>60</ele>
        <time>2018-10-13T14:18:55Z</time>
      </trkpt>
      <trkpt lat="49.0401" lon="1.86738">
        <ele>60</ele>
        <time>2018-10-13T14:19:05Z</time>
      </trkpt>
      <trkpt lat="49.0402" lon="1.86734">
        <ele>61</ele>
        <time>2018-10-13T14:19:16Z</time>
      </trkpt>
      <trkpt lat="49.04029" lon="1.8673">
        <ele>61</ele>
        <time>2018-10-13T14:19:27Z</time>
      </trkpt>
      <trkpt lat="49.04038" lon="1.86727">
        <ele>61</ele>
        <time>2018-10-13T14:19:35Z</time>
      </trkpt>
      <trkpt lat="49.04048" lon="1.86726">
        <ele>62</ele>
        <time>2018-10-13T14:19:50Z</time>
      </trkpt>
      <trkpt lat="49.04057" lon="1.86723">
        <ele>63</ele>
        <time>2018-10-13T14:19:59Z</time>
      </trkpt>
      <trkpt lat="49.04067" lon="1.86724">
        <ele>63</ele>
        <time>2018-10-13T14:20:07Z</time>
      </trkpt>
      <trkpt lat="49.04077" lon="1.86723">
        <ele>63</ele>
        <time>2018-10-13T14:20:14Z</time>
      </trkpt>
      <trkpt lat="49.04087" lon="1.8672">
        <ele>64</ele>
        <time>2018-10-13T14:20:21Z</time>
      </trkpt>
      <trkpt lat="49.04097" lon="1.86718">
        <ele>64</ele>
        <time>2018-10-13T14:20:29Z</time>
      </trkpt>
      <trkpt lat="49.04106" lon="1.86716">
        <ele>65</ele>
        <time>2018-10-13T14:20:37Z</time>
      </trkpt>
      <trkpt lat="49.04115" lon="1.86712">
        <ele>65</ele>
        <time>2018-10-13T14:20:46Z</time>
      </trkpt>
      <trkpt lat="49.04124" lon="1.86709">
        <ele>66</ele>
        <time>2018-10-13T14:20:54Z</time>
      </trkpt>
      <trkpt lat="49.04133" lon="1.86703">
        <ele>67</ele>
        <time>2018-10-13T14:21:05Z</time>
      </trkpt>
      <trkpt lat="49.04141" lon="1.86694">
        <ele>68</ele>
        <time>2018-10-13T14:21:16Z</time>
      </trkpt>
      <trkpt lat="49.04148" lon="1.86685">
        <ele>68</ele>
        <time>2018-10-13T14:21:24Z</time>
      </trkpt>
      <trkpt lat="49.04155" lon="1.86675">
        <ele>69</ele>
        <time>2018-10-13T14:21:32Z</time>
      </trkpt>
      <trkpt lat="49.04163" lon="1.86667">
        <ele>70</ele>
        <time>2018-10-13T14:21:41Z</time>
      </trkpt>
      <trkpt lat="49.04171" lon="1.86657">
        <ele>71</ele>
        <time>2018-10-13T14:21:50Z</time>
      </trkpt>
      <trkpt lat="49.04179" lon="1.86649">
        <ele>72</ele>
        <time>2018-10-13T14:21:59Z</time>
      </trkpt>
      <trkpt lat="49.04188" lon="1.86642">
        <ele>73</ele>
        <time>2018-10-13T14:22:08Z</time>
      </trkpt>
      <trkpt lat="49.04195" lon="1.86634">
        <ele>74</ele>
        <time>2018-10-13T14:22:16Z</time>
      </trkpt>
      <trkpt lat="49.04203" lon="1.86628">
        <ele>76</ele>
        <time>2018-10-13T14:22:24Z</time>
      </trkpt>
      <trkpt lat="49.04212" lon="1.86623">
        <ele>76</ele>
        <time>2018-10-13T14:22:31Z</time>
      </trkpt>
      <trkpt lat="49.04221" lon="1.86617">
        <ele>77</ele>
        <time>2018-10-13T14:22:39Z</time>
      </trkpt>
      <trkpt lat="49.04229" lon="1.86611">
        <ele>78</ele>
        <time>2018-10-13T14:22:46Z</time>
      </trkpt>
      <trkpt lat="49.04237" lon="1.86603">
        <ele>79</ele>
        <time>2018-10-13T14:22:53Z</time>
      </trkpt>
      <trkpt lat="49.04245" lon="1.86597">
        <ele>80</ele>
        <time>2018-10-13T14:23:01Z</time>
      </trkpt>
      <trkpt lat="49.04255" lon="1.86591">
        <ele>80</ele>
        <time>2018-10-13T14:23:10Z</time>
      </trkpt>
      <trkpt lat="49.04263" lon="1.86584">
        <ele>81</ele>
        <time>2018-10-13T14:23:21Z</time>
      </trkpt>
      <trkpt lat="49.04271" lon="1.8658">
        <ele>82</ele>
        <time>2018-10-13T14:23:28Z</time>
      </trkpt>
      <trkpt lat="49.0428" lon="1.86578">
        <ele>83</ele>
        <time>2018-10-13T14:23:37Z</time>
      </trkpt>
      <trkpt lat="49.0429" lon="1.86575">
        <ele>83</ele>
        <time>2018-10-13T14:23:45Z</time>
      </trkpt>
      <trkpt lat="49.043" lon="1.86573">
        <ele>82</ele>
        <time>2018-10-13T14:23:51Z</time>
      </trkpt>
      <trkpt lat="49.0431" lon="1.86574">
        <ele>82</ele>
        <time>2018-10-13T14:23:58Z</time>
      </trkpt>
      <trkpt lat="49.04319" lon="1.86574">
        <ele>82</ele>
        <time>2018-10-13T14:24:06Z</time>
      </trkpt>
      <trkpt lat="49.0433" lon="1.86574">
        <ele>82</ele>
        <time>2018-10-13T14:24:12Z</time>
      </trkpt>
      <trkpt lat="49.04339" lon="1.86575">
        <ele>81</ele>
        <time>2018-10-13T14:24:19Z</time>
      </trkpt>
      <trkpt lat="49.04348" lon="1.86578">
        <ele>81</ele>
        <time>2018-10-13T14:24:26Z</time>
      </trkpt>
      <trkpt lat="49.04358" lon="1.8658">
        <ele>81</ele>
        <time>2018-10-13T14:24:33Z</time>
      </trkpt>
      <trkpt lat="49.04367" lon="1.86578">
        <ele>81</ele>
        <time>2018-10-13T14:24:41Z</time>
      </trkpt>
      <trkpt lat="49.04377" lon="1.8658">
        <ele>81</ele>
        <time>2018-10-13T14:24:49Z</time>
      </trkpt>
      <trkpt lat="49.04388" lon="1.86581">
        <ele>82</ele>
        <time>2018-10-13T14:24:57Z</time>
      </trkpt>
      <trkpt lat="49.04397" lon="1.86579">
        <ele>82</ele>
        <time>2018-10-13T14:25:04Z</time>
      </trkpt>
      <trkpt lat="49.04406" lon="1.86581">
        <ele>82</ele>
        <time>2018-10-13T14:25:11Z</time>
      </trkpt>
      <trkpt lat="49.04416" lon="1.86583">
        <ele>82</ele>
        <time>2018-10-13T14:25:18Z</time>
      </trkpt>
      <trkpt lat="49.04425" lon="1.8658">
        <ele>82</ele>
        <time>2018-10-13T14:25:25Z</time>
      </trkpt>
      <trkpt lat="49.04435" lon="1.86578">
        <ele>82</ele>
        <time>2018-10-13T14:25:32Z</time>
      </trkpt>
      <trkpt lat="49.04445" lon="1.86579">
        <ele>83</ele>
        <time>2018-10-13T14:25:39Z</time>
      </trkpt>
      <trkpt lat="49.04455" lon="1.86581">
        <ele>83</ele>
        <time>2018-10-13T14:25:47Z</time>
      </trkpt>
      <trkpt lat="49.04465" lon="1.86583">
        <ele>84</ele>
        <time>2018-10-13T14:25:55Z</time>
      </trkpt>
      <trkpt lat="49.04475" lon="1.86584">
        <ele>84</ele>
        <time>2018-10-13T14:26:02Z</time>
      </trkpt>
      <trkpt lat="49.04485" lon="1.86585">
        <ele>84</ele>
        <time>2018-10-13T14:26:10Z</time>
      </trkpt>
      <trkpt lat="49.04495" lon="1.86583">
        <ele>85</ele>
        <time>2018-10-13T14:26:17Z</time>
      </trkpt>
      <trkpt lat="49.04504" lon="1.86586">
        <ele>85</ele>
        <time>2018-10-13T14:26:23Z</time>
      </trkpt>
      <trkpt lat="49.04514" lon="1.8659">
        <ele>84</ele>
        <time>2018-10-13T14:26:30Z</time>
      </trkpt>
      <trkpt lat="49.04523" lon="1.8659">
        <ele>84</ele>
        <time>2018-10-13T14:26:38Z</time>
      </trkpt>
      <trkpt lat="49.04532" lon="1.86589">
        <ele>83</ele>
        <time>2018-10-13T14:26:45Z</time>
      </trkpt>
      <trkpt lat="49.04542" lon="1.86591">
        <ele>84</ele>
        <time>2018-10-13T14:26:53Z</time>
      </trkpt>
      <trkpt lat="49.04551" lon="1.86594">
        <ele>84</ele>
        <time>2018-10-13T14:27:00Z</time>
      </trkpt>
      <trkpt lat="49.0456" lon="1.866">
        <ele>84</ele>
        <time>2018-10-13T14:27:07Z</time>
      </trkpt>
      <trkpt lat="49.04568" lon="1.86606">
        <ele>84</ele>
        <time>2018-10-13T14:27:14Z</time>
      </trkpt>
      <trkpt lat="49.04577" lon="1.86612">
        <ele>84</ele>
        <time>2018-10-13T14:27:21Z</time>
      </trkpt>
      <trkpt lat="49.04586" lon="1.86618">
        <ele>85</ele>
        <time>2018-10-13T14:27:29Z</time>
      </trkpt>
      <trkpt lat="49.04594" lon="1.86623">
        <ele>85</ele>
        <time>2018-10-13T14:27:36Z</time>
      </trkpt>
      <trkpt lat="49.04602" lon="1.86631">
        <ele>86</ele>
        <time>2018-10-13T14:27:44Z</time>
      </trkpt>
      <trkpt lat="49.0461" lon="1.86639">
        <ele>87</ele>
        <time>2018-10-13T14:27:51Z</time>
      </trkpt>
      <trkpt lat="49.04619" lon="1.86643">
        <ele>87</ele>
        <time>2018-10-13T14:27:57Z</time>
      </trkpt>
      <trkpt lat="49.04628" lon="1.86649">
        <ele>87</ele>
        <time>2018-10-13T14:28:04Z</time>
      </trkpt>
      <trkpt lat="49.04638" lon="1.86654">
        <ele>87</ele>
        <time>2018-10-13T14:28:11Z</time>
      </trkpt>
      <trkpt lat="49.04646" lon="1.86661">
        <ele>87</ele>
        <time>2018-10-13T14:28:19Z</time>
      </trkpt>
      <trkpt lat="49.04655" lon="1.86667">
        <ele>87</ele>
        <time>2018-10-13T14:28:28Z</time>
      </trkpt>
      <trkpt lat="49.04662" lon="1.86675">
        <ele>88</ele>
        <time>2018-10-13T14:28:36Z</time>
      </trkpt>
      <trkpt lat="49.0467" lon="1.86683">
        <ele>89</ele>
        <time>2018-10-13T14:28:43Z</time>
      </trkpt>
      <trkpt lat="49.0468" lon="1.86687">
        <ele>90</ele>
        <time>2018-10-13T14:28:51Z</time>
      </trkpt>
      <trkpt lat="49.04683" lon="1.867">
        <ele>89</ele>
        <time>2018-10-13T14:28:57Z</time>
      </trkpt>
      <trkpt lat="49.04689" lon="1.8671">
        <ele>89</ele>
        <time>2018-10-13T14:29:04Z</time>
      </trkpt>
      <trkpt lat="49.04698" lon="1.86711">
        <ele>89</ele>
        <time>2018-10-13T14:29:09Z</time>
      </trkpt>
      <trkpt lat="49.04706" lon="1.86702">
        <ele>89</ele>
        <time>2018-10-13T14:29:15Z</time>
      </trkpt>
      <trkpt lat="49.04713" lon="1.86692">
        <ele>89</ele>
        <time>2018-10-13T14:29:22Z</time>
      </trkpt>
      <trkpt lat="49.0472" lon="1.86682">
        <ele>90</ele>
        <time>2018-10-13T14:29:30Z</time>
      </trkpt>
      <trkpt lat="49.04726" lon="1.86671">
        <ele>90</ele>
        <time>2018-10-13T14:29:38Z</time>
      </trkpt>
      <trkpt lat="49.04733" lon="1.86659">
        <ele>91</ele>
        <time>2018-10-13T14:29:47Z</time>
      </trkpt>
      <trkpt lat="49.04738" lon="1.86648">
        <ele>91</ele>
        <time>2018-10-13T14:29:54Z</time>
      </trkpt>
      <trkpt lat="49.04744" lon="1.86637">
        <ele>91</ele>
        <time>2018-10-13T14:30:01Z</time>
      </trkpt>
      <trkpt lat="49.04752" lon="1.86626">
        <ele>92</ele>
        <time>2018-10-13T14:30:09Z</time>
      </trkpt>
      <trkpt lat="49.04758" lon="1.86616">
        <ele>92</ele>
        <time>2018-10-13T14:30:16Z</time>
      </trkpt>
      <trkpt lat="49.04763" lon="1.86605">
        <ele>92</ele>
        <time>2018-10-13T14:30:24Z</time>
      </trkpt>
      <trkpt lat="49.04768" lon="1.86593">
        <ele>93</ele>
        <time>2018-10-13T14:30:31Z</time>
      </trkpt>
      <trkpt lat="49.04775" lon="1.86582">
        <ele>94</ele>
        <time>2018-10-13T14:30:40Z</time>
      </trkpt>
      <trkpt lat="49.04781" lon="1.8657">
        <ele>94</ele>
        <time>2018-10-13T14:30:48Z</time>
      </trkpt>
      <trkpt lat="49.04787" lon="1.86558">
        <ele>94</ele>
        <time>2018-10-13T14:30:55Z</time>
      </trkpt>
      <trkpt lat="49.04794" lon="1.86547">
        <ele>94</ele>
        <time>2018-10-13T14:31:02Z</time>
      </trkpt>
      <trkpt lat="49.048" lon="1.86537">
        <ele>95</ele>
        <time>2018-10-13T14:31:09Z</time>
      </trkpt>
      <trkpt lat="49.04806" lon="1.86524">
        <ele>95</ele>
        <time>2018-10-13T14:31:17Z</time>
      </trkpt>
      <trkpt lat="49.04812" lon="1.86513">
        <ele>95</ele>
        <time>2018-10-13T14:31:25Z</time>
      </trkpt>
      <trkpt lat="49.04815" lon="1.86499">
        <ele>95</ele>
        <time>2018-10-13T14:31:32Z</time>
      </trkpt>
      <trkpt lat="49.04821" lon="1.86486">
        <ele>95</ele>
        <time>2018-10-13T14:31:39Z</time>
      </trkpt>
      <trkpt lat="49.04828" lon="1.86477">
        <ele>95</ele>
        <time>2018-10-13T14:31:45Z</time>
      </trkpt>
      <trkpt lat="49.04834" lon="1.86465">
        <ele>95</ele>
        <time>2018-10-13T14:31:53Z</time>
      </trkpt>
      <trkpt lat="49.04839" lon="1.86453">
        <ele>95</ele>
        <time>2018-10-13T14:32:00Z</time>
      </trkpt>
      <trkpt lat="49.04844" lon="1.8644">
        <ele>94</ele>
        <time>2018-10-13T14:32:08Z</time>
      </trkpt>
      <trkpt lat="49.04847" lon="1.86427">
        <ele>94</ele>
        <time>2018-10-13T14:32:16Z</time>
      </trkpt>
      <trkpt lat="49.04852" lon="1.86414">
        <ele>95</ele>
        <time>2018-10-13T14:32:24Z</time>
      </trkpt>
      <trkpt lat="49.04856" lon="1.86401">
        <ele>95</ele>
        <time>2018-10-13T14:32:32Z</time>
      </trkpt>
      <trkpt lat="49.04859" lon="1.86386">
        <ele>95</ele>
        <time>2018-10-13T14:32:40Z</time>
      </trkpt>
      <trkpt lat="49.04864" lon="1.86372">
        <ele>95</ele>
        <time>2018-10-13T14:32:47Z</time>
      </trkpt>
      <trkpt lat="49.04867" lon="1.8636">
        <ele>95</ele>
        <time>2018-10-13T14:32:54Z</time>
      </trkpt>
      <trkpt lat="49.04872" lon="1.86346">
        <ele>95</ele>
        <time>2018-10-13T14:33:02Z</time>
      </trkpt>
      <trkpt lat="49.04875" lon="1.86333">
        <ele>95</ele>
        <time>2018-10-13T14:33:09Z</time>
      </trkpt>
      <trkpt lat="49.04877" lon="1.86317">
        <ele>95</ele>
        <time>2018-10-13T14:33:16Z</time>
      </trkpt>
      <trkpt lat="49.04882" lon="1.86305">
        <ele>95</ele>
        <time>2018-10-13T14:33:22Z</time>
      </trkpt>
      <trkpt lat="49.04884" lon="1.86291">
        <ele>95</ele>
        <time>2018-10-13T14:33:30Z</time>
      </trkpt>
      <trkpt lat="49.04888" lon="1.86278">
        <ele>96</ele>
        <time>2018-10-13T14:33:37Z</time>
      </trkpt>
      <trkpt lat="49.0489" lon="1.86264">
        <ele>96</ele>
        <time>2018-10-13T14:33:46Z</time>
      </trkpt>
      <trkpt lat="49.04891" lon="1.86248">
        <ele>96</ele>
        <time>2018-10-13T14:33:54Z</time>
      </trkpt>
      <trkpt lat="49.04893" lon="1.86233">
        <ele>97</ele>
        <time>2018-10-13T14:34:02Z</time>
      </trkpt>
      <trkpt lat="49.04896" lon="1.86218">
        <ele>98</ele>
        <time>2018-10-13T14:34:09Z</time>
      </trkpt>
      <trkpt lat="49.04899" lon="1.86205">
        <ele>99</ele>
        <time>2018-10-13T14:34:16Z</time>
      </trkpt>
      <trkpt lat="49.04902" lon="1.86191">
        <ele>99</ele>
        <time>2018-10-13T14:34:24Z</time>
      </trkpt>
      <trkpt lat="49.04904" lon="1.86177">
        <ele>100</ele>
        <time>2018-10-13T14:34:31Z</time>
      </trkpt>
      <trkpt lat="49.04908" lon="1.86163">
        <ele>100</ele>
        <time>2018-10-13T14:34:38Z</time>
      </trkpt>
      <trkpt lat="49.04913" lon="1.86149">
        <ele>100</ele>
        <time>2018-10-13T14:34:45Z</time>
      </trkpt>
      <trkpt lat="49.04917" lon="1.86135">
        <ele>100</ele>
        <time>2018-10-13T14:34:53Z</time>
      </trkpt>
      <trkpt lat="49.04919" lon="1.8612">
        <ele>100</ele>
        <time>2018-10-13T14:35:02Z</time>
      </trkpt>
      <trkpt lat="49.04922" lon="1.86107">
        <ele>99</ele>
        <time>2018-10-13T14:35:09Z</time>
      </trkpt>
      <trkpt lat="49.0492" lon="1.86092">
        <ele>100</ele>
        <time>2018-10-13T14:35:17Z</time>
      </trkpt>
      <trkpt lat="49.04922" lon="1.86078">
        <ele>101</ele>
        <time>2018-10-13T14:35:24Z</time>
      </trkpt>
      <trkpt lat="49.04924" lon="1.86063">
        <ele>101</ele>
        <time>2018-10-13T14:35:33Z</time>
      </trkpt>
      <trkpt lat="49.04927" lon="1.86048">
        <ele>101</ele>
        <time>2018-10-13T14:35:41Z</time>
      </trkpt>
      <trkpt lat="49.04929" lon="1.86032">
        <ele>102</ele>
        <time>2018-10-13T14:35:49Z</time>
      </trkpt>
      <trkpt lat="49.0493" lon="1.86018">
        <ele>102</ele>
        <time>2018-10-13T14:35:56Z</time>
      </trkpt>
      <trkpt lat="49.04933" lon="1.86004">
        <ele>102</ele>
        <time>2018-10-13T14:36:04Z</time>
      </trkpt>
      <trkpt lat="49.04934" lon="1.85989">
        <ele>102</ele>
        <time>2018-10-13T14:36:11Z</time>
      </trkpt>
      <trkpt lat="49.04936" lon="1.85976">
        <ele>103</ele>
        <time>2018-10-13T14:36:18Z</time>
      </trkpt>
      <trkpt lat="49.04939" lon="1.85962">
        <ele>103</ele>
        <time>2018-10-13T14:36:25Z</time>
      </trkpt>
      <trkpt lat="49.04943" lon="1.85948">
        <ele>103</ele>
        <time>2018-10-13T14:36:34Z</time>
      </trkpt>
      <trkpt lat="49.04944" lon="1.85932">
        <ele>104</ele>
        <time>2018-10-13T14:36:42Z</time>
      </trkpt>
      <trkpt lat="49.04945" lon="1.85918">
        <ele>105</ele>
        <time>2018-10-13T14:36:49Z</time>
      </trkpt>
      <trkpt lat="49.04948" lon="1.85904">
        <ele>105</ele>
        <time>2018-10-13T14:36:57Z</time>
      </trkpt>
      <trkpt lat="49.0495" lon="1.8589">
        <ele>105</ele>
        <time>2018-10-13T14:37:04Z</time>
      </trkpt>
      <trkpt lat="49.04952" lon="1.85876">
        <ele>106</ele>
        <time>2018-10-13T14:37:11Z</time>
      </trkpt>
      <trkpt lat="49.04955" lon="1.85862">
        <ele>106</ele>
        <time>2018-10-13T14:37:19Z</time>
      </trkpt>
      <trkpt lat="49.04957" lon="1.85848">
        <ele>106</ele>
        <time>2018-10-13T14:37:27Z</time>
      </trkpt>
      <trkpt lat="49.0496" lon="1.85834">
        <ele>107</ele>
        <time>2018-10-13T14:37:35Z</time>
      </trkpt>
      <trkpt lat="49.04963" lon="1.8582">
        <ele>107</ele>
        <time>2018-10-13T14:37:42Z</time>
      </trkpt>
      <trkpt lat="49.04966" lon="1.85806">
        <ele>107</ele>
        <time>2018-10-13T14:37:50Z</time>
      </trkpt>
      <trkpt lat="49.0497" lon="1.85792">
        <ele>107</ele>
        <time>2018-10-13T14:37:58Z</time>
      </trkpt>
      <trkpt lat="49.04973" lon="1.85777">
        <ele>107</ele>
        <time>2018-10-13T14:38:06Z</time>
      </trkpt>
      <trkpt lat="49.04977" lon="1.85763">
        <ele>106</ele>
        <time>2018-10-13T14:38:14Z</time>
      </trkpt>
      <trkpt lat="49.04981" lon="1.85749">
        <ele>106</ele>
        <time>2018-10-13T14:38:22Z</time>
      </trkpt>
      <trkpt lat="49.04985" lon="1.85735">
        <ele>106</ele>
        <time>2018-10-13T14:38:30Z</time>
      </trkpt>
      <trkpt lat="49.04989" lon="1.85722">
        <ele>106</ele>
        <time>2018-10-13T14:38:38Z</time>
      </trkpt>
      <trkpt lat="49.04992" lon="1.85708">
        <ele>106</ele>
        <time>2018-10-13T14:38:46Z</time>
      </trkpt>
      <trkpt lat="49.04995" lon="1.85694">
        <ele>106</ele>
        <time>2018-10-13T14:38:53Z</time>
      </trkpt>
      <trkpt lat="49.04997" lon="1.8568">
        <ele>106</ele>
        <time>2018-10-13T14:39:00Z</time>
      </trkpt>
      <trkpt lat="49.05" lon="1.85665">
        <ele>106</ele>
        <time>2018-10-13T14:39:09Z</time>
      </trkpt>
      <trkpt lat="49.05003" lon="1.8565">
        <ele>106</ele>
        <time>2018-10-13T14:39:17Z</time>
      </trkpt>
      <trkpt lat="49.05005" lon="1.85636">
        <ele>106</ele>
        <time>2018-10-13T14:39:24Z</time>
      </trkpt>
      <trkpt lat="49.05008" lon="1.85622">
        <ele>106</ele>
        <time>2018-10-13T14:39:32Z</time>
      </trkpt>
      <trkpt lat="49.05009" lon="1.85607">
        <ele>107</ele>
        <time>2018-10-13T14:39:39Z</time>
      </trkpt>
      <trkpt lat="49.05012" lon="1.85593">
        <ele>107</ele>
        <time>2018-10-13T14:39:47Z</time>
      </trkpt>
      <trkpt lat="49.05015" lon="1.85578">
        <ele>107</ele>
        <time>2018-10-13T14:39:56Z</time>
      </trkpt>
      <trkpt lat="49.05018" lon="1.85564">
        <ele>107</ele>
        <time>2018-10-13T14:40:04Z</time>
      </trkpt>
      <trkpt lat="49.0502" lon="1.85549">
        <ele>107</ele>
        <time>2018-10-13T14:40:11Z</time>
      </trkpt>
      <trkpt lat="49.05024" lon="1.85536">
        <ele>107</ele>
        <time>2018-10-13T14:40:18Z</time>
      </trkpt>
      <trkpt lat="49.05027" lon="1.85522">
        <ele>107</ele>
        <time>2018-10-13T14:40:26Z</time>
      </trkpt>
      <trkpt lat="49.05031" lon="1.85508">
        <ele>107</ele>
        <time>2018-10-13T14:40:35Z</time>
      </trkpt>
      <trkpt lat="49.05033" lon="1.85494">
        <ele>107</ele>
        <time>2018-10-13T14:40:42Z</time>
      </trkpt>
      <trkpt lat="49.05036" lon="1.8548">
        <ele>107</ele>
        <time>2018-10-13T14:40:49Z</time>
      </trkpt>
      <trkpt lat="49.05038" lon="1.85467">
        <ele>107</ele>
        <time>2018-10-13T14:40:56Z</time>
      </trkpt>
      <trkpt lat="49.05042" lon="1.85454">
        <ele>107</ele>
        <time>2018-10-13T14:41:04Z</time>
      </trkpt>
      <trkpt lat="49.05045" lon="1.85441">
        <ele>107</ele>
        <time>2018-10-13T14:41:11Z</time>
      </trkpt>
      <trkpt lat="49.05049" lon="1.85426">
        <ele>106</ele>
        <time>2018-10-13T14:41:19Z</time>
      </trkpt>
      <trkpt lat="49.05052" lon="1.85413">
        <ele>106</ele>
        <time>2018-10-13T14:41:27Z</time>
      </trkpt>
      <trkpt lat="49.05055" lon="1.85398">
        <ele>107</ele>
        <time>2018-10-13T14:41:35Z</time>
      </trkpt>
      <trkpt lat="49.05058" lon="1.85385">
        <ele>107</ele>
        <time>2018-10-13T14:41:41Z</time>
      </trkpt>
      <trkpt lat="49.05059" lon="1.8537">
        <ele>107</ele>
        <time>2018-10-13T14:41:51Z</time>
      </trkpt>
      <trkpt lat="49.05056" lon="1.85357">
        <ele>107</ele>
        <time>2018-10-13T14:45:20Z</time>
      </trkpt>
      <trkpt lat="49.05046" lon="1.85351">
        <ele>107</ele>
        <time>2018-10-13T14:45:30Z</time>
      </trkpt>
      <trkpt lat="49.05038" lon="1.85343">
        <ele>106</ele>
        <time>2018-10-13T14:45:39Z</time>
      </trkpt>
      <trkpt lat="49.05032" lon="1.85332">
        <ele>106</ele>
        <time>2018-10-13T14:45:47Z</time>
      </trkpt>
      <trkpt lat="49.05025" lon="1.85321">
        <ele>106</ele>
        <time>2018-10-13T14:45:55Z</time>
      </trkpt>
      <trkpt lat="49.05018" lon="1.85311">
        <ele>106</ele>
        <time>2018-10-13T14:46:03Z</time>
      </trkpt>
      <trkpt lat="49.05011" lon="1.853">
        <ele>106</ele>
        <time>2018-10-13T14:46:10Z</time>
      </trkpt>
      <trkpt lat="49.05005" lon="1.85289">
        <ele>107</ele>
        <time>2018-10-13T14:46:16Z</time>
      </trkpt>
      <trkpt lat="49.04998" lon="1.8528">
        <ele>108</ele>
        <time>2018-10-13T14:46:24Z</time>
      </trkpt>
      <trkpt lat="49.04993" lon="1.85267">
        <ele>108</ele>
        <time>2018-10-13T14:46:32Z</time>
      </trkpt>
      <trkpt lat="49.04986" lon="1.85255">
        <ele>109</ele>
        <time>2018-10-13T14:46:40Z</time>
      </trkpt>
      <trkpt lat="49.0498" lon="1.85244">
        <ele>111</ele>
        <time>2018-10-13T14:46:48Z</time>
      </trkpt>
      <trkpt lat="49.04974" lon="1.85232">
        <ele>111</ele>
        <time>2018-10-13T14:46:57Z</time>
      </trkpt>
      <trkpt lat="49.04967" lon="1.85222">
        <ele>112</ele>
        <time>2018-10-13T14:47:05Z</time>
      </trkpt>
      <trkpt lat="49.04959" lon="1.85215">
        <ele>113</ele>
        <time>2018-10-13T14:47:13Z</time>
      </trkpt>
      <trkpt lat="49.04949" lon="1.8521">
        <ele>113</ele>
        <time>2018-10-13T14:47:21Z</time>
      </trkpt>
      <trkpt lat="49.0494" lon="1.85208">
        <ele>114</ele>
        <time>2018-10-13T14:47:27Z</time>
      </trkpt>
      <trkpt lat="49.04931" lon="1.85206">
        <ele>116</ele>
        <time>2018-10-13T14:47:33Z</time>
      </trkpt>
      <trkpt lat="49.04922" lon="1.85204">
        <ele>118</ele>
        <time>2018-10-13T14:47:40Z</time>
      </trkpt>
      <trkpt lat="49.04912" lon="1.85205">
        <ele>120</ele>
        <time>2018-10-13T14:47:49Z</time>
      </trkpt>
      <trkpt lat="49.04902" lon="1.85209">
        <ele>121</ele>
        <time>2018-10-13T14:47:58Z</time>
      </trkpt>
      <trkpt lat="49.04893" lon="1.85211">
        <ele>122</ele>
        <time>2018-10-13T14:48:06Z</time>
      </trkpt>
      <trkpt lat="49.04883" lon="1.85213">
        <ele>123</ele>
        <time>2018-10-13T14:48:14Z</time>
      </trkpt>
      <trkpt lat="49.04873" lon="1.85214">
        <ele>124</ele>
        <time>2018-10-13T14:48:20Z</time>
      </trkpt>
      <trkpt lat="49.04864" lon="1.85215">
        <ele>126</ele>
        <time>2018-10-13T14:48:27Z</time>
      </trkpt>
      <trkpt lat="49.04855" lon="1.85219">
        <ele>127</ele>
        <time>2018-10-13T14:48:34Z</time>
      </trkpt>
      <trkpt lat="49.04845" lon="1.85222">
        <ele>128</ele>
        <time>2018-10-13T14:48:40Z</time>
      </trkpt>
      <trkpt lat="49.04836" lon="1.8522">
        <ele>129</ele>
        <time>2018-10-13T14:48:46Z</time>
      </trkpt>
      <trkpt lat="49.04826" lon="1.85223">
        <ele>131</ele>
        <time>2018-10-13T14:48:56Z</time>
      </trkpt>
      <trkpt lat="49.04818" lon="1.85229">
        <ele>131</ele>
        <time>2018-10-13T14:49:03Z</time>
      </trkpt>
      <trkpt lat="49.04808" lon="1.85233">
        <ele>131</ele>
        <time>2018-10-13T14:49:12Z</time>
      </trkpt>
      <trkpt lat="49.04799" lon="1.85232">
        <ele>130</ele>
        <time>2018-10-13T14:49:19Z</time>
      </trkpt>
      <trkpt lat="49.0479" lon="1.85234">
        <ele>129</ele>
        <time>2018-10-13T14:49:26Z</time>
      </trkpt>
      <trkpt lat="49.0478" lon="1.85233">
        <ele>128</ele>
        <time>2018-10-13T14:49:31Z</time>
      </trkpt>
      <trkpt lat="49.0477" lon="1.85232">
        <ele>127</ele>
        <time>2018-10-13T14:49:36Z</time>
      </trkpt>
      <trkpt lat="49.04761" lon="1.85236">
        <ele>126</ele>
        <time>2018-10-13T14:49:44Z</time>
      </trkpt>
      <trkpt lat="49.04752" lon="1.85237">
        <ele>124</ele>
        <time>2018-10-13T14:49:54Z</time>
      </trkpt>
      <trkpt lat="49.04742" lon="1.8524">
        <ele>122</ele>
        <time>2018-10-13T14:50:01Z</time>
      </trkpt>
      <trkpt lat="49.04732" lon="1.85237">
        <ele>121</ele>
        <time>2018-10-13T14:50:07Z</time>
      </trkpt>
      <trkpt lat="49.04723" lon="1.85238">
        <ele>120</ele>
        <time>2018-10-13T14:50:13Z</time>
      </trkpt>
      <trkpt lat="49.04713" lon="1.85239">
        <ele>118</ele>
        <time>2018-10-13T14:50:20Z</time>
      </trkpt>
      <trkpt lat="49.04703" lon="1.85242">
        <ele>118</ele>
        <time>2018-10-13T14:50:27Z</time>
      </trkpt>
      <trkpt lat="49.04693" lon="1.85244">
        <ele>117</ele>
        <time>2018-10-13T14:50:33Z</time>
      </trkpt>
      <trkpt lat="49.04683" lon="1.85248">
        <ele>117</ele>
        <time>2018-10-13T14:50:38Z</time>
      </trkpt>
      <trkpt lat="49.04673" lon="1.85248">
        <ele>116</ele>
        <time>2018-10-13T14:50:43Z</time>
      </trkpt>
      <trkpt lat="49.04663" lon="1.85244">
        <ele>116</ele>
        <time>2018-10-13T14:50:51Z</time>
      </trkpt>
      <trkpt lat="49.04659" lon="1.85231">
        <ele>116</ele>
        <time>2018-10-13T14:51:03Z</time>
      </trkpt>
      <trkpt lat="49.04653" lon="1.85221">
        <ele>116</ele>
        <time>2018-10-13T14:51:19Z</time>
      </trkpt>
      <trkpt lat="49.04649" lon="1.85207">
        <ele>117</ele>
        <time>2018-10-13T14:51:28Z</time>
      </trkpt>
      <trkpt lat="49.04644" lon="1.85194">
        <ele>116</ele>
        <time>2018-10-13T14:51:36Z</time>
      </trkpt>
      <trkpt lat="49.04638" lon="1.85183">
        <ele>116</ele>
        <time>2018-10-13T14:51:44Z</time>
      </trkpt>
      <trkpt lat="49.04634" lon="1.85171">
        <ele>116</ele>
        <time>2018-10-13T14:51:52Z</time>
      </trkpt>
      <trkpt lat="49.04631" lon="1.85157">
        <ele>116</ele>
        <time>2018-10-13T14:51:59Z</time>
      </trkpt>
      <trkpt lat="49.04629" lon="1.85143">
        <ele>116</ele>
        <time>2018-10-13T14:52:08Z</time>
      </trkpt>
      <trkpt lat="49.04626" lon="1.8513">
        <ele>117</ele>
        <time>2018-10-13T14:52:15Z</time>
      </trkpt>
      <trkpt lat="49.04625" lon="1.85113">
        <ele>117</ele>
        <time>2018-10-13T14:52:22Z</time>
      </trkpt>
      <trkpt lat="49.04623" lon="1.85099">
        <ele>118</ele>
        <time>2018-10-13T14:52:30Z</time>
      </trkpt>
      <trkpt lat="49.04621" lon="1.85086">
        <ele>118</ele>
        <time>2018-10-13T14:52:37Z</time>
      </trkpt>
      <trkpt lat="49.04619" lon="1.85071">
        <ele>119</ele>
        <time>2018-10-13T14:52:44Z</time>
      </trkpt>
      <trkpt lat="49.04619" lon="1.85056">
        <ele>119</ele>
        <time>2018-10-13T14:52:52Z</time>
      </trkpt>
      <trkpt lat="49.0462" lon="1.85041">
        <ele>120</ele>
        <time>2018-10-13T14:52:59Z</time>
      </trkpt>
      <trkpt lat="49.04614" lon="1.8503">
        <ele>120</ele>
        <time>2018-10-13T14:53:08Z</time>
      </trkpt>
      <trkpt lat="49.04604" lon="1.85027">
        <ele>119</ele>
        <time>2018-10-13T14:53:16Z</time>
      </trkpt>
      <trkpt lat="49.04595" lon="1.85029">
        <ele>119</ele>
        <time>2018-10-13T14:53:22Z</time>
      </trkpt>
      <trkpt lat="49.04585" lon="1.85035">
        <ele>119</ele>
        <time>2018-10-13T14:53:30Z</time>
      </trkpt>
      <trkpt lat="49.04577" lon="1.8504">
        <ele>118</ele>
        <time>2018-10-13T14:53:37Z</time>
      </trkpt>
      <trkpt lat="49.04567" lon="1.85046">
        <ele>118</ele>
        <time>2018-10-13T14:53:45Z</time>
      </trkpt>
      <trkpt lat="49.04559" lon="1.85052">
        <ele>118</ele>
        <time>2018-10-13T14:53:53Z</time>
      </trkpt>
      <trkpt lat="49.0455" lon="1.85058">
        <ele>117</ele>
        <time>2018-10-13T14:54:00Z</time>
      </trkpt>
      <trkpt lat="49.0454" lon="1.85064">
        <ele>117</ele>
        <time>2018-10-13T14:54:07Z</time>
      </trkpt>
      <trkpt lat="49.04529" lon="1.85063">
        <ele>117</ele>
        <time>2018-10-13T14:54:14Z</time>
      </trkpt>
      <trkpt lat="49.04519" lon="1.8506">
        <ele>117</ele>
        <time>2018-10-13T14:54:21Z</time>
      </trkpt>
      <trkpt lat="49.04511" lon="1.85052">
        <ele>117</ele>
        <time>2018-10-13T14:54:28Z</time>
      </trkpt>
      <trkpt lat="49.04505" lon="1.8504">
        <ele>117</ele>
        <time>2018-10-13T14:54:35Z</time>
      </trkpt>
      <trkpt lat="49.045" lon="1.85028">
        <ele>117</ele>
        <time>2018-10-13T14:54:42Z</time>
      </trkpt>
      <trkpt lat="49.04496" lon="1.85016">
        <ele>118</ele>
        <time>2018-10-13T14:54:49Z</time>
      </trkpt>
      <trkpt lat="49.0449" lon="1.85003">
        <ele>118</ele>
        <time>2018-10-13T14:54:57Z</time>
      </trkpt>
      <trkpt lat="49.04488" lon="1.84988">
        <ele>117</ele>
        <time>2018-10-13T14:55:04Z</time>
      </trkpt>
      <trkpt lat="49.04484" lon="1.84975">
        <ele>117</ele>
        <time>2018-10-13T14:55:12Z</time>
      </trkpt>
      <trkpt lat="49.04481" lon="1.84961">
        <ele>117</ele>
        <time>2018-10-13T14:55:19Z</time>
      </trkpt>
      <trkpt lat="49.04476" lon="1.84949">
        <ele>117</ele>
        <time>2018-10-13T14:55:25Z</time>
      </trkpt>
      <trkpt lat="49.04471" lon="1.84937">
        <ele>117</ele>
        <time>2018-10-13T14:55:33Z</time>
      </trkpt>
      <trkpt lat="49.04468" lon="1.84924">
        <ele>117</ele>
        <time>2018-10-13T14:55:40Z</time>
      </trkpt>
      <trkpt lat="49.04463" lon="1.8491">
        <ele>117</ele>
        <time>2018-10-13T14:55:48Z</time>
      </trkpt>
      <trkpt lat="49.04458" lon="1.84897">
        <ele>116</ele>
        <time>2018-10-13T14:55:56Z</time>
      </trkpt>
      <trkpt lat="49.04453" lon="1.84884">
        <ele>116</ele>
        <time>2018-10-13T14:56:03Z</time>
      </trkpt>
      <trkpt lat="49.04449" lon="1.8487">
        <ele>116</ele>
        <time>2018-10-13T14:56:10Z</time>
      </trkpt>
      <trkpt lat="49.04447" lon="1.84856">
        <ele>116</ele>
        <time>2018-10-13T14:56:17Z</time>
      </trkpt>
      <trkpt lat="49.0444" lon="1.84847">
        <ele>116</ele>
        <time>2018-10-13T14:56:25Z</time>
      </trkpt>
      <trkpt lat="49.04431" lon="1.84845">
        <ele>116</ele>
        <time>2018-10-13T14:56:33Z</time>
      </trkpt>
      <trkpt lat="49.04422" lon="1.8484">
        <ele>115</ele>
        <time>2018-10-13T14:56:41Z</time>
      </trkpt>
      <trkpt lat="49.04413" lon="1.84836">
        <ele>114</ele>
        <time>2018-10-13T14:56:49Z</time>
      </trkpt>
      <trkpt lat="49.04404" lon="1.84835">
        <ele>114</ele>
        <time>2018-10-13T14:56:55Z</time>
      </trkpt>
      <trkpt lat="49.04394" lon="1.84836">
        <ele>113</ele>
        <time>2018-10-13T14:57:01Z</time>
      </trkpt>
      <trkpt lat="49.04385" lon="1.84835">
        <ele>113</ele>
        <time>2018-10-13T14:57:09Z</time>
      </trkpt>
      <trkpt lat="49.04375" lon="1.84832">
        <ele>112</ele>
        <time>2018-10-13T14:57:17Z</time>
      </trkpt>
      <trkpt lat="49.04366" lon="1.84828">
        <ele>112</ele>
        <time>2018-10-13T14:57:23Z</time>
      </trkpt>
      <trkpt lat="49.04357" lon="1.84824">
        <ele>111</ele>
        <time>2018-10-13T14:57:29Z</time>
      </trkpt>
      <trkpt lat="49.04348" lon="1.84819">
        <ele>111</ele>
        <time>2018-10-13T14:57:36Z</time>
      </trkpt>
      <trkpt lat="49.0434" lon="1.84814">
        <ele>111</ele>
        <time>2018-10-13T14:57:45Z</time>
      </trkpt>
      <trkpt lat="49.04331" lon="1.84808">
        <ele>111</ele>
        <time>2018-10-13T14:57:52Z</time>
      </trkpt>
      <trkpt lat="49.04322" lon="1.84804">
        <ele>111</ele>
        <time>2018-10-13T14:58:00Z</time>
      </trkpt>
      <trkpt lat="49.04312" lon="1.84799">
        <ele>111</ele>
        <time>2018-10-13T14:58:07Z</time>
      </trkpt>
      <trkpt lat="49.04303" lon="1.848">
        <ele>111</ele>
        <time>2018-10-13T14:58:16Z</time>
      </trkpt>
      <trkpt lat="49.04294" lon="1.84799">
        <ele>110</ele>
        <time>2018-10-13T14:58:23Z</time>
      </trkpt>
      <trkpt lat="49.04285" lon="1.84795">
        <ele>110</ele>
        <time>2018-10-13T14:58:29Z</time>
      </trkpt>
      <trkpt lat="49.04275" lon="1.84794">
        <ele>109</ele>
        <time>2018-10-13T14:58:38Z</time>
      </trkpt>
      <trkpt lat="49.04265" lon="1.84792">
        <ele>109</ele>
        <time>2018-10-13T14:58:48Z</time>
      </trkpt>
      <trkpt lat="49.04256" lon="1.84789">
        <ele>109</ele>
        <time>2018-10-13T14:58:55Z</time>
      </trkpt>
      <trkpt lat="49.04247" lon="1.84786">
        <ele>109</ele>
        <time>2018-10-13T14:59:03Z</time>
      </trkpt>
      <trkpt lat="49.04238" lon="1.84781">
        <ele>109</ele>
        <time>2018-10-13T14:59:10Z</time>
      </trkpt>
      <trkpt lat="49.04229" lon="1.84778">
        <ele>109</ele>
        <time>2018-10-13T14:59:18Z</time>
      </trkpt>
      <trkpt lat="49.0422" lon="1.84773">
        <ele>109</ele>
        <time>2018-10-13T14:59:25Z</time>
      </trkpt>
      <trkpt lat="49.0421" lon="1.84772">
        <ele>108</ele>
        <time>2018-10-13T14:59:32Z</time>
      </trkpt>
      <trkpt lat="49.042" lon="1.84768">
        <ele>108</ele>
        <time>2018-10-13T14:59:41Z</time>
      </trkpt>
      <trkpt lat="49.04191" lon="1.84762">
        <ele>108</ele>
        <time>2018-10-13T14:59:48Z</time>
      </trkpt>
      <trkpt lat="49.04183" lon="1.84756">
        <ele>107</ele>
        <time>2018-10-13T14:59:55Z</time>
      </trkpt>
      <trkpt lat="49.04174" lon="1.84751">
        <ele>106</ele>
        <time>2018-10-13T15:00:04Z</time>
      </trkpt>
      <trkpt lat="49.04165" lon="1.84743">
        <ele>106</ele>
        <time>2018-10-13T15:00:11Z</time>
      </trkpt>
      <trkpt lat="49.04157" lon="1.84736">
        <ele>106</ele>
        <time>2018-10-13T15:00:17Z</time>
      </trkpt>
      <trkpt lat="49.04148" lon="1.84731">
        <ele>106</ele>
        <time>2018-10-13T15:00:24Z</time>
      </trkpt>
      <trkpt lat="49.04139" lon="1.84724">
        <ele>106</ele>
        <time>2018-10-13T15:00:32Z</time>
      </trkpt>
      <trkpt lat="49.0413" lon="1.84721">
        <ele>105</ele>
        <time>2018-10-13T15:00:40Z</time>
      </trkpt>
      <trkpt lat="49.04121" lon="1.84715">
        <ele>105</ele>
        <time>2018-10-13T15:00:49Z</time>
      </trkpt>
      <trkpt lat="49.04112" lon="1.8471">
        <ele>104</ele>
        <time>2018-10-13T15:00:55Z</time>
      </trkpt>
      <trkpt lat="49.04103" lon="1.84704">
        <ele>104</ele>
        <time>2018-10-13T15:01:02Z</time>
      </trkpt>
      <trkpt lat="49.04096" lon="1.84696">
        <ele>103</ele>
        <time>2018-10-13T15:01:13Z</time>
      </trkpt>
      <trkpt lat="49.04087" lon="1.84702">
        <ele>101</ele>
        <time>2018-10-13T15:01:35Z</time>
      </trkpt>
      <trkpt lat="49.04083" lon="1.84714">
        <ele>101</ele>
        <time>2018-10-13T15:01:43Z</time>
      </trkpt>
      <trkpt lat="49.04075" lon="1.84725">
        <ele>100</ele>
        <time>2018-10-13T15:01:51Z</time>
      </trkpt>
      <trkpt lat="49.04068" lon="1.84733">
        <ele>100</ele>
        <time>2018-10-13T15:01:58Z</time>
      </trkpt>
      <trkpt lat="49.04058" lon="1.84735">
        <ele>100</ele>
        <time>2018-10-13T15:02:04Z</time>
      </trkpt>
      <trkpt lat="49.04048" lon="1.84734">
        <ele>100</ele>
        <time>2018-10-13T15:02:11Z</time>
      </trkpt>
      <trkpt lat="49.04039" lon="1.84731">
        <ele>100</ele>
        <time>2018-10-13T15:02:17Z</time>
      </trkpt>
      <trkpt lat="49.0403" lon="1.84726">
        <ele>100</ele>
        <time>2018-10-13T15:02:24Z</time>
      </trkpt>
      <trkpt lat="49.04021" lon="1.84725">
        <ele>99</ele>
        <time>2018-10-13T15:02:32Z</time>
      </trkpt>
      <trkpt lat="49.04011" lon="1.84722">
        <ele>99</ele>
        <time>2018-10-13T15:02:40Z</time>
      </trkpt>
      <trkpt lat="49.04002" lon="1.84719">
        <ele>99</ele>
        <time>2018-10-13T15:02:47Z</time>
      </trkpt>
      <trkpt lat="49.03993" lon="1.84713">
        <ele>99</ele>
        <time>2018-10-13T15:02:54Z</time>
      </trkpt>
      <trkpt lat="49.03986" lon="1.84705">
        <ele>98</ele>
        <time>2018-10-13T15:03:02Z</time>
      </trkpt>
      <trkpt lat="49.03978" lon="1.84695">
        <ele>96</ele>
        <time>2018-10-13T15:03:11Z</time>
      </trkpt>
      <trkpt lat="49.0397" lon="1.84686">
        <ele>95</ele>
        <time>2018-10-13T15:03:19Z</time>
      </trkpt>
      <trkpt lat="49.03961" lon="1.84678">
        <ele>93</ele>
        <time>2018-10-13T15:03:27Z</time>
      </trkpt>
      <trkpt lat="49.03953" lon="1.8467">
        <ele>93</ele>
        <time>2018-10-13T15:03:35Z</time>
      </trkpt>
      <trkpt lat="49.03945" lon="1.84662">
        <ele>92</ele>
        <time>2018-10-13T15:03:42Z</time>
      </trkpt>
      <trkpt lat="49.03938" lon="1.84653">
        <ele>91</ele>
        <time>2018-10-13T15:03:50Z</time>
      </trkpt>
      <trkpt lat="49.03932" lon="1.84643">
        <ele>90</ele>
        <time>2018-10-13T15:03:58Z</time>
      </trkpt>
      <trkpt lat="49.03925" lon="1.84632">
        <ele>89</ele>
        <time>2018-10-13T15:04:07Z</time>
      </trkpt>
      <trkpt lat="49.03922" lon="1.84618">
        <ele>87</ele>
        <time>2018-10-13T15:04:16Z</time>
      </trkpt>
      <trkpt lat="49.0392" lon="1.84605">
        <ele>86</ele>
        <time>2018-10-13T15:04:24Z</time>
      </trkpt>
      <trkpt lat="49.03915" lon="1.84592">
        <ele>84</ele>
        <time>2018-10-13T15:04:31Z</time>
      </trkpt>
      <trkpt lat="49.03911" lon="1.84579">
        <ele>83</ele>
        <time>2018-10-13T15:04:39Z</time>
      </trkpt>
      <trkpt lat="49.03907" lon="1.84567">
        <ele>82</ele>
        <time>2018-10-13T15:04:47Z</time>
      </trkpt>
      <trkpt lat="49.03904" lon="1.84553">
        <ele>81</ele>
        <time>2018-10-13T15:04:55Z</time>
      </trkpt>
      <trkpt lat="49.03899" lon="1.84541">
        <ele>80</ele>
        <time>2018-10-13T15:05:02Z</time>
      </trkpt>
      <trkpt lat="49.03894" lon="1.84527">
        <ele>79</ele>
        <time>2018-10-13T15:05:10Z</time>
      </trkpt>
      <trkpt lat="49.03889" lon="1.84515">
        <ele>78</ele>
        <time>2018-10-13T15:05:24Z</time>
      </trkpt>
      <trkpt lat="49.03881" lon="1.84506">
        <ele>77</ele>
        <time>2018-10-13T15:05:34Z</time>
      </trkpt>
      <trkpt lat="49.03874" lon="1.84496">
        <ele>75</ele>
        <time>2018-10-13T15:05:43Z</time>
      </trkpt>
      <trkpt lat="49.03866" lon="1.84488">
        <ele>72</ele>
        <time>2018-10-13T15:05:53Z</time>
      </trkpt>
      <trkpt lat="49.03857" lon="1.84488">
        <ele>70</ele>
        <time>2018-10-13T15:06:01Z</time>
      </trkpt>
      <trkpt lat="49.03847" lon="1.84492">
        <ele>69</ele>
        <time>2018-10-13T15:06:08Z</time>
      </trkpt>
      <trkpt lat="49.03838" lon="1.84498">
        <ele>67</ele>
        <time>2018-10-13T15:06:15Z</time>
      </trkpt>
      <trkpt lat="49.03829" lon="1.84504">
        <ele>65</ele>
        <time>2018-10-13T15:06:23Z</time>
      </trkpt>
      <trkpt lat="49.03821" lon="1.84512">
        <ele>64</ele>
        <time>2018-10-13T15:06:31Z</time>
      </trkpt>
      <trkpt lat="49.03815" lon="1.84524">
        <ele>62</ele>
        <time>2018-10-13T15:06:38Z</time>
      </trkpt>
      <trkpt lat="49.03807" lon="1.8453">
        <ele>61</ele>
        <time>2018-10-13T15:06:45Z</time>
      </trkpt>
      <trkpt lat="49.03797" lon="1.84534">
        <ele>61</ele>
        <time>2018-10-13T15:06:52Z</time>
      </trkpt>
      <trkpt lat="49.03788" lon="1.84536">
        <ele>60</ele>
        <time>2018-10-13T15:06:59Z</time>
      </trkpt>
      <trkpt lat="49.03778" lon="1.84537">
        <ele>59</ele>
        <time>2018-10-13T15:07:07Z</time>
      </trkpt>
      <trkpt lat="49.03768" lon="1.84539">
        <ele>58</ele>
        <time>2018-10-13T15:07:13Z</time>
      </trkpt>
      <trkpt lat="49.03759" lon="1.84539">
        <ele>57</ele>
        <time>2018-10-13T15:07:19Z</time>
      </trkpt>
      <trkpt lat="49.03749" lon="1.84538">
        <ele>57</ele>
        <time>2018-10-13T15:07:26Z</time>
      </trkpt>
      <trkpt lat="49.0374" lon="1.84535">
        <ele>56</ele>
        <time>2018-10-13T15:07:34Z</time>
      </trkpt>
      <trkpt lat="49.03732" lon="1.8453">
        <ele>55</ele>
        <time>2018-10-13T15:07:41Z</time>
      </trkpt>
      <trkpt lat="49.03723" lon="1.84523">
        <ele>54</ele>
        <time>2018-10-13T15:07:47Z</time>
      </trkpt>
      <trkpt lat="49.03714" lon="1.8452">
        <ele>53</ele>
        <time>2018-10-13T15:07:55Z</time>
      </trkpt>
      <trkpt lat="49.03704" lon="1.84516">
        <ele>52</ele>
        <time>2018-10-13T15:08:02Z</time>
      </trkpt>
      <trkpt lat="49.03698" lon="1.84527">
        <ele>51</ele>
        <time>2018-10-13T15:08:13Z</time>
      </trkpt>
      <trkpt lat="49.03698" lon="1.84541">
        <ele>49</ele>
        <time>2018-10-13T15:08:22Z</time>
      </trkpt>
      <trkpt lat="49.03697" lon="1.84555">
        <ele>49</ele>
        <time>2018-10-13T15:08:28Z</time>
      </trkpt>
      <trkpt lat="49.03693" lon="1.84569">
        <ele>48</ele>
        <time>2018-10-13T15:08:35Z</time>
      </trkpt>
      <trkpt lat="49.03691" lon="1.84583">
        <ele>47</ele>
        <time>2018-10-13T15:08:42Z</time>
      </trkpt>
      <trkpt lat="49.03689" lon="1.84597">
        <ele>47</ele>
        <time>2018-10-13T15:08:49Z</time>
      </trkpt>
      <trkpt lat="49.03687" lon="1.84611">
        <ele>46</ele>
        <time>2018-10-13T15:08:57Z</time>
      </trkpt>
      <trkpt lat="49.03688" lon="1.84625">
        <ele>46</ele>
        <time>2018-10-13T15:09:04Z</time>
      </trkpt>
      <trkpt lat="49.03684" lon="1.84637">
        <ele>46</ele>
        <time>2018-10-13T15:09:11Z</time>
      </trkpt>
      <trkpt lat="49.0368" lon="1.84651">
        <ele>46</ele>
        <time>2018-10-13T15:09:18Z</time>
      </trkpt>
      <trkpt lat="49.03677" lon="1.84664">
        <ele>46</ele>
        <time>2018-10-13T15:09:25Z</time>
      </trkpt>
      <trkpt lat="49.03672" lon="1.84677">
        <ele>46</ele>
        <time>2018-10-13T15:09:32Z</time>
      </trkpt>
      <trkpt lat="49.0367" lon="1.84692">
        <ele>46</ele>
        <time>2018-10-13T15:09:40Z</time>
      </trkpt>
      <trkpt lat="49.03667" lon="1.84706">
        <ele>45</ele>
        <time>2018-10-13T15:09:48Z</time>
      </trkpt>
      <trkpt lat="49.03665" lon="1.84721">
        <ele>44</ele>
        <time>2018-10-13T15:09:55Z</time>
      </trkpt>
      <trkpt lat="49.03663" lon="1.84735">
        <ele>44</ele>
        <time>2018-10-13T15:10:01Z</time>
      </trkpt>
      <trkpt lat="49.0366" lon="1.8475">
        <ele>44</ele>
        <time>2018-10-13T15:10:08Z</time>
      </trkpt>
      <trkpt lat="49.03657" lon="1.84764">
        <ele>44</ele>
        <time>2018-10-13T15:10:16Z</time>
      </trkpt>
      <trkpt lat="49.03652" lon="1.84778">
        <ele>43</ele>
        <time>2018-10-13T15:10:24Z</time>
      </trkpt>
      <trkpt lat="49.03647" lon="1.84791">
        <ele>43</ele>
        <time>2018-10-13T15:10:32Z</time>
      </trkpt>
      <trkpt lat="49.03643" lon="1.84804">
        <ele>43</ele>
        <time>2018-10-13T15:10:40Z</time>
      </trkpt>
      <trkpt lat="49.03637" lon="1.84814">
        <ele>43</ele>
        <time>2018-10-13T15:10:48Z</time>
      </trkpt>
      <trkpt lat="49.03631" lon="1.84825">
        <ele>43</ele>
        <time>2018-10-13T15:11:01Z</time>
      </trkpt>
      <trkpt lat="49.03624" lon="1.84836">
        <ele>43</ele>
        <time>2018-10-13T15:11:07Z</time>
      </trkpt>
      <trkpt lat="49.03617" lon="1.84847">
        <ele>42</ele>
        <time>2018-10-13T15:11:13Z</time>
      </trkpt>
      <trkpt lat="49.03612" lon="1.84857">
        <ele>42</ele>
        <time>2018-10-13T15:11:19Z</time>
      </trkpt>
      <trkpt lat="49.03604" lon="1.84869">
        <ele>42</ele>
        <time>2018-10-13T15:11:28Z</time>
      </trkpt>
      <trkpt lat="49.03597" lon="1.84878">
        <ele>42</ele>
        <time>2018-10-13T15:11:36Z</time>
      </trkpt>
      <trkpt lat="49.03589" lon="1.84887">
        <ele>42</ele>
        <time>2018-10-13T15:11:44Z</time>
      </trkpt>
      <trkpt lat="49.03581" lon="1.84894">
        <ele>42</ele>
        <time>2018-10-13T15:11:52Z</time>
      </trkpt>
      <trkpt lat="49.03574" lon="1.84904">
        <ele>42</ele>
        <time>2018-10-13T15:12:00Z</time>
      </trkpt>
      <trkpt lat="49.03567" lon="1.84915">
        <ele>42</ele>
        <time>2018-10-13T15:12:06Z</time>
      </trkpt>
      <trkpt lat="49.03561" lon="1.84925">
        <ele>42</ele>
        <time>2018-10-13T15:12:13Z</time>
      </trkpt>
      <trkpt lat="49.03553" lon="1.84933">
        <ele>43</ele>
        <time>2018-10-13T15:12:22Z</time>
      </trkpt>
      <trkpt lat="49.03547" lon="1.84943">
        <ele>43</ele>
        <time>2018-10-13T15:12:31Z</time>
      </trkpt>
      <trkpt lat="49.03539" lon="1.84951">
        <ele>44</ele>
        <time>2018-10-13T15:12:40Z</time>
      </trkpt>
      <trkpt lat="49.03532" lon="1.84961">
        <ele>45</ele>
        <time>2018-10-13T15:12:49Z</time>
      </trkpt>
      <trkpt lat="49.03523" lon="1.84968">
        <ele>45</ele>
        <time>2018-10-13T15:13:00Z</time>
      </trkpt>
      <trkpt lat="49.03515" lon="1.84976">
        <ele>46</ele>
        <time>2018-10-13T15:13:10Z</time>
      </trkpt>
      <trkpt lat="49.03508" lon="1.84986">
        <ele>48</ele>
        <time>2018-10-13T15:13:20Z</time>
      </trkpt>
      <trkpt lat="49.03501" lon="1.84995">
        <ele>49</ele>
        <time>2018-10-13T15:13:31Z</time>
      </trkpt>
      <trkpt lat="49.03494" lon="1.85005">
        <ele>50</ele>
        <time>2018-10-13T15:13:42Z</time>
      </trkpt>
      <trkpt lat="49.03486" lon="1.85011">
        <ele>51</ele>
        <time>2018-10-13T15:13:50Z</time>
      </trkpt>
      <trkpt lat="49.03477" lon="1.85018">
        <ele>52</ele>
        <time>2018-10-13T15:13:59Z</time>
      </trkpt>
      <trkpt lat="49.0347" lon="1.85027">
        <ele>53</ele>
        <time>2018-10-13T15:14:08Z</time>
      </trkpt>
      <trkpt lat="49.03463" lon="1.85036">
        <ele>55</ele>
        <time>2018-10-13T15:14:16Z</time>
      </trkpt>
      <trkpt lat="49.03454" lon="1.8504">
        <ele>57</ele>
        <time>2018-10-13T15:14:27Z</time>
      </trkpt>
      <trkpt lat="49.03445" lon="1.85047">
        <ele>58</ele>
        <time>2018-10-13T15:14:34Z</time>
      </trkpt>
      <trkpt lat="49.03437" lon="1.85051">
        <ele>60</ele>
        <time>2018-10-13T15:14:43Z</time>
      </trkpt>
      <trkpt lat="49.03428" lon="1.85059">
        <ele>61</ele>
        <time>2018-10-13T15:14:54Z</time>
      </trkpt>
      <trkpt lat="49.0342" lon="1.85066">
        <ele>62</ele>
        <time>2018-10-13T15:15:02Z</time>
      </trkpt>
      <trkpt lat="49.03411" lon="1.85073">
        <ele>63</ele>
        <time>2018-10-13T15:15:09Z</time>
      </trkpt>
      <trkpt lat="49.03404" lon="1.85082">
        <ele>64</ele>
        <time>2018-10-13T15:15:17Z</time>
      </trkpt>
      <trkpt lat="49.03397" lon="1.85091">
        <ele>66</ele>
        <time>2018-10-13T15:15:27Z</time>
      </trkpt>
      <trkpt lat="49.03391" lon="1.85103">
        <ele>67</ele>
        <time>2018-10-13T15:15:36Z</time>
      </trkpt>
      <trkpt lat="49.03384" lon="1.85113">
        <ele>68</ele>
        <time>2018-10-13T15:15:44Z</time>
      </trkpt>
      <trkpt lat="49.03378" lon="1.85124">
        <ele>69</ele>
        <time>2018-10-13T15:15:52Z</time>
      </trkpt>
      <trkpt lat="49.03372" lon="1.85134">
        <ele>70</ele>
        <time>2018-10-13T15:16:00Z</time>
      </trkpt>
      <trkpt lat="49.03366" lon="1.85145">
        <ele>71</ele>
        <time>2018-10-13T15:16:11Z</time>
      </trkpt>
      <trkpt lat="49.03359" lon="1.85156">
        <ele>71</ele>
        <time>2018-10-13T15:16:18Z</time>
      </trkpt>
      <trkpt lat="49.03352" lon="1.85166">
        <ele>72</ele>
        <time>2018-10-13T15:16:25Z</time>
      </trkpt>
      <trkpt lat="49.03346" lon="1.85176">
        <ele>72</ele>
        <time>2018-10-13T15:16:33Z</time>
      </trkpt>
      <trkpt lat="49.03337" lon="1.85185">
        <ele>73</ele>
        <time>2018-10-13T15:16:40Z</time>
      </trkpt>
      <trkpt lat="49.0333" lon="1.85195">
        <ele>73</ele>
        <time>2018-10-13T15:16:48Z</time>
      </trkpt>
      <trkpt lat="49.03324" lon="1.85207">
        <ele>74</ele>
        <time>2018-10-13T15:16:55Z</time>
      </trkpt>
      <trkpt lat="49.03317" lon="1.85217">
        <ele>75</ele>
        <time>2018-10-13T15:17:14Z</time>
      </trkpt>
      <trkpt lat="49.03311" lon="1.85227">
        <ele>77</ele>
        <time>2018-10-13T15:19:47Z</time>
      </trkpt>
      <trkpt lat="49.03303" lon="1.85236">
        <ele>76</ele>
        <time>2018-10-13T15:19:58Z</time>
      </trkpt>
      <trkpt lat="49.03298" lon="1.85248">
        <ele>76</ele>
        <time>2018-10-13T15:20:05Z</time>
      </trkpt>
      <trkpt lat="49.03292" lon="1.85259">
        <ele>76</ele>
        <time>2018-10-13T15:20:13Z</time>
      </trkpt>
      <trkpt lat="49.03287" lon="1.8527">
        <ele>76</ele>
        <time>2018-10-13T15:20:19Z</time>
      </trkpt>
      <trkpt lat="49.03281" lon="1.85282">
        <ele>76</ele>
        <time>2018-10-13T15:20:27Z</time>
      </trkpt>
      <trkpt lat="49.03275" lon="1.85293">
        <ele>76</ele>
        <time>2018-10-13T15:20:35Z</time>
      </trkpt>
      <trkpt lat="49.03269" lon="1.85306">
        <ele>76</ele>
        <time>2018-10-13T15:20:43Z</time>
      </trkpt>
      <trkpt lat="49.03263" lon="1.85318">
        <ele>76</ele>
        <time>2018-10-13T15:20:50Z</time>
      </trkpt>
      <trkpt lat="49.03255" lon="1.85327">
        <ele>76</ele>
        <time>2018-10-13T15:20:58Z</time>
      </trkpt>
      <trkpt lat="49.03248" lon="1.85336">
        <ele>74</ele>
        <time>2018-10-13T15:21:06Z</time>
      </trkpt>
      <trkpt lat="49.03242" lon="1.85348">
        <ele>74</ele>
        <time>2018-10-13T15:21:12Z</time>
      </trkpt>
      <trkpt lat="49.03236" lon="1.85359">
        <ele>73</ele>
        <time>2018-10-13T15:21:19Z</time>
      </trkpt>
      <trkpt lat="49.03229" lon="1.85371">
        <ele>73</ele>
        <time>2018-10-13T15:21:28Z</time>
      </trkpt>
      <trkpt lat="49.03223" lon="1.85383">
        <ele>73</ele>
        <time>2018-10-13T15:21:35Z</time>
      </trkpt>
      <trkpt lat="49.03218" lon="1.85395">
        <ele>73</ele>
        <time>2018-10-13T15:21:41Z</time>
      </trkpt>
      <trkpt lat="49.03211" lon="1.85405">
        <ele>73</ele>
        <time>2018-10-13T15:21:48Z</time>
      </trkpt>
      <trkpt lat="49.03205" lon="1.85417">
        <ele>73</ele>
        <time>2018-10-13T15:21:54Z</time>
      </trkpt>
      <trkpt lat="49.03199" lon="1.85428">
        <ele>73</ele>
        <time>2018-10-13T15:22:03Z</time>
      </trkpt>
      <trkpt lat="49.03192" lon="1.8544">
        <ele>73</ele>
        <time>2018-10-13T15:22:10Z</time>
      </trkpt>
      <trkpt lat="49.03185" lon="1.85451">
        <ele>73</ele>
        <time>2018-10-13T15:22:16Z</time>
      </trkpt>
      <trkpt lat="49.03179" lon="1.85462">
        <ele>73</ele>
        <time>2018-10-13T15:22:24Z</time>
      </trkpt>
      <trkpt lat="49.03171" lon="1.85471">
        <ele>72</ele>
        <time>2018-10-13T15:22:33Z</time>
      </trkpt>
      <trkpt lat="49.03164" lon="1.85483">
        <ele>72</ele>
        <time>2018-10-13T15:22:41Z</time>
      </trkpt>
      <trkpt lat="49.03156" lon="1.85489">
        <ele>72</ele>
        <time>2018-10-13T15:22:47Z</time>
      </trkpt>
      <trkpt lat="49.03148" lon="1.85498">
        <ele>71</ele>
        <time>2018-10-13T15:22:54Z</time>
      </trkpt>
      <trkpt lat="49.0314" lon="1.85506">
        <ele>71</ele>
        <time>2018-10-13T15:23:02Z</time>
      </trkpt>
      <trkpt lat="49.03131" lon="1.85512">
        <ele>71</ele>
        <time>2018-10-13T15:23:09Z</time>
      </trkpt>
      <trkpt lat="49.03122" lon="1.85517">
        <ele>71</ele>
        <time>2018-10-13T15:23:17Z</time>
      </trkpt>
      <trkpt lat="49.03116" lon="1.85528">
        <ele>70</ele>
        <time>2018-10-13T15:23:23Z</time>
      </trkpt>
      <trkpt lat="49.0311" lon="1.85539">
        <ele>70</ele>
        <time>2018-10-13T15:23:30Z</time>
      </trkpt>
      <trkpt lat="49.03104" lon="1.85551">
        <ele>69</ele>
        <time>2018-10-13T15:23:37Z</time>
      </trkpt>
      <trkpt lat="49.03102" lon="1.85564">
        <ele>69</ele>
        <time>2018-10-13T15:23:44Z</time>
      </trkpt>
      <trkpt lat="49.03098" lon="1.85577">
        <ele>68</ele>
        <time>2018-10-13T15:23:52Z</time>
      </trkpt>
      <trkpt lat="49.03089" lon="1.85579">
        <ele>67</ele>
        <time>2018-10-13T15:24:07Z</time>
      </trkpt>
      <trkpt lat="49.03082" lon="1.85569">
        <ele>66</ele>
        <time>2018-10-13T15:24:18Z</time>
      </trkpt>
      <trkpt lat="49.03074" lon="1.85565">
        <ele>65</ele>
        <time>2018-10-13T15:24:24Z</time>
      </trkpt>
      <trkpt lat="49.03066" lon="1.85557">
        <ele>64</ele>
        <time>2018-10-13T15:24:31Z</time>
      </trkpt>
      <trkpt lat="49.03056" lon="1.8555">
        <ele>63</ele>
        <time>2018-10-13T15:24:40Z</time>
      </trkpt>
      <trkpt lat="49.03048" lon="1.85543">
        <ele>62</ele>
        <time>2018-10-13T15:24:47Z</time>
      </trkpt>
      <trkpt lat="49.03041" lon="1.85533">
        <ele>60</ele>
        <time>2018-10-13T15:24:56Z</time>
      </trkpt>
      <trkpt lat="49.03032" lon="1.85527">
        <ele>58</ele>
        <time>2018-10-13T15:25:03Z</time>
      </trkpt>
      <trkpt lat="49.03025" lon="1.85518">
        <ele>57</ele>
        <time>2018-10-13T15:25:12Z</time>
      </trkpt>
      <trkpt lat="49.03018" lon="1.85507">
        <ele>55</ele>
        <time>2018-10-13T15:25:20Z</time>
      </trkpt>
      <trkpt lat="49.03013" lon="1.85495">
        <ele>53</ele>
        <time>2018-10-13T15:25:28Z</time>
      </trkpt>
      <trkpt lat="49.03008" lon="1.85484">
        <ele>51</ele>
        <time>2018-10-13T15:25:36Z</time>
      </trkpt>
      <trkpt lat="49.03003" lon="1.8547">
        <ele>51</ele>
        <time>2018-10-13T15:25:42Z</time>
      </trkpt>
      <trkpt lat="49.03" lon="1.85455">
        <ele>50</ele>
        <time>2018-10-13T15:25:48Z</time>
      </trkpt>
      <trkpt lat="49.02994" lon="1.85442">
        <ele>49</ele>
        <time>2018-10-13T15:25:53Z</time>
      </trkpt>
      <trkpt lat="49.0299" lon="1.8543">
        <ele>47</ele>
        <time>2018-10-13T15:26:00Z</time>
      </trkpt>
      <trkpt lat="49.02986" lon="1.85416">
        <ele>46</ele>
        <time>2018-10-13T15:26:09Z</time>
      </trkpt>
      <trkpt lat="49.02979" lon="1.85406">
        <ele>45</ele>
        <time>2018-10-13T15:26:18Z</time>
      </trkpt>
      <trkpt lat="49.02973" lon="1.85395">
        <ele>44</ele>
        <time>2018-10-13T15:26:26Z</time>
      </trkpt>
      <trkpt lat="49.02968" lon="1.85381">
        <ele>43</ele>
        <time>2018-10-13T15:26:34Z</time>
      </trkpt>
      <trkpt lat="49.02962" lon="1.8537">
        <ele>42</ele>
        <time>2018-10-13T15:26:41Z</time>
      </trkpt>
      <trkpt lat="49.02954" lon="1.85362">
        <ele>42</ele>
        <time>2018-10-13T15:26:49Z</time>
      </trkpt>
      <trkpt lat="49.02947" lon="1.85354">
        <ele>42</ele>
        <time>2018-10-13T15:26:54Z</time>
      </trkpt>
      <trkpt lat="49.02939" lon="1.85345">
        <ele>41</ele>
        <time>2018-10-13T15:27:03Z</time>
      </trkpt>
      <trkpt lat="49.0293" lon="1.85341">
        <ele>41</ele>
        <time>2018-10-13T15:27:10Z</time>
      </trkpt>
    </trkseg>
  </trk>
</gpx>